[[{"header":{"parameterUnit":"m.s-1","parameterCategory":1,"la1":31.0,"la2":29.5877,"lo1":-88.7671,"lo2":-86.6584,"dy":0.0162,"dx":0.0185,"nx":115,"ny":88,"refTime":"2023-03-09T06:00:00:Z","depth":0,"parameterNumber":2,"parameterNumberName":"U-component_of_WINDS"},"data":[0.0,0.0,0.0,0.0,0.0,0.0,0.0,0.0,0.0,0.0,0.0,0.0,0.0,0.0,0.0,0.0,0.0,0.0,0.0,0.0,0.0,0.0,0.0,0.0,0.0,0.0,0.0,0.0,0.0,0.0,0.0,0.0,0.0,0.0,0.0,0.0,0.0,0.0,0.0,0.0,0.0,0.0,0.0,0.0,0.0,0.0,0.0,0.0,0.0,0.0,0.0,0.0,0.0,0.0,0.0,0.0,0.0,0.0,0.0,0.0,0.0,0.0,0.0,0.0,0.0,0.0,0.0,0.0,0.0,0.0,0.0,0.0,0.0,0.0,0.0,0.0,0.0,0.0,0.0,0.0,0.0,0.0,0.0,0.0,0.0,0.0,0.0,0.0,0.0,0.0,0.0,0.0,0.0,0.0,0.0,0.0,0.0,0.0,0.0,0.0,0.0,0.0,0.0,0.0,0.0,0.0,0.0,0.0,0.0,0.0,0.0,0.0,0.0,0.0,0.0,0.0,0.0,0.0,0.0,0.0,0.0,0.0,0.0,0.0,0.0,0.0,0.0,0.0,0.0,0.0,0.0,0.0,0.0,0.0,0.0,0.0,0.0,0.0,0.0,0.0,0.0,0.0,0.0,0.0,0.0,0.0,0.0,0.0,0.0,0.0,0.0,0.0,0.0,0.0,0.0,0.0,0.0,0.0,0.0,0.0,0.0,0.0,0.0,0.0,0.0,0.0,0.0,0.0,0.0,0.0,0.0,0.0,0.0,0.0,0.0,0.0,0.0,0.0,0.0,0.0,0.0,0.0,0.0,0.0,0.0,0.0,0.0,0.0,0.0,0.0,0.0,0.0,0.0,0.0,0.0,0.0,0.0,0.0,0.0,0.0,0.0,0.0,0.0,0.0,0.0,0.0,0.0,0.0,0.0,0.0,0.0,0.0,0.0,0.0,0.0,0.0,0.0,0.0,0.0,0.0,0.0,0.0,0.0,0.0,0.0,0.0,0.0,0.0,0.0,0.0,0.0,0.0,0.0,0.0,0.0,0.0,0.0,0.0,0.0,0.0,0.0,0.0,0.0,0.0,0.0,0.0,0.0,0.0,0.0,0.0,0.0,0.0,0.0,0.0,0.0,0.0,0.0,0.0,0.0,0.0,0.0,0.0,0.0,0.0,0.0,0.0,0.0,0.0,0.0,0.0,0.0,0.0,0.0,0.0,0.0,0.0,0.0,0.0,0.0,0.0,0.0,0.0,0.0,0.0,0.0,0.0,0.0,0.0,0.0,0.0,0.0,0.0,0.0,0.0,0.0,0.0,0.0,0.0,0.0,0.0,0.0,0.0,0.0,0.0,0.0,0.0,0.0,0.0,0.0,0.0,0.0,0.0,0.0,0.0,0.0,0.0,0.0,0.0,0.0,0.0,0.0,0.0,0.0,0.0,0.0,0.0,0.0,0.0,0.0,0.0,0.0,0.0,0.0,0.0,0.0,0.0,0.0,0.0,0.0,0.0,0.0,0.0,0.0,0.0,0.0,0.0,0.0,0.0,0.0,0.0,0.0,0.0,0.0,0.0,0.0,0.0,0.0,0.0,0.0,0.0,0.0,0.0,0.0,0.0,0.0,0.0,0.0,0.0,0.0,0.0,0.0,0.0,0.0,0.0,0.0,0.0,0.0,0.0,0.0,0.0,0.0,0.0,0.0,0.0,0.0,0.0,0.0,0.0,0.0,0.0,0.0,0.0,0.0,0.0,0.0,0.0,0.0,0.0,0.0,0.0,0.0,0.0,0.0,0.0,0.0,0.0,0.0,0.0,0.0,0.0,0.0,0.0,0.0,0.0,0.0,0.0,0.0,0.0,0.0,0.0,0.0,0.0,0.0,0.0,0.0,0.0,0.0,0.0,0.0,0.0,0.0,0.0,0.0,0.0,0.0,0.0,0.0,0.0,0.0,0.0,0.0,0.0,0.0,0.0,0.0,0.0,0.0,0.0,0.0,0.0,0.0,0.0,0.0,0.0,0.0,0.0,0.0,0.0,0.0,0.0,0.0,0.0,0.0,0.0,0.0,0.0,0.0,0.0,0.0,0.0,0.0,0.0,0.0,0.0,0.0,0.0,0.0,0.0,0.0,0.0,0.0,0.0,0.0,0.0,0.0,0.0,0.0,0.0,0.0,0.0,0.0,0.0,0.0,0.0,0.0,0.0,0.0,0.0,0.0,0.0,0.0,0.0,0.0,0.0,0.0,0.0,0.0,0.0,0.0,0.0,0.0,0.0,0.0,0.0,0.0,0.0,0.0,0.0,0.0,0.0,0.0,0.0,0.0,0.0,0.0,0.0,0.0,0.0,0.0,0.0,0.0,0.0,0.0,0.0,0.0,0.0,0.0,0.0,0.0,0.0,0.0,0.0,0.0,0.0,0.0,0.0,0.0,0.0,0.0,0.0,0.0,0.0,0.0,0.0,0.0,0.0,0.0,0.0,0.0,0.0,0.0,0.0,0.0,0.0,0.0,0.0,0.0,0.0,0.0,0.0,0.0,0.0,0.0,0.0,0.0,0.0,0.0,0.0,0.0,0.0,0.0,0.0,0.0,0.0,0.0,0.0,0.0,0.0,0.0,0.0,0.0,0.0,0.0,0.0,0.0,0.0,0.0,0.0,0.0,0.0,0.0,0.0,0.0,0.0,0.0,0.0,0.0,0.0,0.0,0.0,0.0,0.0,0.0,0.0,0.0,0.0,0.0,0.0,0.0,0.0,0.0,0.0,0.0,0.0,0.0,0.0,0.0,0.0,0.0,0.0,0.0,0.0,0.0,0.0,0.0,0.0,0.0,0.0,0.0,0.0,0.0,0.0,0.0,0.0,0.0,0.0,0.0,0.0,0.0,0.0,0.0,0.0,0.0,0.0,0.0,0.0,0.0,0.0,0.0,0.0,0.0,0.0,0.0,0.0,0.0,0.0,0.0,0.0,0.0,0.0,0.0,0.0,0.0,0.0,0.0,0.0,0.0,0.0,0.0,0.0,0.0,0.0,0.0,0.0,0.0,0.0,0.0,0.0,0.0,0.0,0.0,0.0,0.0,0.0,0.0,0.0,0.0,0.0,0.0,0.0,0.0,0.0,0.0,0.0,0.0,0.0,0.0,0.0,0.0,0.0,0.0,0.0,0.0,0.0,0.0,0.0,0.0,0.0,0.0,0.0,0.0,0.0,0.0,0.0,0.0,0.0,0.0,0.0,0.0,0.0,0.0,0.0,0.0,0.0,0.0,0.0,0.0,0.0,0.0,0.0,0.0,0.0,0.0,0.0,0.0,0.0,0.0,0.0,0.0,0.0,0.0,0.0,0.0,0.0,0.0,0.0,0.0,0.0,0.0,0.0,0.0,0.0,0.0,0.0,0.0,0.0,0.0,0.0,0.0,0.0,0.0,0.0,0.0,0.0,0.0,0.0,0.0,0.0,0.0,0.0,0.0,0.0,0.0,0.0,0.0,0.0,0.0,0.0,0.0,0.0,0.0,0.0,0.0,0.0,0.0,0.0,0.0,0.0,0.0,0.0,0.0,0.0,0.0,0.0,0.0,0.0,0.0,0.0,0.0,0.0,0.0,0.0,0.0,0.0,0.0,0.0,0.0,0.0,0.0,0.0,0.0,0.0,0.0,0.0,0.0,0.0,0.0,0.0,0.0,0.0,0.0,0.0,0.0,0.0,0.0,0.0,0.0,0.0,0.0,0.0,0.0,0.0,0.0,0.0,0.0,0.0,0.0,0.0,0.0,0.0,0.0,0.0,0.0,0.0,0.0,0.0,0.0,0.0,0.0,0.0,0.0,0.0,0.0,0.0,0.0,0.0,0.0,0.0,0.0,0.0,0.0,0.0,0.0,0.0,0.0,0.0,0.0,0.0,0.0,0.0,0.0,0.0,0.0,0.0,0.0,0.0,0.0,0.0,0.0,0.0,0.0,0.0,0.0,0.0,0.0,0.0,0.0,0.0,0.0,0.0,0.0,0.0,0.0,0.0,0.0,0.0,0.0,0.0,0.0,0.0,0.0,0.0,0.0,0.0,0.0,0.0,0.0,0.0,0.0,0.0,0.0,0.0,0.0,0.0,0.0,0.0,0.0,0.0,0.0,0.0,0.0,0.0,0.0,0.0,0.0,0.0,0.0,0.0,0.0,0.0,0.0,0.0,0.0,0.0,0.0,0.0,0.0,0.0,0.0,0.0,0.0,0.0,0.0,0.0,0.0,0.0,0.0,0.0,0.0,0.0,0.0,0.0,0.0,0.0,0.0,0.0,3.562,0.0,0.0,0.0,0.0,0.0,0.0,0.0,0.0,0.0,0.0,0.0,0.0,0.0,0.0,0.0,0.0,0.0,0.0,0.0,0.0,0.0,0.0,0.0,0.0,0.0,0.0,0.0,0.0,0.0,0.0,0.0,0.0,0.0,0.0,0.0,0.0,0.0,0.0,0.0,0.0,0.0,0.0,0.0,0.0,0.0,0.0,0.0,0.0,0.0,0.0,0.0,0.0,0.0,0.0,0.0,0.0,0.0,0.0,0.0,0.0,0.0,0.0,0.0,0.0,0.0,0.0,0.0,0.0,0.0,0.0,0.0,0.0,0.0,0.0,0.0,0.0,0.0,0.0,0.0,0.0,0.0,0.0,0.0,0.0,0.0,0.0,0.0,0.0,0.0,0.0,0.0,0.0,0.0,0.0,0.0,0.0,0.0,0.0,0.0,0.0,0.0,0.0,0.0,0.0,0.0,0.0,0.0,0.0,0.0,0.0,3.6358,3.6358,3.6358,3.6168,3.562,0.0,0.0,0.0,0.0,0.0,0.0,0.0,0.0,0.0,0.0,0.0,0.0,0.0,0.0,0.0,0.0,0.0,0.0,0.0,0.0,0.0,0.0,0.0,0.0,0.0,0.0,0.0,0.0,0.0,0.0,0.0,0.0,0.0,0.0,0.0,0.0,0.0,0.0,0.0,0.0,0.0,0.0,0.0,0.0,0.0,0.0,0.0,0.0,0.0,0.0,0.0,0.0,0.0,0.0,0.0,0.0,0.0,0.0,0.0,0.0,0.0,0.0,0.0,0.0,0.0,0.0,0.0,0.0,0.0,0.0,0.0,0.0,0.0,0.0,0.0,0.0,0.0,0.0,0.0,0.0,0.0,0.0,0.0,0.0,0.0,0.0,0.0,0.0,0.0,0.0,0.0,0.0,0.0,0.0,0.0,0.0,0.0,0.0,0.0,0.0,0.0,0.0,0.0,0.0,0.0,0.0,0.0,0.0,0.0,0.0,0.0,0.0,3.6358,3.6073,3.5524,0.0,0.0,0.0,0.0,0.0,0.0,0.0,0.0,0.0,0.0,0.0,0.0,0.0,0.0,0.0,0.0,0.0,0.0,0.0,0.0,0.0,0.0,0.0,0.0,0.0,0.0,0.0,0.0,0.0,0.0,0.0,0.0,0.0,0.0,0.0,0.0,0.0,0.0,0.0,0.0,0.0,0.0,0.0,0.0,0.0,0.0,0.0,0.0,0.0,0.0,0.0,0.0,0.0,0.0,0.0,0.0,0.0,0.0,0.0,0.0,0.0,0.0,0.0,0.0,0.0,0.0,0.0,0.0,0.0,0.0,0.0,0.0,0.0,0.0,0.0,0.0,0.0,0.0,0.0,0.0,0.0,0.0,0.0,0.0,0.0,0.0,0.0,0.0,0.0,0.0,0.0,0.0,0.0,0.0,0.0,0.0,0.0,0.0,0.0,0.0,0.0,0.0,0.0,0.0,0.0,0.0,0.0,0.0,0.0,0.0,3.6358,3.6358,3.6358,0.0,3.5211,0.0,0.0,0.0,0.0,0.0,0.0,0.0,0.0,0.0,0.0,0.0,0.0,0.0,0.0,0.0,0.0,0.0,0.0,0.0,0.0,0.0,0.0,0.0,0.0,0.0,0.0,0.0,0.0,0.0,0.0,0.0,0.0,0.0,0.0,0.0,0.0,0.0,0.0,0.0,0.0,0.0,0.0,0.0,0.0,0.0,0.0,0.0,0.0,0.0,0.0,0.0,0.0,0.0,0.0,0.0,0.0,0.0,0.0,0.0,0.0,0.0,0.0,0.0,0.0,0.0,0.0,0.0,0.0,0.0,0.0,0.0,0.0,0.0,0.0,0.0,0.0,0.0,0.0,0.0,0.0,0.0,0.0,0.0,0.0,0.0,0.0,0.0,0.0,0.0,0.0,0.0,0.0,0.0,0.0,0.0,0.0,0.0,0.0,0.0,0.0,0.0,0.0,0.0,0.0,0.0,0.0,0.0,0.0,0.0,0.0,3.6358,3.6358,3.6073,3.5596,0.0,0.0,0.0,0.0,0.0,0.0,0.0,0.0,0.0,0.0,0.0,0.0,0.0,0.0,0.0,0.0,0.0,0.0,0.0,0.0,0.0,0.0,0.0,0.0,0.0,0.0,0.0,0.0,0.0,0.0,0.0,0.0,0.0,0.0,0.0,0.0,0.0,0.0,0.0,0.0,0.0,0.0,0.0,0.0,0.0,0.0,0.0,0.0,0.0,0.0,0.0,0.0,0.0,0.0,0.0,0.0,0.0,0.0,0.0,0.0,0.0,0.0,0.0,0.0,0.0,0.0,0.0,0.0,0.0,0.0,0.0,0.0,0.0,0.0,0.0,0.0,0.0,0.0,0.0,0.0,0.0,0.0,0.0,0.0,0.0,0.0,0.0,0.0,0.0,0.0,0.0,0.0,0.0,0.0,0.0,0.0,0.0,0.0,0.0,0.0,0.0,0.0,0.0,0.0,0.0,0.0,0.0,0.0,0.0,0.0,3.6358,3.6358,3.6263,3.5812,3.5211,3.4726,0.0,0.0,0.0,0.0,0.0,0.0,0.0,0.0,0.0,0.0,0.0,0.0,0.0,0.0,0.0,0.0,0.0,0.0,0.0,0.0,0.0,0.0,0.0,0.0,0.0,0.0,0.0,0.0,0.0,0.0,0.0,0.0,0.0,0.0,0.0,0.0,0.0,0.0,0.0,0.0,0.0,0.0,0.0,0.0,0.0,0.0,0.0,0.0,0.0,0.0,0.0,0.0,0.0,0.0,0.0,0.0,0.0,0.0,0.0,0.0,0.0,0.0,0.0,0.0,0.0,0.0,0.0,0.0,0.0,0.0,0.0,0.0,0.0,0.0,0.0,0.0,0.0,0.0,0.0,0.0,0.0,0.0,0.0,0.0,0.0,0.0,0.0,0.0,0.0,0.0,0.0,0.0,0.0,0.0,0.0,0.0,0.0,0.0,0.0,0.0,0.0,0.0,0.0,0.0,0.0,0.0,0.0,0.0,3.6358,3.6358,3.6263,3.6003,3.5524,3.492,0.0,0.0,0.0,0.0,0.0,0.0,0.0,0.0,0.0,0.0,0.0,0.0,0.0,0.0,0.0,0.0,0.0,0.0,0.0,0.0,0.0,0.0,0.0,0.0,0.0,0.0,0.0,0.0,0.0,0.0,0.0,0.0,0.0,0.0,0.0,0.0,0.0,0.0,0.0,0.0,0.0,0.0,0.0,0.0,0.0,0.0,0.0,0.0,0.0,0.0,0.0,0.0,0.0,0.0,0.0,0.0,0.0,0.0,0.0,0.0,0.0,0.0,0.0,0.0,0.0,0.0,0.0,0.0,0.0,0.0,0.0,0.0,0.0,0.0,0.0,0.0,0.0,0.0,0.0,0.0,0.0,0.0,0.0,0.0,0.0,0.0,0.0,0.0,0.0,0.0,0.0,0.0,0.0,0.0,0.0,0.0,0.0,0.0,0.0,0.0,0.0,0.0,0.0,0.0,0.0,0.0,0.0,0.0,0.0,3.6358,3.6168,3.6003,3.5716,3.5211,3.475,0.0,0.0,0.0,0.0,0.0,0.0,0.0,0.0,0.0,0.0,0.0,0.0,0.0,0.0,0.0,0.0,0.0,0.0,0.0,0.0,0.0,0.0,0.0,0.0,0.0,0.0,0.0,0.0,0.0,0.0,0.0,0.0,0.0,0.0,0.0,0.0,0.0,0.0,0.0,0.0,0.0,0.0,0.0,0.0,0.0,0.0,0.0,0.0,0.0,0.0,0.0,0.0,0.0,0.0,0.0,0.0,0.0,0.0,0.0,0.0,0.0,0.0,0.0,0.0,0.0,0.0,0.0,0.0,0.0,0.0,0.0,0.0,0.0,0.0,0.0,0.0,0.0,0.0,0.0,0.0,0.0,0.0,0.0,0.0,0.0,0.0,0.0,0.0,0.0,0.0,0.0,0.0,0.0,0.0,0.0,0.0,0.0,0.0,0.0,0.0,0.0,0.0,0.0,0.0,0.0,0.0,0.0,0.0,0.0,3.6634,0.0,3.6331,0.0,3.538,3.4817,0.0,0.0,0.0,0.0,0.0,0.0,0.0,0.0,0.0,0.0,0.0,0.0,0.0,0.0,0.0,0.0,0.0,0.0,0.0,0.0,0.0,0.0,0.0,0.0,0.0,0.0,0.0,0.0,0.0,0.0,0.0,0.0,0.0,0.0,0.0,0.0,0.0,0.0,0.0,0.0,0.0,0.0,0.0,0.0,0.0,0.0,0.0,0.0,0.0,0.0,0.0,0.0,0.0,0.0,0.0,0.0,0.0,0.0,0.0,0.0,0.0,0.0,0.0,0.0,0.0,0.0,0.0,0.0,0.0,0.0,0.0,0.0,0.0,0.0,0.0,0.0,0.0,0.0,0.0,0.0,0.0,0.0,0.0,0.0,0.0,0.0,0.0,0.0,0.0,0.0,0.0,0.0,0.0,0.0,0.0,0.0,0.0,0.0,0.0,0.0,0.0,0.0,0.0,0.0,0.0,0.0,0.0,0.0,3.6709,3.7186,3.7443,3.7394,3.7218,3.5905,3.5289,0.0,0.0,0.0,0.0,0.0,0.0,0.0,0.0,0.0,0.0,0.0,0.0,0.0,0.0,0.0,0.0,0.0,0.0,0.0,0.0,0.0,0.0,0.0,0.0,0.0,0.0,0.0,0.0,0.0,0.0,0.0,0.0,0.0,0.0,0.0,0.0,0.0,0.0,0.0,0.0,0.0,0.0,0.0,0.0,0.0,0.0,0.0,0.0,0.0,0.0,0.0,0.0,0.0,0.0,0.0,0.0,0.0,0.0,0.0,0.0,0.0,0.0,0.0,0.0,0.0,0.0,0.0,0.0,0.0,0.0,0.0,0.0,0.0,0.0,0.0,0.0,0.0,0.0,0.0,0.0,0.0,0.0,0.0,0.0,0.0,0.0,0.0,0.0,0.0,0.0,0.0,0.0,0.0,0.0,0.0,0.0,0.0,0.0,0.0,0.0,0.0,0.0,0.0,0.0,0.0,0.0,0.0,0.0,0.0,3.8016,3.7787,3.7682,3.7808,3.6613,3.5559,0.0,0.0,0.0,0.0,0.0,0.0,0.0,0.0,0.0,0.0,0.0,0.0,0.0,0.0,0.0,0.0,0.0,0.0,0.0,0.0,0.0,0.0,0.0,0.0,0.0,0.0,0.0,0.0,0.0,0.0,0.0,0.0,0.0,0.0,0.0,0.0,0.0,0.0,0.0,0.0,0.0,0.0,0.0,0.0,0.0,0.0,0.0,0.0,0.0,0.0,0.0,0.0,0.0,0.0,0.0,0.0,0.0,0.0,0.0,0.0,0.0,0.0,0.0,0.0,0.0,0.0,0.0,0.0,0.0,0.0,0.0,0.0,0.0,0.0,0.0,0.0,0.0,0.0,0.0,0.0,0.0,0.0,0.0,0.0,0.0,0.0,0.0,0.0,0.0,0.0,0.0,0.0,0.0,0.0,0.0,0.0,0.0,0.0,0.0,0.0,0.0,0.0,0.0,0.0,0.0,0.0,0.0,0.0,0.0,3.9611,3.9209,3.9126,3.9233,3.7905,3.6503,3.5298,0.0,0.0,0.0,0.0,0.0,0.0,0.0,0.0,0.0,0.0,0.0,0.0,0.0,0.0,0.0,0.0,0.0,0.0,0.0,0.0,0.0,0.0,0.0,0.0,0.0,0.0,0.0,0.0,0.0,0.0,0.0,0.0,0.0,0.0,0.0,0.0,0.0,0.0,0.0,0.0,0.0,0.0,0.0,0.0,0.0,0.0,0.0,0.0,0.0,0.0,0.0,0.0,0.0,0.0,0.0,0.0,0.0,0.0,0.0,0.0,0.0,0.0,0.0,0.0,0.0,0.0,0.0,0.0,0.0,0.0,0.0,0.0,0.0,0.0,0.0,0.0,0.0,0.0,0.0,0.0,0.0,0.0,0.0,0.0,0.0,0.0,0.0,0.0,0.0,0.0,0.0,0.0,0.0,0.0,0.0,0.0,0.0,0.0,0.0,0.0,0.0,0.0,0.0,0.0,0.0,0.0,0.0,0.0,4.1638,4.1759,4.1571,4.1033,3.9329,3.804,0.0,0.0,0.0,0.0,0.0,0.0,0.0,0.0,0.0,0.0,0.0,0.0,0.0,0.0,0.0,0.0,0.0,0.0,0.0,0.0,0.0,0.0,0.0,0.0,0.0,0.0,0.0,0.0,0.0,0.0,0.0,0.0,0.0,0.0,0.0,0.0,0.0,0.0,0.0,0.0,0.0,0.0,0.0,0.0,0.0,0.0,0.0,0.0,0.0,0.0,0.0,0.0,0.0,0.0,0.0,0.0,0.0,0.0,0.0,0.0,0.0,0.0,0.0,0.0,0.0,0.0,0.0,0.0,0.0,0.0,0.0,0.0,0.0,0.0,0.0,0.0,0.0,0.0,0.0,0.0,0.0,0.0,0.0,0.0,0.0,0.0,0.0,0.0,0.0,0.0,0.0,0.0,0.0,0.0,0.0,0.0,0.0,0.0,0.0,0.0,0.0,0.0,0.0,0.0,0.0,0.0,0.0,0.0,0.0,4.2848,4.338,4.2885,4.1353,3.9939,3.863,0.0,0.0,0.0,0.0,0.0,0.0,0.0,0.0,0.0,0.0,0.0,0.0,0.0,0.0,0.0,0.0,0.0,0.0,0.0,0.0,0.0,0.0,0.0,0.0,0.0,0.0,0.0,0.0,0.0,0.0,0.0,0.0,0.0,0.0,0.0,0.0,0.0,0.0,0.0,0.0,0.0,0.0,0.0,0.0,0.0,0.0,0.0,0.0,0.0,0.0,0.0,0.0,0.0,0.0,0.0,0.0,0.0,0.0,0.0,0.0,0.0,0.0,0.0,0.0,0.0,0.0,0.0,0.0,0.0,0.0,0.0,0.0,0.0,0.0,0.0,0.0,0.0,0.0,0.0,0.0,0.0,0.0,0.0,0.0,0.0,0.0,0.0,0.0,0.0,0.0,0.0,0.0,0.0,0.0,0.0,0.0,0.0,0.0,0.0,0.0,0.0,0.0,0.0,0.0,0.0,0.0,0.0,0.0,4.2532,4.3378,4.3808,4.3378,4.1775,4.0593,3.9635,0.0,0.0,0.0,0.0,0.0,0.0,0.0,0.0,0.0,0.0,0.0,0.0,0.0,0.0,0.0,0.0,0.0,0.0,0.0,0.0,0.0,0.0,0.0,0.0,0.0,0.0,0.0,0.0,0.0,0.0,0.0,0.0,0.0,0.0,0.0,0.0,0.0,0.0,0.0,0.0,0.0,0.0,0.0,0.0,0.0,0.0,0.0,0.0,0.0,0.0,0.0,0.0,0.0,0.0,0.0,0.0,0.0,0.0,0.0,0.0,0.0,0.0,0.0,0.0,0.0,0.0,0.0,0.0,0.0,0.0,0.0,0.0,0.0,0.0,0.0,0.0,0.0,0.0,0.0,0.0,0.0,0.0,0.0,0.0,0.0,0.0,0.0,0.0,0.0,0.0,0.0,0.0,0.0,0.0,0.0,0.0,0.0,0.0,0.0,0.0,0.0,0.0,0.0,0.0,0.0,0.0,0.0,0.0,4.2413,4.354,4.3831,4.3419,4.2436,4.1331,4.0578,0.0,0.0,0.0,0.0,0.0,0.0,0.0,0.0,0.0,0.0,0.0,0.0,0.0,0.0,0.0,0.0,0.0,0.0,0.0,0.0,0.0,0.0,0.0,0.0,0.0,0.0,0.0,0.0,0.0,0.0,0.0,0.0,0.0,0.0,0.0,0.0,0.0,0.0,0.0,0.0,0.0,0.0,0.0,0.0,0.0,0.0,0.0,0.0,0.0,0.0,0.0,0.0,0.0,0.0,0.0,0.0,0.0,0.0,0.0,0.0,0.0,0.0,0.0,0.0,0.0,0.0,0.0,0.0,0.0,0.0,0.0,0.0,0.0,0.0,0.0,0.0,0.0,0.0,0.0,0.0,0.0,0.0,0.0,0.0,0.0,0.0,0.0,0.0,0.0,0.0,0.0,0.0,0.0,0.0,0.0,0.0,0.0,0.0,0.0,0.0,0.0,0.0,0.0,0.0,0.0,0.0,0.0,0.0,4.2935,4.3985,4.4135,4.4102,4.3543,4.1956,4.0472,0.0,0.0,0.0,0.0,0.0,0.0,0.0,0.0,0.0,0.0,0.0,0.0,0.0,0.0,0.0,0.0,0.0,0.0,0.0,0.0,0.0,0.0,0.0,0.0,0.0,0.0,0.0,0.0,0.0,0.0,0.0,0.0,0.0,0.0,0.0,0.0,0.0,0.0,0.0,0.0,0.0,0.0,0.0,0.0,0.0,0.0,0.0,0.0,1.141,0.0,0.0,0.0,0.0,0.0,0.0,0.0,0.0,0.0,0.0,0.0,0.0,0.0,0.0,0.0,0.0,0.0,0.0,0.0,0.0,0.0,0.0,0.0,0.0,0.0,0.0,0.0,0.0,0.0,0.0,0.0,0.0,0.0,0.0,0.0,0.0,0.0,0.0,0.0,0.0,0.0,0.0,0.0,0.0,0.0,0.0,0.0,0.0,0.0,0.0,0.0,0.0,0.0,0.0,0.0,0.0,0.0,0.0,0.0,4.2861,4.3941,4.4154,4.372,4.3107,4.2138,4.1293,0.0,0.0,0.0,0.0,0.0,0.0,0.0,0.0,0.0,0.0,0.0,0.0,0.0,0.0,0.0,0.0,0.0,0.0,0.0,0.0,0.0,0.0,0.0,0.0,0.0,0.0,0.0,0.0,0.0,0.0,0.0,0.0,0.0,0.0,0.0,0.0,0.0,0.0,0.0,0.0,0.0,0.0,0.0,0.0,0.0,0.0,0.0,0.0,0.0,0.0,0.0,0.0,0.0,0.0,0.0,0.0,0.0,0.0,0.0,0.0,0.0,0.0,0.0,0.0,0.0,0.0,0.0,0.0,0.0,0.0,0.0,0.0,0.0,0.0,0.0,0.0,0.0,0.0,0.0,0.0,0.0,0.0,0.0,0.0,0.0,0.0,0.0,0.0,0.0,0.0,0.0,0.0,0.0,0.0,0.0,0.0,0.0,0.0,0.0,0.0,0.0,0.0,0.0,0.0,0.0,0.0,0.0,4.135,4.2588,4.372,4.3872,4.3322,4.227,4.2249,4.2025,4.1717,0.0,0.0,0.0,0.0,0.0,0.0,0.0,0.0,0.0,0.0,0.0,0.0,0.0,0.0,0.0,0.0,0.0,0.0,0.0,0.0,0.0,0.0,0.0,0.0,0.0,0.0,0.0,0.0,0.0,0.0,0.0,0.0,0.0,0.0,0.0,0.0,0.0,0.0,1.4364,1.3874,0.0,0.0,0.0,0.0,0.0,0.0,0.0,0.0,1.1729,0.0,0.0,0.0,0.0,0.0,0.0,0.0,0.0,0.0,0.0,0.0,0.0,0.0,0.0,0.0,0.0,0.0,0.0,0.0,0.0,0.0,0.0,0.0,0.0,0.0,0.0,0.0,0.0,0.0,0.0,0.0,0.0,0.0,0.0,0.0,0.0,0.0,0.0,0.0,0.0,0.0,0.0,0.0,0.0,0.0,0.0,0.0,0.0,0.0,0.0,0.0,0.0,0.0,0.0,0.0,0.0,3.8895,4.0865,4.2493,4.3418,4.3845,4.3573,4.2753,4.2732,4.2285,4.1018,0.0,0.0,0.0,0.0,0.0,0.0,0.0,0.0,0.0,0.0,0.0,0.0,0.0,0.0,0.0,0.0,0.0,0.0,0.0,0.0,0.0,0.0,0.0,0.0,0.0,0.0,0.0,0.0,0.0,0.0,0.0,0.0,0.0,0.0,0.0,0.0,0.0,0.0,0.0,1.3666,1.3513,0.0,0.0,0.0,0.0,0.0,0.0,0.0,0.0,1.1724,0.0,0.0,0.0,0.0,0.0,0.0,0.0,0.0,0.0,0.0,0.0,0.0,0.0,0.0,0.0,0.0,0.0,0.0,0.0,0.0,0.0,0.0,0.0,0.0,0.0,0.0,0.0,0.0,0.0,0.0,0.0,0.0,0.0,0.0,0.0,0.0,0.0,0.0,0.0,0.0,0.0,0.0,0.0,0.0,0.0,0.0,0.0,0.0,0.0,0.0,0.0,0.0,0.0,0.0,0.0,3.9593,4.121,4.2449,4.3426,4.37,4.3573,4.2898,4.2668,4.2102,0.0,0.0,0.0,0.0,0.0,0.0,0.0,0.0,0.0,0.0,0.0,0.0,0.0,0.0,0.0,0.0,0.0,0.0,0.0,0.0,0.0,0.0,0.0,0.0,0.0,0.0,0.0,0.0,0.0,0.0,0.0,0.0,0.0,0.0,0.0,0.0,0.0,0.0,0.0,0.0,1.3359,1.3229,1.3086,0.0,0.0,0.0,0.0,0.0,0.0,1.2259,1.1848,0.0,0.0,0.0,0.0,0.0,0.0,0.0,0.0,0.0,0.0,0.0,0.0,0.0,0.0,0.0,0.0,0.0,0.0,0.0,0.0,0.0,0.0,0.0,0.0,0.0,0.0,0.0,0.0,0.0,0.0,0.0,0.0,0.0,0.0,0.0,0.0,0.0,0.0,0.0,0.0,0.0,0.0,0.0,0.0,0.0,0.0,0.0,0.0,0.0,0.0,0.0,0.0,0.0,0.0,0.0,4.0183,4.1299,4.2312,4.3148,4.3294,4.3165,4.2761,4.2348,4.169,0.0,0.0,0.0,0.0,0.0,0.0,0.0,0.0,0.0,0.0,0.0,0.0,0.0,0.0,0.0,0.0,0.0,0.0,0.0,0.0,0.0,0.0,0.0,0.0,0.0,0.0,0.0,0.0,0.0,0.0,0.0,0.0,0.0,0.0,0.0,0.0,0.0,0.0,0.0,0.0,0.0,1.3027,1.2993,1.2855,0.0,0.0,0.0,0.0,1.2782,1.2536,0.0,0.0,0.0,0.0,0.0,0.0,0.0,0.0,0.0,0.0,0.0,0.0,0.0,0.0,0.0,0.0,0.0,0.0,0.0,0.0,0.0,0.0,0.0,0.0,0.0,0.0,0.0,0.0,0.0,0.0,0.0,0.0,0.0,0.0,0.0,0.0,0.0,0.0,0.0,0.0,0.0,0.0,0.0,0.0,0.0,0.0,0.0,0.0,0.0,0.0,0.0,0.0,0.0,0.0,0.0,0.0,3.8705,4.0347,4.161,4.2461,4.287,4.2891,4.233,4.1902,4.1045,0.0,0.0,0.0,0.0,0.0,0.0,0.0,0.0,0.0,0.0,0.0,0.0,0.0,0.0,0.0,0.0,0.0,0.0,0.0,0.0,0.0,0.0,0.0,0.0,0.0,0.0,0.0,0.0,0.0,0.0,0.0,0.0,0.0,0.0,0.0,0.0,0.0,0.0,0.0,0.0,0.0,1.3155,1.2855,1.2942,1.3071,0.0,0.0,1.2782,1.2475,1.2301,0.0,0.0,0.0,0.0,0.0,0.0,0.0,0.0,0.0,0.0,0.0,0.0,0.0,0.0,0.0,0.0,0.0,0.0,0.0,0.0,0.0,0.0,0.0,0.0,0.0,0.0,0.0,0.0,0.0,0.0,0.0,0.0,0.0,0.0,0.0,0.0,0.0,0.0,0.0,0.0,0.0,0.0,0.0,0.0,0.0,0.0,0.0,0.0,0.0,0.0,0.0,0.0,0.0,0.0,0.0,3.7577,3.9493,4.0801,4.1786,4.2625,4.3224,4.3089,4.2645,4.2048,4.0813,0.0,0.0,0.0,0.0,0.0,0.0,0.0,0.0,0.0,0.0,0.0,0.0,0.0,0.0,0.0,0.0,0.0,0.0,0.0,0.0,0.0,0.0,0.0,0.0,0.0,0.0,0.0,0.0,0.0,0.0,0.0,0.0,0.0,0.0,0.0,0.0,0.0,0.0,0.0,0.0,0.0,0.0,1.318,1.3349,0.0,0.0,0.0,1.2958,1.2791,0.0,0.0,0.0,0.0,0.0,0.0,0.0,0.0,0.0,0.0,0.0,0.0,0.0,0.0,0.0,0.0,0.0,0.0,0.0,0.0,0.0,0.0,0.0,0.0,0.0,0.0,0.0,0.0,0.0,0.0,0.0,0.0,0.0,0.0,0.0,0.0,0.0,0.0,0.0,0.0,0.0,0.0,0.0,0.0,0.0,0.0,0.0,0.0,0.0,0.0,0.0,0.0,0.0,0.0,0.0,0.0,0.0,3.9898,4.0932,4.1808,4.2544,4.3002,4.3042,4.2584,4.166,0.0,0.0,0.0,0.0,0.0,0.0,0.0,0.0,0.0,0.0,0.0,0.0,0.0,0.0,0.0,0.0,0.0,0.0,0.0,0.0,0.0,0.0,0.0,0.0,0.0,0.0,0.0,1.8675,0.0,0.0,0.0,0.0,0.0,0.0,0.0,0.0,0.0,0.0,0.0,0.0,0.0,0.0,1.2847,1.3485,1.3634,1.3715,0.0,0.0,1.2981,1.2638,1.1425,1.0211,0.0,0.0,0.0,0.0,0.0,0.0,0.0,0.0,0.0,0.0,0.0,0.0,0.0,0.0,0.0,0.0,0.0,0.0,0.0,0.0,0.0,0.0,0.0,0.0,0.0,0.0,0.0,0.0,0.0,0.0,0.0,0.0,0.0,0.0,0.0,0.0,0.0,0.0,0.0,0.0,0.0,0.0,0.0,0.0,0.0,0.0,0.0,0.0,0.0,0.0,0.0,0.0,0.0,0.0,0.0,3.8754,4.0028,4.0878,4.1283,4.1567,4.1567,4.1283,4.0407,3.9122,0.0,0.0,0.0,0.0,0.0,0.0,0.0,0.0,0.0,0.0,0.0,0.0,0.0,0.0,0.0,0.0,0.0,0.0,0.0,0.0,0.0,0.0,0.0,0.0,0.0,0.0,0.0,0.0,0.0,0.0,0.0,0.0,0.0,0.0,0.0,0.0,0.0,0.0,0.0,0.0,0.0,1.3044,1.337,1.3648,1.366,0.0,0.0,1.2631,1.1429,1.0641,0.9671,0.7893,0.0,0.0,0.0,0.0,0.0,0.0,0.0,0.0,0.0,0.0,0.0,0.0,0.0,0.0,0.0,0.0,0.0,0.0,0.0,0.0,0.0,0.0,0.0,0.0,0.0,0.0,0.0,0.0,0.0,0.0,0.0,0.0,0.0,0.0,0.0,0.0,0.0,0.0,0.0,0.0,0.0,0.0,0.0,0.0,0.0,0.0,0.0,0.0,0.0,0.0,0.0,0.0,0.0,3.7047,3.899,3.9968,4.0629,4.1048,4.155,4.1537,4.1122,3.9737,3.8308,0.0,0.0,0.0,0.0,0.0,0.0,0.0,0.0,0.0,0.0,0.0,0.0,0.0,0.0,0.0,0.0,0.0,0.0,0.0,0.0,0.0,0.0,0.0,0.0,0.0,0.0,0.0,0.0,1.6742,1.6212,1.4732,0.0,0.0,0.0,0.0,0.0,0.0,0.0,0.0,0.0,0.0,1.3234,1.3277,1.3337,0.0,0.0,1.2541,1.1811,1.121,0.9769,0.8289,0.7252,0.6236,0.0,0.0,0.0,0.0,0.0,0.0,0.0,0.0,0.0,0.0,0.0,0.0,0.0,0.0,0.0,0.0,0.0,0.0,0.0,0.0,0.0,0.0,0.0,0.0,0.0,0.0,0.0,0.0,0.0,0.0,0.0,0.0,0.0,0.0,0.0,0.0,0.0,0.0,0.0,0.0,0.0,0.0,0.0,0.0,0.0,0.0,0.0,0.0,0.0,0.0,0.0,0.0,3.6872,3.8956,3.9896,4.0403,4.0652,4.1009,4.084,4.0271,3.9004,3.7655,0.0,0.0,0.0,0.0,0.0,0.0,0.0,0.0,0.0,0.0,0.0,0.0,0.0,0.0,0.0,0.0,0.0,0.0,0.0,0.0,0.0,0.0,0.0,0.0,0.0,0.0,0.0,0.0,1.6077,1.536,1.3778,0.0,0.0,0.0,0.0,0.0,0.0,0.0,0.0,0.0,0.0,1.3164,1.3172,1.3165,1.3136,1.2562,1.1833,1.1078,1.0677,0.8673,0.7178,0.6508,0.0,0.0,0.0,0.0,0.0,0.0,0.0,0.0,0.0,0.0,0.0,0.0,0.0,0.0,0.0,0.0,0.0,0.0,0.0,0.0,0.0,0.0,0.0,0.0,0.0,0.0,0.0,0.0,0.0,0.0,0.0,0.0,0.0,0.0,0.0,0.0,0.0,0.0,0.0,0.0,0.0,0.0,0.0,0.0,0.0,0.0,0.0,0.0,0.0,0.0,0.0,0.0,0.0,3.7295,3.862,3.935,3.9832,3.9754,3.9831,3.9342,3.8467,3.8095,3.7044,3.545,0.0,0.0,0.0,0.0,0.0,0.0,0.0,0.0,0.0,0.0,0.0,0.0,0.0,0.0,0.0,0.0,0.0,0.0,0.0,0.0,0.0,0.0,0.0,0.0,0.0,0.0,1.5447,1.4553,1.3796,0.0,0.0,0.0,0.0,0.0,0.0,0.0,0.0,0.0,0.0,1.3211,1.3197,1.3346,1.3142,1.2568,1.1792,1.1167,1.0233,0.8886,0.751,0.6353,0.0,0.0,0.0,0.0,0.0,0.0,0.0,0.0,0.0,0.0,0.0,0.0,0.0,0.0,0.0,0.0,0.0,0.0,0.0,0.0,0.0,0.0,0.0,0.0,0.0,0.0,0.0,0.0,4.022,0.0,0.0,0.0,0.0,0.0,0.0,0.0,0.0,0.0,0.0,0.0,3.7734,3.7134,0.0,0.0,0.0,0.0,0.0,0.0,0.0,0.0,0.0,0.0,0.0,0.0,3.6673,3.8068,3.8689,3.8861,3.8936,3.8816,3.8443,3.7964,3.6704,3.5161,3.3525,0.0,0.0,0.0,0.0,0.0,0.0,0.0,0.0,0.0,0.0,0.0,0.0,0.0,0.0,0.0,0.0,0.0,0.0,0.0,0.0,0.0,0.0,0.0,0.0,0.0,1.5681,0.0,0.0,0.0,0.0,0.0,0.0,0.0,0.0,0.0,0.0,0.0,1.3193,1.3444,1.3594,1.3382,1.2991,1.283,1.2232,0.0,0.0,0.0,0.0,0.0,0.0,0.0,0.0,0.0,0.0,0.0,0.0,0.0,0.0,-0.0326,-0.1748,-0.1897,-0.2057,-0.27,0.0,0.0,0.0,0.0,0.0,0.0,0.0,0.0,0.0,0.0,0.0,0.0,0.0,0.0,0.0,0.0,4.0864,0.0,0.0,0.0,0.0,0.0,0.0,0.0,0.0,3.9845,3.909,3.8215,3.7725,3.6867,0.0,3.4932,3.4139,0.0,0.0,0.0,0.0,0.0,0.0,0.0,0.0,3.6111,3.7347,3.783,3.8142,3.8305,3.7876,3.7541,3.7293,3.5748,3.4266,3.287,3.2143,3.1272,0.0,0.0,0.0,0.0,0.0,0.0,0.0,0.0,0.0,0.0,0.0,0.0,0.0,0.0,0.0,0.0,0.0,0.0,0.0,0.0,0.0,0.0,0.0,1.49,0.0,0.0,0.0,0.0,0.0,0.0,0.0,0.0,0.0,1.2752,1.3097,1.3349,1.3495,1.3217,1.2927,1.2304,0.0,0.0,0.0,0.0,0.0,0.0,0.0,0.4757,0.5089,0.3834,0.2556,0.1801,0.1608,0.1245,0.0178,0.0,0.0,-0.2705,-0.3523,-0.4029,-0.3705,-0.5099,-0.6505,-0.7181,-0.8277,-0.9745,0.0,0.0,0.0,0.0,0.0,0.0,0.0,0.0,4.3057,4.2861,0.0,4.2125,0.0,0.0,0.0,0.0,0.0,0.0,0.0,0.0,4.0215,3.947,3.7988,3.7882,3.709,3.5987,3.5475,3.4949,3.4489,3.3111,0.0,0.0,0.0,0.0,0.0,0.0,3.5748,3.6515,3.6913,3.7296,3.7999,3.714,3.6596,3.6559,3.5203,3.4169,3.35,3.2617,3.1367,2.9835,2.8959,0.0,0.0,0.0,0.0,0.0,0.0,0.0,0.0,0.0,0.0,0.0,0.0,0.0,0.0,0.0,0.0,0.0,0.0,0.0,0.0,1.4788,0.0,0.0,0.0,0.0,0.0,0.0,0.0,0.0,0.0,0.0,1.3083,1.3219,1.3267,1.3401,0.0,0.0,0.0,0.0,0.9843,0.7687,0.8013,0.7806,0.619,0.5034,0.4636,0.5382,0.0,0.0,0.0371,-0.0,-0.0,-0.0,-0.1683,-0.3163,-0.3219,-0.4615,-0.5515,-0.4303,-0.5974,-0.7842,-0.8205,-0.9712,-1.1446,4.4233,0.0,0.0,0.0,0.0,4.403,4.4004,4.3747,4.3815,4.3611,4.3284,4.2818,0.0,0.0,0.0,0.0,0.0,0.0,4.0558,4.0646,4.0262,3.9461,3.8671,3.776,3.6639,3.5376,3.499,3.4302,3.3504,3.3093,3.2873,3.3002,0.0,0.0,0.0,0.0,3.5991,3.6264,3.6355,3.6448,3.6447,3.6284,3.5794,3.4985,3.4367,3.3735,3.3104,3.2212,3.1416,3.0874,2.9423,0.0,0.0,0.0,0.0,0.0,0.0,0.0,0.0,0.0,0.0,0.0,0.0,0.0,0.0,0.0,0.0,0.0,0.0,0.0,1.5123,1.447,1.3933,0.0,0.0,0.0,0.0,0.0,0.0,0.0,0.0,0.0,1.2535,1.3305,1.3475,0.0,0.0,1.1116,1.0179,0.9821,0.8892,0.6636,0.0,0.0,0.0,0.3772,0.3412,0.3628,0.2115,0.058,-0.0,-0.0,-0.0,-0.0,-0.1742,-0.3478,-0.4211,-0.4526,-0.4865,-0.5064,-0.6609,-0.8167,-0.9307,-1.0901,-1.2505,4.5194,4.5079,4.4591,4.4346,4.4184,4.4475,4.4539,4.4446,4.4503,4.4549,4.4231,4.3806,4.3384,4.2918,4.1887,0.0,0.0,0.0,4.0641,4.0311,4.0121,3.9576,3.8583,3.757,3.6455,3.5264,3.4751,3.4142,3.3746,3.3573,3.3517,3.3707,0.0,0.0,3.3533,3.4638,3.5264,3.5367,3.5668,3.5723,3.5727,3.5502,3.5013,3.4279,3.3726,3.3314,3.3016,3.2099,3.136,3.0822,2.9582,2.8551,0.0,0.0,0.0,0.0,0.0,0.0,0.0,0.0,0.0,0.0,0.0,1.6747,1.5869,0.0,0.0,0.0,1.516,1.4923,1.4801,1.4441,0.0,0.0,0.0,0.0,0.0,0.0,0.0,1.2134,1.2261,1.217,1.2008,1.2359,1.2427,1.1774,1.079,0.9772,0.8849,0.0,0.733,0.5592,0.4031,0.3252,0.3444,0.2499,0.174,0.175,0.0782,-0.0,-0.0,-0.0,-0.0,-0.1179,-0.197,-0.2963,-0.4346,-0.4708,-0.5058,-0.5604,-0.7163,-0.8931,-1.0289,-1.1696,-1.3109,4.623,4.606,4.4209,4.4037,4.4718,4.4443,4.455,4.4824,4.5227,4.5264,4.4957,4.4957,4.4494,4.3563,4.2289,0.0,0.0,4.1124,4.0502,3.945,3.9941,3.9324,3.7674,3.7158,3.6302,3.5494,3.4602,3.4418,3.4514,3.4157,3.3977,3.423,3.358,3.2981,3.2768,3.3792,3.425,3.4119,3.4727,3.5197,3.5547,3.4892,3.4291,3.3901,3.3351,3.3051,3.2985,3.2357,3.1389,3.0047,2.9388,2.8333,2.6961,0.0,0.0,0.0,0.0,0.0,0.0,0.0,0.0,0.0,0.0,0.0,0.0,0.0,0.0,0.0,1.4592,0.0,1.4401,1.4496,0.0,0.0,0.0,1.3881,1.3057,1.2811,1.2425,1.1861,0.0,0.0,1.1047,0.0,1.0509,1.0144,0.9044,0.7959,0.6863,0.6477,0.5695,0.432,0.3535,0.3142,0.314,0.1376,-0.0,-0.0,-0.0,-0.0,-0.0,-0.0,-0.0,-0.2759,-0.2379,-0.2393,-0.4186,-0.5411,-0.6024,-0.6508,-0.8257,-0.9824,-1.0997,-1.2374,-1.3745,4.5763,4.5721,4.4598,4.4782,4.5873,4.572,4.5651,4.5448,4.5532,4.5284,4.4972,4.4972,4.4502,4.3695,4.2744,4.1728,4.1029,4.1053,4.0785,3.9941,3.9502,3.8837,3.8112,3.6785,3.5937,3.5296,3.4577,3.4262,3.3975,3.3794,3.3838,3.3896,3.3588,3.3769,3.4067,3.4636,3.4879,3.4773,3.4572,3.4256,3.3801,3.3699,3.354,3.3351,3.28,3.2583,3.2716,3.1919,3.1022,3.0031,2.8872,2.7708,2.6704,2.4823,0.0,0.0,0.0,0.0,0.0,0.0,0.0,0.0,0.0,1.552,1.4828,0.0,1.5276,0.0,1.5025,1.5181,1.5147,1.5072,0.0,0.0,1.4303,1.3726,1.2711,1.2204,1.1609,1.0587,1.0303,1.0003,0.933,0.8791,0.8239,0.7479,0.7254,0.6866,0.5544,0.5127,0.4725,0.3566,0.3159,0.3152,0.2975,0.1398,-0.0,-0.0,-0.0,-0.0,-0.0,-0.0,-0.0,-0.281,-0.3618,-0.4429,-0.5633,-0.6852,-0.7858,-0.8625,-0.9616,-1.0609,-1.2201,-1.3387,-1.4378,4.5899,4.5899,4.554,4.5699,4.6195,4.5985,4.5869,4.5899,4.592,4.5761,4.5602,4.5103,4.4783,4.414,4.3203,4.2442,4.1928,4.1546,4.0905,4.0207,3.9563,3.8591,3.7369,3.6498,3.5537,3.4819,3.4275,3.3985,3.3949,3.3949,3.4022,3.4154,3.4168,3.4154,3.4139,3.4374,3.4404,3.4212,3.3987,3.3571,3.3163,3.2974,3.2786,3.2786,3.2285,3.2042,3.2257,3.1383,3.0531,2.9702,2.8749,2.75,2.6103,2.4353,2.2759,0.0,0.0,0.0,0.0,0.0,0.0,0.0,0.0,0.0,0.0,0.0,1.5217,0.0,1.5418,1.5513,1.5513,1.5247,1.4937,1.4778,1.4506,1.374,1.2682,1.1747,1.0868,0.9893,0.9367,0.8825,0.8085,0.7524,0.6961,0.6004,0.5782,0.5573,0.46,0.419,0.3786,0.3205,0.2395,0.1793,0.1803,0.0805,-0.0,-0.0,-0.0,-0.0,-0.0,-0.0808,-0.1616,-0.2424,-0.3636,-0.4847,-0.5853,-0.7264,-0.8467,-1.0074,-1.1082,-1.1884,-1.3084,-1.4083,-1.5081,4.6451,4.6513,4.6513,4.6513,4.6492,4.5896,4.5938,4.643,4.6492,4.6513,4.635,4.5534,4.5227,4.5082,4.3774,4.3084,4.2763,4.1933,4.0859,3.9947,3.9436,3.823,3.667,3.613,3.5242,3.4576,3.4044,3.4007,3.4271,3.4285,3.4432,3.4695,3.471,3.4508,3.3901,3.3486,3.3358,3.3358,3.3225,3.2974,3.2974,3.2611,3.2219,3.2219,3.1558,3.1236,3.1637,3.1141,3.0294,2.9311,2.8594,2.7277,2.515,2.3817,2.2252,0.0,1.8918,0.0,0.0,0.0,0.0,0.0,0.0,0.0,0.0,1.5334,1.5384,1.5676,1.5696,1.5689,1.5475,1.5081,1.488,1.4667,1.4473,1.3897,1.2542,1.0978,0.9811,0.9244,0.8328,0.7576,0.6979,0.6626,0.5851,0.5244,0.4638,0.4235,0.4038,0.3633,0.323,0.3234,0.1414,-0.0,-0.0,-0.0,-0.0,-0.0,-0.0,-0.0,-0.0,-0.202,-0.283,-0.2424,-0.3636,-0.5047,-0.5853,-0.7261,-0.907,-1.1073,-1.2279,-1.3284,-1.3878,-1.4676,-1.5479,4.7113,4.7424,4.7196,4.7217,4.7424,4.7589,4.7381,4.6927,4.7279,4.7424,4.7424,4.6467,4.5944,4.5421,4.4145,4.2986,4.2315,4.1347,4.0491,3.9436,3.8197,3.7468,3.7019,3.5761,3.5179,3.5219,3.4691,3.4549,3.4607,3.4607,3.4636,3.471,3.4739,3.4349,3.3916,0.0,0.0,0.0,3.2583,3.2421,3.2043,3.1853,3.1853,3.184,3.1383,0.0,3.0996,3.0942,3.0096,2.8711,2.784,0.0,0.0,0.0,0.0,0.0,0.0,0.0,0.0,0.0,0.0,0.0,1.5264,1.5156,1.4977,1.5432,1.5798,1.5981,1.5995,1.5756,1.5244,1.5035,1.4794,1.4285,1.4097,1.3556,1.2066,0.99,0.8544,0.8417,0.7433,0.664,0.6037,0.5244,0.4643,0.4442,0.3838,0.3436,0.3436,0.3234,0.3234,0.3032,0.1212,-0.0,-0.0,-0.0,-0.0,-0.0,-0.0,-0.0,-0.2222,-0.2828,-0.3436,-0.3636,-0.5049,-0.6461,-0.7465,-0.8869,-1.048,-1.2284,-1.3484,-1.4277,-1.4875,-1.5081,-1.5479,4.7486,0.0,4.7693,4.7693,0.0,4.838,4.8338,4.7693,4.7672,4.7526,4.7359,4.673,4.6036,4.5359,4.4167,4.3069,4.2039,4.1178,4.0001,3.8924,3.7841,3.7028,3.6267,3.5544,3.5078,3.5054,3.4897,3.471,3.471,3.4508,3.4305,3.4305,3.4175,3.3785,3.3163,3.2421,3.2246,3.2043,3.2043,3.1853,3.1677,3.1677,3.1677,3.1664,0.0,0.0,0.0,0.0,0.0,0.0,0.0,0.0,0.0,0.0,0.0,1.8682,1.7763,1.6895,1.608,1.5589,1.532,1.5276,1.5616,1.5486,1.5411,1.575,1.5995,1.6069,1.5877,1.5652,1.5183,1.4781,1.4162,1.3499,1.3105,1.2342,1.0993,0.9001,0.7818,0.7657,0.6861,0.5853,0.5654,0.4847,0.4242,0.3838,0.3436,0.2828,0.1818,0.1616,0.1616,0.1616,0.0808,-0.0,-0.0,-0.0,-0.0,-0.0,-0.0,-0.0,-0.2828,-0.3638,-0.404,-0.4444,-0.545,-0.6861,-0.7864,-0.9673,-1.1478,-1.2879,-1.4083,-1.5081,-1.5479,-1.5678,-1.5678,4.7858,4.7941,4.8191,4.8171,4.7962,4.8796,4.8942,4.8459,0.0,0.0,0.0,4.6784,4.5936,4.4931,4.3853,4.2773,4.1746,4.0791,3.9474,3.8191,3.7655,3.6545,3.5413,3.5226,3.5054,3.471,3.471,3.4695,3.4508,3.4103,3.3916,3.3728,3.3596,3.3219,3.2232,3.1853,3.1677,3.1677,3.1677,3.1677,3.1677,3.1677,3.1677,3.1677,3.1383,3.1062,3.0914,3.0225,2.9115,2.7414,2.653,2.5256,2.3164,2.1587,2.007,1.7998,1.7388,1.6601,1.5635,1.5635,1.5455,1.5274,1.5811,1.6083,1.5859,1.5995,1.6083,1.5884,1.5479,1.528,1.5081,1.4083,1.329,1.289,1.1884,1.0877,0.9878,0.8263,0.7254,0.7062,0.6256,0.5452,0.5251,0.4242,0.3636,0.3234,0.2828,0.202,-0.0,-0.0,-0.0,-0.0,-0.0,-0.0,-0.0,-0.0,-0.0,-0.0,-0.0,-0.1212,-0.2626,-0.384,-0.4645,-0.4643,-0.5851,-0.7261,-0.8471,-1.0292,-1.2099,-1.3507,-1.4738,-1.5557,-1.5957,-1.6164,-1.6151,4.85,4.8873,4.8893,4.8873,4.8873,4.8955,4.8976,4.8976,4.8893,4.8702,4.8188,4.7327,4.6113,4.4869,4.3512,4.212,4.0696,3.9275,3.8391,0.0,3.6359,3.56,3.5413,3.5069,3.4695,3.471,3.471,3.4508,3.4103,3.3916,3.3728,3.3365,3.3233,3.2855,3.1853,3.1664,3.1677,3.1677,3.1677,3.1677,3.1677,3.1677,3.1677,3.165,3.1383,3.1263,3.1544,3.0251,2.8322,2.6012,2.498,2.3779,2.2221,2.0324,1.8769,1.7569,1.6867,1.6215,1.5642,1.5635,1.5689,1.5818,1.5961,1.5995,1.5872,1.5995,1.5884,1.5479,1.528,1.4881,1.4083,1.329,1.269,1.2089,1.0881,0.9882,0.9681,0.7864,0.6657,0.6657,0.5652,0.4847,0.4444,0.3232,0.2424,0.2626,0.1818,-0.0,-0.0,-0.0,-0.0,-0.0,-0.0,-0.0,-0.0,-0.0,-0.0,-0.0,-0.0,-0.2427,-0.2225,-0.3441,-0.4857,-0.5455,-0.6872,-0.828,-0.9895,-1.1556,-1.302,-1.4256,-1.5139,-1.5825,-1.6429,-1.6429,-1.6368,4.8873,4.9059,4.9059,4.9059,4.9059,4.9059,4.9059,4.9059,4.8887,4.8372,4.7874,4.6987,4.5763,4.451,4.2891,4.1454,4.0021,3.8759,3.7655,3.6915,3.5786,3.5226,3.5069,3.4695,3.471,3.471,3.432,3.4118,3.3916,3.3351,3.2974,3.28,3.2449,3.207,3.1677,3.1677,3.1677,3.1677,3.1677,3.1677,3.1677,3.1677,3.1677,3.1677,3.1341,3.1328,3.1623,2.9873,2.7605,2.4843,2.4256,2.3401,2.1856,2.0098,1.8725,1.7553,1.7093,1.6461,1.5879,1.5879,1.5906,1.5974,1.6042,1.5857,1.5585,1.5638,1.5479,1.528,1.4881,1.4089,1.329,1.289,1.2089,1.0881,1.0083,0.9279,0.8471,0.7261,0.6455,0.6052,0.5248,0.4645,0.4645,0.3434,0.202,0.1616,-0.0,-0.0,-0.0,-0.0,-0.0,-0.0,-0.0,-0.0,-0.0,-0.0,-0.0,-0.1414,-0.2639,-0.3255,-0.3055,-0.4492,-0.5735,-0.6553,-0.7984,-0.9616,-1.1246,-1.2711,-1.3967,-1.5004,-1.5654,-1.6115,-1.6524,-1.6517,-1.6469,4.9059,4.9059,4.9059,4.9059,4.9059,4.9059,4.9059,4.8887,4.8372,4.7854,4.7354,4.6483,4.5236,4.38,4.2353,4.0912,3.9458,3.8023,3.6915,3.5987,3.5413,3.5069,3.471,3.471,3.4695,3.4508,3.4118,3.3728,3.354,3.2786,3.2408,3.2232,3.1853,3.1677,3.1677,3.1677,3.1677,3.1677,3.1677,3.1677,3.1677,3.1677,3.1677,3.1664,3.1093,3.1146,3.1212,2.94,2.6999,2.4197,2.3706,2.2779,2.1415,1.9832,1.8449,1.7665,1.707,1.6474,1.6083,1.6083,1.6083,1.6083,1.5884,1.5678,1.528,1.5081,1.4881,1.4881,1.4083,1.329,1.269,1.1884,1.1087,0.9882,0.9275,0.8471,0.7264,0.6659,0.6052,0.545,0.4643,0.4444,0.4242,0.3638,0.2427,-0.0,-0.0,-0.0,-0.0,-0.0,-0.0,-0.0,-0.0,-0.0,-0.0,-0.0,-0.1424,-0.3051,-0.3478,-0.3901,-0.4524,-0.5785,-0.7046,-0.7864,-0.9312,-1.0956,-1.241,-1.3677,-1.4723,-1.5558,-1.6207,-1.6646,-1.6653,-1.6653,-1.6592,4.9059,4.9059,4.9059,4.9059,4.9059,4.9059,4.8887,4.8372,4.8047,4.7181,4.6483,4.5958,4.4529,4.273,4.1291,4.0021,3.8559,3.71,3.5987,3.5413,3.5069,3.4695,3.471,3.471,3.4493,3.4103,3.3916,3.3351,3.2597,3.2408,3.2232,3.1853,3.1677,3.1677,3.1677,3.1677,3.1677,3.1677,3.1677,3.1677,3.1677,3.1677,3.1677,3.1677,3.1107,3.0713,3.0344,2.88,2.6636,2.4248,2.3131,2.1799,2.0235,1.8655,1.7665,1.707,1.6474,1.6083,1.6083,1.6083,1.6083,1.6083,1.5479,1.5273,1.528,1.4482,1.3889,1.369,1.329,1.2684,1.2084,1.0881,0.9882,0.9476,0.8471,0.7264,0.6657,0.6052,0.545,0.4444,0.4445,0.404,0.3641,0.3037,0.2233,-0.0,-0.0,-0.0,-0.0,-0.0,-0.0,-0.0,-0.0,-0.0,-0.0413,-0.1864,-0.2894,-0.331,-0.3937,-0.4562,-0.56,-0.6635,-0.788,-0.9373,-1.079,-1.2245,-1.3498,-1.4559,-1.5691,-1.5912,-1.6392,-1.6917,-1.6931,-1.691,-1.6822,4.9059,4.9059,4.9059,4.9059,4.9059,4.8887,4.8544,4.8372,4.7334,4.6483,4.5783,4.4883,4.3623,4.2174,4.0731,3.9291,3.8023,3.673,3.5987,3.5413,3.4882,3.471,3.471,3.432,3.4118,3.3916,3.3351,3.2786,3.2421,3.2043,3.1853,3.1677,3.1677,3.1677,3.1677,3.1677,3.1677,3.1677,3.1677,3.1677,3.1677,3.1677,3.1474,3.1284,3.0713,3.0357,2.9821,2.8043,2.5669,2.3277,2.2359,2.121,1.9635,1.8457,1.7466,1.6871,1.6481,1.6083,1.6083,1.6083,1.6083,1.6083,1.5479,1.4875,1.4875,1.3884,1.309,1.269,1.2484,1.2089,1.0886,1.0079,0.9275,0.8065,0.7261,0.6455,0.5652,0.5047,0.4643,0.4244,0.3857,0.3667,0.3058,0.2048,0.1028,-0.0,-0.0,-0.0,-0.0,-0.0,-0.0,-0.1672,-0.2085,-0.2079,-0.208,-0.2701,-0.3533,-0.395,-0.4796,-0.5439,-0.6692,-0.777,-0.9259,-1.0931,-1.239,-1.3642,-1.4928,-1.5363,-1.6047,-1.6478,-1.6694,-1.6978,-1.6978,-1.6978,-1.6904,4.9059,4.9059,4.9059,4.9059,4.8887,4.8544,4.8199,4.7681,4.6638,4.5958,4.5078,4.3819,4.273,4.1454,4.0186,3.8742,3.747,3.6359,3.5801,3.5241,3.4882,3.4695,3.4493,3.4118,3.3728,3.3351,3.2786,3.2421,3.2232,3.1853,3.1677,3.1677,3.1677,3.1677,3.1677,3.1677,3.1677,3.1677,3.1677,3.1704,3.158,3.1593,3.1363,3.0929,3.0217,2.9909,2.9997,2.765,2.5072,2.2247,2.173,2.0777,1.9187,1.8198,1.7385,1.6736,1.6302,1.6083,1.6083,1.6083,1.6083,1.5877,1.5273,1.4676,1.4077,1.3284,1.2289,1.1483,1.1483,1.0881,0.9882,0.9074,0.8069,0.6657,0.6455,0.5858,0.4864,0.446,0.4263,0.4071,0.3483,0.288,0.2264,-0.0,-0.0,-0.0,-0.0,-0.0,-0.0,-0.0,-0.1678,-0.3165,-0.3378,-0.3159,-0.3143,-0.3354,-0.3976,-0.4397,-0.5262,-0.6331,-0.7802,-0.8904,-1.0416,-1.2055,-1.3369,-1.444,-1.5444,-1.6105,-1.6341,-1.6768,-1.6978,-1.6978,-1.6978,-1.6978,-1.6978,4.9059,4.9059,4.9059,4.8887,4.8372,4.8372,4.7681,4.6483,4.6308,4.5607,4.4193,4.3106,4.2012,4.0583,3.9474,3.8391,3.6915,3.5972,3.5241,3.4695,3.471,3.4508,3.3916,3.3916,3.3351,3.2597,3.2421,3.2232,3.1867,3.1664,3.1677,3.1677,3.1677,3.1677,3.1677,3.1677,3.1677,3.1704,3.1704,3.162,3.1281,3.132,3.119,3.0816,2.9636,2.942,2.9689,2.7486,2.4727,2.1604,2.1291,2.0545,1.8924,1.7916,1.7038,1.6508,1.6171,1.609,1.6096,1.611,1.5904,1.5492,1.4913,1.4089,1.3117,1.2521,1.1517,1.0091,0.9903,0.9702,0.9295,0.7884,0.6869,0.6469,0.5861,0.5075,0.4295,0.4299,0.4317,0.3515,0.3111,0.2285,0.0415,-0.0,-0.0,-0.0,-0.0,-0.0,-0.0,-0.1913,-0.2977,-0.3191,-0.3407,-0.2981,-0.2341,-0.3182,-0.4248,-0.5095,-0.6145,-0.7228,-0.8717,-1.0208,-1.1901,-1.3385,-1.4657,-1.55,-1.6131,-1.6341,-1.6768,-1.6978,-1.6978,-1.6978,-1.6978,-1.6978,-1.6978,4.9059,4.9059,4.8716,4.8523,4.8372,4.7681,4.6987,4.6308,4.5607,4.4725,4.3641,4.2371,4.111,4.0021,3.8375,3.727,3.6359,3.5786,3.5054,3.4695,3.4305,3.4118,3.3916,3.3351,3.2786,3.2408,3.2043,3.1853,3.1677,3.1677,3.1677,3.1677,3.1677,3.1677,3.1677,3.1677,3.1567,3.1548,3.1369,3.132,3.0997,3.0436,2.9995,2.9908,2.9604,2.8694,2.773,2.5997,2.3987,2.13,2.0562,1.9776,1.8556,1.7341,1.6707,1.6449,1.6395,1.6361,1.6361,1.5962,1.576,1.5557,1.4333,1.3508,1.2904,1.1681,1.0457,0.9844,0.8826,0.8212,0.7588,0.6945,0.6325,0.595,0.5136,0.4113,0.3096,0.3306,0.352,0.3117,0.2087,0.084,-0.0,-0.0,-0.0,-0.0,-0.0,-0.0,-0.1916,-0.2985,-0.3411,-0.3411,-0.3411,-0.3411,-0.341,-0.3837,-0.4691,-0.5967,-0.724,-0.872,-1.0204,-1.169,-1.3174,-1.444,-1.592,-1.6137,-1.6558,-1.6768,-1.6978,-1.6978,-1.6978,-1.6978,-1.6978,-1.6978,-1.6978,4.9059,4.8887,4.8544,4.8199,4.7854,4.7354,4.6483,4.5783,4.5059,4.4174,4.3087,4.1652,4.0566,3.964,3.7823,3.673,3.6173,3.5428,3.4867,3.4508,3.4103,3.3728,3.3351,3.2786,3.2421,3.2232,3.1853,3.1677,3.1677,3.1677,3.1677,3.1677,3.1677,3.173,3.2001,3.162,3.1574,3.1412,3.1283,3.1022,3.049,2.9922,2.9176,2.8638,2.8661,2.8015,2.6358,2.5002,2.319,2.1121,2.0135,1.9135,1.7902,1.703,1.6592,1.6592,1.6544,1.6524,1.6319,1.5917,1.5507,1.4886,1.3854,1.3032,1.2209,1.0763,0.9736,0.891,0.788,0.685,0.6446,0.6009,0.5584,0.498,0.4151,0.3117,0.2292,0.2085,0.2089,0.1887,0.1053,-0.0,-0.0,-0.0,-0.0,-0.0,-0.0639,-0.1918,-0.2985,-0.3411,-0.3625,-0.3625,-0.3837,-0.4263,-0.4687,-0.5328,-0.5543,-0.6605,-0.8302,-0.9996,-1.1478,-1.2963,-1.4235,-1.55,-1.6348,-1.6558,-1.6768,-1.6978,-1.6978,-1.6978,-1.6978,-1.6978,-1.6978,-1.6978,-1.6978,4.8887,4.8372,4.8372,4.7854,4.7181,4.7007,4.6133,4.5059,4.451,4.3623,4.2568,4.1308,4.0203,3.9275,3.7454,3.6545,3.5987,3.5069,3.4493,3.3916,3.3916,3.3351,3.2597,3.2421,3.2043,3.1853,3.1664,3.1677,3.1677,3.1677,3.1677,3.169,3.1717,3.1864,3.2543,3.1746,3.1477,3.1503,3.098,3.0527,2.9955,2.9591,2.8693,2.725,2.6875,2.6563,2.6179,2.4519,2.2518,2.0629,1.9839,1.8634,1.7343,1.6822,1.6748,1.6727,1.6619,1.6346,1.5738,1.575,1.4935,1.3699,1.3259,1.2038,1.06,0.9971,0.9143,0.7909,0.7075,0.6462,0.5881,0.5046,0.4612,0.4371,0.3124,0.2506,0.231,0.1263,-0.0,-0.0,-0.0,-0.0,-0.0,-0.0,-0.0,-0.0,-0.1918,-0.2985,-0.3411,-0.3411,-0.3839,-0.4265,-0.4476,-0.49,-0.5967,-0.6818,-0.6818,-0.7243,-0.9151,-1.0848,-1.2324,-1.3591,-1.4862,-1.6131,-1.6558,-1.6775,-1.6768,-1.6978,-1.6978,-1.6978,-1.6978,-1.6978,-1.6978,-1.6978,-1.6978,4.8372,4.7874,4.7508,4.7354,4.7007,4.6658,4.5958,4.4902,4.4352,4.3266,4.1832,4.0549,3.9474,3.8208,3.6529,3.56,3.504,3.4334,3.3959,3.3728,3.3163,3.2786,3.2421,3.2043,3.1853,3.1664,3.1677,3.1677,3.1677,3.1677,3.1744,3.1713,3.1574,3.1333,3.1374,3.123,3.0992,3.0838,3.0479,3.0003,2.9439,2.8438,2.7465,2.6907,2.5481,2.4628,2.4363,2.3597,2.2175,2.0288,1.9469,1.8222,1.7174,1.6937,1.691,1.6904,1.687,1.6627,1.5995,1.5155,1.4522,1.3278,1.2016,1.0971,1.013,0.9071,0.8019,0.6971,0.6552,0.5931,0.5093,0.4672,0.4451,0.4867,0.3595,0.2114,-0.0,-0.0,-0.0,-0.0,-0.0,-0.0,-0.0,-0.0,-0.0,-0.1918,-0.2985,-0.3411,-0.3411,-0.3839,-0.4052,-0.4263,-0.49,-0.5751,-0.7027,-0.809,-0.8727,-0.9148,-1.0636,-1.1906,-1.3169,-1.4224,-1.5493,-1.6341,-1.6768,-1.6978,-1.6978,-1.6978,-1.6978,-1.6978,-1.6978,-1.6978,-1.6978,-1.6978,-1.6978,4.7854,4.7354,4.7181,4.6832,4.6658,4.6289,4.5588,4.4883,4.3978,4.273,4.1273,3.9822,3.8559,3.7285,3.5786,3.4853,3.4305,3.3582,3.3394,3.3351,3.28,3.2421,3.2232,3.1853,3.1677,3.1677,3.1677,3.1677,3.1677,3.1784,3.1713,3.1474,3.1425,3.1425,3.1056,3.0922,3.069,3.0726,2.9948,2.9427,2.8733,2.7531,2.6713,2.5902,2.4461,2.3428,2.2806,2.2184,2.1353,2.0103,1.8641,1.7601,1.6978,1.6978,1.6978,1.6978,1.6768,1.6341,1.5493,1.4639,1.3597,1.2334,1.1064,0.9788,0.9364,0.809,0.7243,0.6608,0.5754,0.5119,0.4691,0.4265,0.4265,0.4478,0.3835,0.2345,-0.0,-0.0,-0.0,-0.0,-0.0,-0.0,-0.0,-0.1066,-0.1705,-0.3198,-0.3411,-0.3625,-0.3839,-0.4263,-0.4476,-0.49,-0.5751,-0.6815,-0.809,-0.9151,-1.042,-1.1267,-1.2118,-1.3174,-1.4229,-1.5072,-1.6131,-1.6558,-1.6978,-1.6978,-1.6978,-1.6978,-1.6978,-1.6978,-1.6978,-1.6978,-1.6978,-1.6978,-1.6978,4.7354,4.7007,4.7007,4.6658,4.6308,4.5783,4.5255,4.4725,4.3444,4.2192,4.0929,3.9291,3.7823,3.6715,3.5226,3.4291,3.3728,3.3002,3.2624,3.2435,3.2435,3.2246,3.1867,3.1677,3.1677,3.1677,3.1704,3.1717,3.1757,3.1998,3.1746,3.1451,3.149,3.1527,3.115,3.0827,3.0551,3.0533,2.9772,2.8756,2.7747,2.7133,2.6108,2.4677,2.3841,2.2806,2.1353,2.0529,1.9895,1.9268,1.7811,1.7188,1.6978,1.6978,1.6978,1.6978,1.6341,1.5493,1.4651,1.3808,1.254,1.0852,1.0216,0.9367,0.7878,0.7243,0.6605,0.5969,0.5117,0.448,0.4265,0.3839,0.3411,0.3198,0.2772,0.1918,-0.0,-0.0,-0.0,-0.0,-0.0,-0.0,-0.0,-0.0,-0.2985,-0.3411,-0.3411,-0.3625,-0.4263,-0.4689,-0.5326,-0.5964,-0.6815,-0.809,-0.9364,-1.0636,-1.1901,-1.2958,-1.3597,-1.444,-1.5072,-1.571,-1.6348,-1.6768,-1.6978,-1.6978,-1.6978,-1.6978,-1.6978,-1.6978,-1.6978,-1.6978,-1.6978,-1.6978,-1.6978,4.6832,4.6483,4.6483,4.6483,4.6308,4.5783,4.5059,4.4333,4.3266,4.1634,4.0186,3.8926,3.7454,3.5786,3.4666,3.3728,3.28,3.2232,3.1867,3.1867,3.1853,3.1867,3.1677,3.1677,3.1677,3.1704,3.1864,3.1984,3.2011,3.1891,3.1725,3.1539,3.1221,3.0814,3.0411,3.0271,3.0129,2.9784,2.9197,2.8167,2.7133,2.6108,2.5079,2.3841,2.3014,2.1769,2.0529,1.9067,1.8439,1.823,1.7391,1.6978,1.6978,1.6978,1.6775,1.6348,1.6131,1.5289,1.4024,1.2963,1.1694,1.0216,0.9155,0.809,0.7243,0.6605,0.5756,0.5117,0.448,0.4265,0.3839,0.3411,0.2772,0.1279,-0.0,-0.0,-0.0,-0.0,-0.0,-0.0,-0.0,-0.0,-0.1918,-0.2772,-0.3411,-0.3411,-0.3411,-0.3837,-0.4476,-0.5113,-0.5751,-0.7027,-0.809,-0.9364,-1.0848,-1.2118,-1.3385,-1.444,-1.5072,-1.5493,-1.592,-1.6348,-1.6768,-1.6985,-1.6978,-1.6978,-1.6978,-1.6978,-1.6978,-1.6978,-1.6978,-1.6978,-1.6978,-1.6978,-1.6978,4.6483,4.6308,4.6308,4.6133,4.5958,4.5607,4.4706,4.38,4.2551,4.111,3.9474,3.8191,3.6715,3.4853,3.3916,3.2974,3.2232,3.1853,3.1677,3.1677,3.1677,3.1677,3.1677,3.1677,3.173,3.1864,3.1832,3.1772,3.193,3.1607,3.1432,3.1163,3.0914,3.0649,3.0141,2.9987,2.9796,2.9186,2.8371,2.7338,2.6508,2.5285,2.4254,2.3221,2.1977,2.0729,1.9276,1.802,1.7398,1.7391,1.7188,1.6978,1.6978,1.6978,1.6768,1.6131,1.571,1.4657,1.3391,1.1906,1.0632,0.9364,0.7878,0.703,0.6179,0.5543,0.5117,0.4693,0.4265,0.3839,0.3411,0.2558,0.1492,-0.0,-0.0,-0.0,-0.0,-0.0,-0.0,-0.1066,-0.1492,-0.1492,-0.2772,-0.2985,-0.3624,-0.3839,-0.3837,-0.4476,-0.5326,-0.5751,-0.6602,-0.7878,-0.9151,-1.0424,-1.1906,-1.3174,-1.4229,-1.5283,-1.592,-1.6341,-1.6551,-1.6768,-1.6768,-1.6978,-1.6978,-1.6978,-1.6978,-1.6978,-1.6978,-1.6978,-1.6978,-1.6978,-1.6978,-1.6978,-1.6978,4.6308,4.6308,4.6308,4.5958,4.5607,4.5078,4.4352,4.3266,4.1832,4.0385,3.8926,3.7454,3.5786,3.3916,3.3351,3.2611,3.1664,3.1664,3.1677,3.1677,3.1677,3.1677,3.1677,3.1757,3.1864,3.1872,3.1553,3.1594,3.1633,3.1509,3.1039,3.0927,3.09,3.0582,2.9999,2.9593,2.9389,2.8767,2.7747,2.6518,2.5687,2.4461,2.3428,2.2184,2.0729,1.9485,1.823,1.7398,1.6978,1.6978,1.6978,1.6978,1.6978,1.6978,1.6348,1.571,1.4862,1.3808,1.254,1.0848,0.9364,0.7878,0.703,0.6179,0.5328,0.4904,0.4691,0.4265,0.3839,0.3411,0.2558,0.1066,-0.0,-0.0,-0.0,-0.0,-0.0426,-0.0426,-0.1066,-0.2772,-0.3198,-0.2772,-0.2558,-0.2772,-0.3839,-0.405,-0.4476,-0.5113,-0.5964,-0.6387,-0.7662,-0.9367,-1.0428,-1.1487,-1.2752,-1.4229,-1.5078,-1.592,-1.6341,-1.6768,-1.6768,-1.6978,-1.6978,-1.6978,-1.6978,-1.6978,-1.6978,-1.6978,-1.6978,-1.6978,-1.6978,-1.6978,-1.6978,-1.6978,-1.6978,4.6308,4.6308,4.6308,4.5958,4.5431,4.4687,4.38,4.273,4.1308,3.9839,3.8375,3.6915,3.5413,3.3916,3.2974,3.2219,3.1664,3.1677,3.1677,3.1677,3.1677,3.1677,3.173,3.1891,3.1845,3.1631,3.1816,3.1827,3.1573,3.1152,3.1126,3.0937,3.0343,3.0202,2.9593,2.9389,2.8563,2.7747,2.6918,2.5892,2.4451,2.3635,2.2599,2.0945,1.9276,1.8439,1.7811,1.7188,1.6978,1.6978,1.6978,1.6768,1.6348,1.6341,1.571,1.4657,1.4024,1.2968,1.1059,0.9576,0.8302,0.7243,0.6392,0.5543,0.4904,0.4693,0.4478,0.3839,0.3411,0.2558,0.1066,0.0426,-0.0,-0.0,-0.1492,-0.2345,-0.2558,-0.2558,-0.2558,-0.2345,-0.2985,-0.3411,-0.2985,-0.3625,-0.4265,-0.4476,-0.5113,-0.5964,-0.66,-0.7234,-0.872,-1.0424,-1.1916,-1.2973,-1.3808,-1.5072,-1.571,-1.6341,-1.6768,-1.6978,-1.6978,-1.6978,-1.6978,-1.6978,-1.6978,-1.6978,-1.6978,-1.6978,-1.6978,-1.6978,-1.6978,-1.6978,-1.6978,-1.6978,-1.7188,4.6133,4.5958,4.5939,4.5412,4.4529,4.3978,4.3087,4.1652,4.0402,3.9109,3.7639,3.6158,3.4853,3.354,3.28,3.2232,3.1853,3.1677,3.1677,3.1677,3.1677,3.1553,3.1548,3.1759,3.1736,3.1412,3.1381,3.1238,3.1215,3.0925,3.0607,3.0619,2.9999,2.9796,2.9186,2.8767,2.7747,2.6928,2.5892,2.4657,2.3635,2.2392,2.1145,1.9485,1.823,1.7811,1.7398,1.7188,1.6768,1.6558,1.6558,1.6348,1.592,1.5493,1.4657,1.3813,1.2752,1.1694,0.9996,0.8515,0.724,0.6392,0.5543,0.4478,0.3839,0.3839,0.4052,0.3411,0.2345,0.1279,-0.0,-0.1279,-0.1492,-0.1705,-0.2131,-0.2772,-0.3198,-0.3411,-0.3198,-0.2772,-0.3411,-0.3837,-0.405,-0.4691,-0.533,-0.5754,-0.639,-0.724,-0.8087,-0.8724,-0.978,-1.1483,-1.319,-1.4458,-1.5078,-1.592,-1.6348,-1.6768,-1.6978,-1.6978,-1.6978,-1.6978,-1.6978,-1.6978,-1.6978,-1.6978,-1.6978,-1.6978,-1.6978,-1.6978,-1.6978,-1.6978,-1.7188,-1.7188,-1.7398,4.5939,4.5412,4.5412,4.4529,4.3444,4.3266,4.2192,4.0583,3.9308,3.8007,3.6529,3.5226,3.4103,3.3163,3.2611,3.2043,3.1867,3.1677,3.1677,3.1677,3.1487,3.1442,3.1294,3.1361,3.1385,3.1449,3.1163,3.0801,3.0748,3.0404,3.0011,3.0011,2.9593,2.8982,2.8575,2.7747,2.6713,2.5902,2.4657,2.3428,2.2806,2.1353,1.9686,1.823,1.7811,1.7398,1.7188,1.6978,1.6558,1.6131,1.592,1.571,1.5283,1.4862,1.3808,1.318,1.169,1.0208,0.8936,0.7453,0.6392,0.5543,0.4691,0.3625,0.2772,0.2558,0.2558,0.1918,0.0853,-0.0639,-0.0639,-0.1705,-0.2772,-0.2985,-0.2345,-0.2558,-0.3198,-0.3624,-0.3624,-0.3624,-0.3837,-0.4263,-0.4902,-0.5541,-0.6177,-0.7027,-0.7665,-0.8515,-0.9364,-1.0208,-1.1055,-1.254,-1.4246,-1.5307,-1.5927,-1.6131,-1.6768,-1.6978,-1.6978,-1.6978,-1.6978,-1.6978,-1.6978,-1.6978,-1.6978,-1.6978,-1.6978,-1.6978,-1.6978,-1.6978,-1.6978,-1.6978,-1.7188,-1.7601,-1.7811,4.5236,4.451,4.451,4.38,4.273,4.2012,4.0912,3.9822,3.8391,3.71,3.56,3.4478,3.354,3.2597,3.2043,3.1664,3.1677,3.1677,3.1664,3.1474,3.1297,3.106,3.1153,3.0853,3.07,3.0765,3.0788,3.0558,3.0189,2.9796,2.9593,2.9389,2.8982,2.8371,2.7542,2.6928,2.5687,2.4657,2.3635,2.2599,2.1353,2.032,1.9276,1.7811,1.7398,1.7188,1.6978,1.6558,1.6131,1.592,1.4657,1.3808,1.338,1.3385,1.254,1.1271,0.9996,0.8936,0.7453,0.6392,0.5543,0.4691,0.4052,0.3625,0.2772,0.1492,0.0639,-0.0,-0.1066,-0.2558,-0.2772,-0.2558,-0.2558,-0.2985,-0.3198,-0.3411,-0.4052,-0.4263,-0.4261,-0.4474,-0.4689,-0.4902,-0.5751,-0.6602,-0.7453,-0.8302,-0.9151,-0.9788,-1.0636,-1.1271,-1.2113,-1.3602,-1.5307,-1.615,-1.6775,-1.6768,-1.6978,-1.6978,-1.6978,-1.6978,-1.6978,-1.6978,-1.6978,-1.6978,-1.6978,-1.6978,-1.6978,-1.6978,-1.6978,-1.6978,-1.6978,-1.7188,-1.7391,-1.7811,-1.8439,4.4529,4.3819,4.3911,4.2999,4.1669,4.0782,3.969,3.8559,3.71,3.5987,3.4853,3.3728,3.2974,3.2421,3.1853,3.1677,3.1677,3.1677,3.1474,3.1284,3.112,3.0677,3.0573,3.0265,3.0144,3.0215,3.0258,3.0202,2.9796,2.9593,2.8982,2.8359,2.7962,2.7338,2.6313,2.5491,2.4667,2.3428,2.2392,2.1353,2.032,1.9485,1.8439,1.7608,1.7188,1.6985,1.6985,1.6348,1.571,1.4868,1.3808,1.254,1.1694,1.1055,1.042,0.9364,0.8515,0.7665,0.6392,0.5543,0.4691,0.4052,0.3624,0.2772,0.1492,-0.0213,-0.1492,-0.1918,-0.1705,-0.2772,-0.3198,-0.2772,-0.3198,-0.3625,-0.3624,-0.405,-0.4902,-0.5328,-0.5751,-0.5964,-0.5964,-0.6392,-0.6815,-0.7665,-0.8727,-0.9576,-1.0424,-1.1064,-1.1911,-1.2334,-1.2963,-1.4446,-1.594,-1.6354,-1.6985,-1.6978,-1.6978,-1.6978,-1.6978,-1.6978,-1.6978,-1.6978,-1.6978,-1.6978,-1.6978,-1.6978,-1.6978,-1.6978,-1.6978,-1.6978,-1.7188,-1.7608,-1.7811,-1.823,-1.8858,4.3444,4.2927,4.3108,4.2008,4.0237,3.9524,3.8424,3.71,3.5801,3.4853,3.4103,3.2974,3.2408,3.2232,3.1853,3.1664,3.1487,3.1487,3.1297,3.0713,3.0535,3.0293,2.9991,2.9873,2.9946,2.9615,2.9665,2.9389,2.9389,2.8982,2.8371,2.7747,2.6928,2.6108,2.5285,2.4461,2.3635,2.2392,2.1362,2.032,1.9485,1.8439,1.7398,1.6978,1.6768,1.6775,1.6564,1.5716,1.4657,1.3597,1.2535,1.1267,0.9788,0.8727,0.7874,0.7665,0.703,0.6182,0.5543,0.4691,0.4052,0.3625,0.2985,0.1492,-0.0213,-0.1918,-0.3198,-0.3198,-0.2772,-0.2558,-0.3625,-0.3625,-0.405,-0.4476,-0.4261,-0.426,-0.5964,-0.6815,-0.7453,-0.7665,-0.7668,-0.7881,-0.8515,-0.9151,-1.0,-1.0636,-1.1487,-1.1911,-1.2545,-1.2968,-1.3813,-1.5078,-1.6348,-1.6768,-1.6978,-1.6978,-1.6978,-1.6978,-1.6978,-1.6978,-1.6978,-1.6978,-1.6978,-1.6978,-1.6978,-1.6978,-1.6978,-1.6978,-1.7188,-1.7188,-1.7608,-1.802,-1.8439,-1.8858,-1.9485,4.2192,4.0946,4.1629,4.0504,3.8759,3.8023,3.69,3.5786,3.504,3.3916,3.2786,3.2408,3.2232,3.1853,3.1677,3.1487,3.1107,3.0903,3.0713,3.0319,2.9962,2.9704,2.9772,2.9469,2.9279,2.9119,2.9213,2.9366,2.8959,2.7929,2.7133,2.6723,2.5902,2.5089,2.4048,2.3428,2.2599,2.0937,2.032,1.9485,1.823,1.7391,1.6768,1.6341,1.6131,1.6137,1.5723,1.4874,1.3385,1.2319,1.0627,0.936,0.809,0.7025,0.5967,0.5543,0.533,0.5543,0.4691,0.4052,0.2985,0.2345,0.1279,-0.0639,-0.1918,-0.2772,-0.3411,-0.3411,-0.3198,-0.3624,-0.4263,-0.4263,-0.49,-0.5111,-0.5109,-0.5749,-0.7027,-0.8515,-0.9155,-0.9576,-0.9576,-0.9792,-1.0004,-1.064,-1.1276,-1.2122,-1.2757,-1.2968,-1.3391,-1.3819,-1.4452,-1.5716,-1.6558,-1.6978,-1.6978,-1.6978,-1.6978,-1.6978,-1.6978,-1.6978,-1.6978,-1.6978,-1.6978,-1.6978,-1.6978,-1.7188,-1.7188,-1.7188,-1.7398,-1.7608,-1.802,-1.8447,-1.9284,-1.9702,-2.0111,4.0748,4.022,4.019,3.9441,3.7839,3.5881,3.5152,3.4838,3.3916,3.2974,3.2421,3.2043,3.1853,3.1677,3.1487,3.1107,3.0903,3.0522,3.014,2.9758,2.9388,2.9258,2.9007,2.8848,2.8682,2.8451,2.8129,2.7728,2.758,2.7261,2.6508,2.5491,2.4873,2.4048,2.3014,2.2184,2.1362,2.032,1.9485,1.8439,1.7398,1.6768,1.6341,1.6131,1.5493,1.5295,1.488,1.3602,1.1469,0.998,0.8504,0.809,0.703,0.5967,0.4904,0.4906,0.4478,0.4265,0.3839,0.3624,0.2131,-0.0,-0.1279,-0.2131,-0.2558,-0.2985,-0.3625,-0.4052,-0.405,-0.4476,-0.5115,-0.5326,-0.5964,-0.6387,-0.6384,-0.7447,-0.8515,-0.9792,-1.0856,-1.1276,-1.1699,-1.1487,-1.1487,-1.1699,-1.2122,-1.2545,-1.318,-1.3602,-1.4235,-1.4868,-1.5295,-1.6137,-1.6558,-1.6978,-1.6978,-1.6978,-1.6978,-1.6978,-1.6978,-1.6978,-1.6978,-1.6978,-1.6978,-1.7188,-1.7398,-1.7398,-1.7391,-1.7601,-1.7601,-1.802,-1.823,-1.9067,-1.9702,-2.032,-2.1154,3.9308,3.9109,3.8889,3.8136,3.673,3.4347,3.3614,3.3916,3.2974,3.2421,3.2232,3.1853,3.1664,3.1474,3.1107,3.0726,3.0535,3.014,2.9567,2.9375,2.9196,2.9004,2.8729,2.8498,2.8043,2.7835,2.7103,2.6476,2.5955,2.5675,2.5204,2.4254,2.4058,2.3023,2.1977,2.1154,2.032,1.9485,1.823,1.7398,1.6768,1.6341,1.592,1.5283,1.4651,1.4241,1.4041,1.2334,0.9776,0.7226,0.7022,0.6818,0.5967,0.4689,0.4052,0.4052,0.3839,0.3624,0.3198,0.2558,0.0426,-0.1918,-0.3411,-0.2985,-0.2558,-0.3198,-0.3837,-0.4265,-0.4689,-0.5326,-0.5964,-0.639,-0.724,-0.7874,-0.8083,-0.9148,-1.0208,-1.1258,-1.1901,-1.2122,-1.2334,-1.2757,-1.2757,-1.2757,-1.2968,-1.2968,-1.3391,-1.4019,-1.485,-1.5679,-1.5901,-1.6531,-1.6748,-1.6958,-1.6965,-1.6971,-1.6971,-1.6958,-1.6958,-1.6971,-1.6965,-1.6971,-1.7188,-1.7398,-1.7601,-1.7811,-1.7811,-1.802,-1.802,-1.8649,-1.9067,-1.9485,-2.0111,-2.0945,-2.2184,3.7486,3.71,3.7486,3.656,3.4853,3.4003,3.3267,3.2786,3.2421,3.2043,3.1853,3.1664,3.1284,3.1107,3.0726,3.0331,2.9579,2.9375,2.9184,2.8812,2.862,2.862,2.8307,2.805,2.7605,2.6856,2.6121,2.5229,2.4297,2.406,2.3846,2.3606,2.3221,2.2193,2.1154,2.032,1.9067,1.823,1.7398,1.6761,1.6341,1.571,1.5289,1.4024,1.3602,1.3185,1.2132,1.0428,0.8292,0.553,0.5749,0.5541,0.4691,0.3411,0.3198,0.2985,0.2558,0.2345,0.2131,0.0853,-0.0853,-0.2558,-0.3411,-0.3411,-0.3198,-0.3839,-0.4478,-0.4689,-0.5539,-0.6177,-0.7027,-0.7665,-0.8727,-0.9337,-0.9745,-1.0366,-1.1423,-1.227,-1.2916,-1.2958,-1.2942,-1.3106,-1.3305,-1.3284,-1.3537,-1.3537,-1.4127,-1.4749,-1.5191,-1.6028,-1.6269,-1.6701,-1.6721,-1.6937,-1.6944,-1.6924,-1.6856,-1.6863,-1.6883,-1.6917,-1.6944,-1.6958,-1.7391,-1.7601,-1.7811,-1.823,-1.8432,-1.885,-1.9059,-1.9485,-1.9911,-2.032,-2.1353,-2.2599,-2.3832,3.7301,3.6359,3.5972,3.5413,3.4666,3.3093,3.2542,3.2408,3.2043,3.1853,3.1664,3.1297,3.1107,3.0726,3.014,2.9758,2.9388,2.9004,2.8812,2.862,2.8236,2.8224,2.7897,2.7147,2.6243,2.5712,2.5095,2.4227,2.325,2.2636,2.1917,2.166,2.1871,2.157,2.0537,1.9268,1.802,1.7181,1.6551,1.6131,1.5072,1.4657,1.4019,1.2747,1.1694,1.192,1.1506,0.9155,0.66,0.4898,0.4689,0.4478,0.4052,0.2985,0.2131,0.1279,0.0426,-0.0213,-0.0426,-0.1492,-0.2558,-0.2985,-0.3411,-0.3624,-0.405,-0.4476,-0.5328,-0.5754,-0.6597,-0.7435,-0.8724,-0.936,-0.9988,-1.0783,-1.1382,-1.1782,-1.2186,-1.3027,-1.323,-1.3027,-1.2985,-1.3145,-1.3357,-1.357,-1.3834,-1.4087,-1.4672,-1.5264,-1.5912,-1.6126,-1.6353,-1.6567,-1.6781,-1.6761,-1.6761,-1.6734,-1.6714,-1.6748,-1.6795,-1.6815,-1.7058,-1.737,-1.7594,-1.8013,-1.841,-1.8805,-1.9214,-1.9879,-2.0103,-2.032,-2.0737,-2.1362,-2.2599,-2.4038,-2.5275,3.673,3.56,3.4666,3.4291,3.4103,3.2556,3.2002,3.2029,3.1853,3.1677,3.1474,3.1107,3.0726,3.0344,2.9758,2.9388,2.9004,2.862,2.8428,2.8236,2.7839,2.7646,2.7056,2.6294,2.555,2.4782,2.3886,2.2821,2.2425,2.1822,2.0897,2.0426,2.002,1.9943,1.9207,1.8208,1.6965,1.6341,1.5704,1.5283,1.4229,1.3385,1.254,1.1478,1.0424,1.0008,0.9804,0.8096,0.5751,0.4261,0.3837,0.3839,0.3411,0.2558,0.1279,-0.0639,-0.2345,-0.3411,-0.3411,-0.3411,-0.3411,-0.3839,-0.405,-0.4263,-0.4687,-0.5315,-0.6147,-0.7202,-0.7827,-0.8871,-1.0353,-1.0529,-1.0931,-1.1711,-1.2117,-1.2517,-1.2492,-1.3102,-1.3086,-1.308,-1.3259,-1.3265,-1.386,-1.4082,-1.4511,-1.4783,-1.4996,-1.5583,-1.5988,-1.64,-1.6386,-1.6592,-1.6592,-1.6564,-1.6537,-1.6571,-1.6605,-1.6619,-1.6859,-1.6879,-1.7134,-1.7654,-1.8099,-1.844,-1.8846,-1.9529,-2.0158,-2.0753,-2.0836,-2.0937,-2.1769,-2.2806,-2.4245,-2.5687,-2.6508,3.5615,3.468,3.3742,3.3177,3.3163,3.2597,3.2043,3.1853,3.1677,3.1487,3.0903,3.0916,3.0344,2.9567,2.9375,2.8992,2.862,2.8031,2.7839,2.7646,2.7067,2.6863,2.6282,2.5507,2.474,2.3951,2.3023,2.2257,2.1452,2.0431,1.9708,1.9171,1.8534,1.8085,1.7576,1.6681,1.6118,1.5914,1.4844,1.4212,1.3174,1.2324,1.1271,1.0,0.9151,0.8946,0.7887,0.7036,0.4902,0.3198,0.3411,0.3411,0.2772,0.0853,-0.0853,-0.2772,-0.3198,-0.3411,-0.3411,-0.3411,-0.3837,-0.4478,-0.4689,-0.5536,-0.5952,-0.656,-0.715,-0.8199,-0.9195,-0.9983,-1.0794,-1.162,-1.2038,-1.2431,-1.2837,-1.3011,-1.2984,-1.2952,-1.314,-1.3129,-1.3189,-1.3432,-1.4212,-1.4794,-1.5195,-1.5437,-1.5692,-1.5897,-1.6266,-1.6435,-1.6408,-1.6402,-1.6388,-1.6395,-1.6388,-1.6456,-1.6497,-1.6707,-1.6721,-1.7137,-1.7369,-1.7851,-1.8458,-1.8822,-1.9481,-1.9971,-2.0773,-2.1572,-2.2087,-2.2811,-2.3597,-2.4667,-2.6108,-2.7133,-2.7747,3.504,3.4666,3.3163,3.2597,3.2611,3.2232,3.1853,3.1664,3.1284,3.1093,3.0726,3.0344,2.9758,2.9375,2.8608,2.8224,2.8031,2.7646,2.7249,2.6669,2.6282,2.5701,2.5119,2.4535,2.3756,2.2974,2.2191,2.1013,2.0029,1.9329,1.8535,1.7784,1.712,1.6245,1.5949,1.5634,1.5465,1.451,1.3692,1.309,1.1474,1.0848,1.0,0.8306,0.8096,0.7462,0.6613,0.5758,0.405,0.1918,0.2131,0.2345,0.1066,-0.0853,-0.2345,-0.3411,-0.3411,-0.3624,-0.4048,-0.4474,-0.4687,-0.5113,-0.6174,-0.6796,-0.676,-0.7796,-0.8591,-0.9373,-1.0364,-1.1161,-1.1803,-1.2014,-1.2415,-1.2742,-1.3113,-1.3064,-1.3026,-1.2999,-1.2977,-1.2971,-1.3004,-1.3632,-1.422,-1.4855,-1.5473,-1.5857,-1.5903,-1.5883,-1.6246,-1.6218,-1.6191,-1.6191,-1.6191,-1.6212,-1.6239,-1.63,-1.6508,-1.6696,-1.6933,-1.7184,-1.7618,-1.8262,-1.8917,-1.933,-1.9962,-2.0596,-2.1819,-2.3049,-2.4115,-2.5043,-2.5644,-2.6229,-2.7079,-2.7918,-2.8767,3.4291,3.3728,3.2786,3.2232,3.2043,3.1853,3.1664,3.1284,3.0903,3.0522,3.0331,2.9567,2.9184,2.88,2.8224,2.7453,2.726,2.6681,2.6282,2.5701,2.5313,2.473,2.3951,2.3365,2.2779,2.1995,2.121,2.0029,1.9232,1.8647,1.787,1.6715,1.5577,1.4635,1.4327,1.4001,1.4317,1.3363,1.2771,1.1578,1.037,0.9553,0.8518,0.7459,0.7036,0.64,0.5761,0.4693,0.3198,0.1279,0.0426,0.0639,-0.1279,-0.1918,-0.3198,-0.3198,-0.3624,-0.405,-0.49,-0.5514,-0.5721,-0.6142,-0.7637,-0.8249,-0.7977,-0.8764,-0.9748,-1.0522,-1.1316,-1.1905,-1.2308,-1.2528,-1.2705,-1.302,-1.3004,-1.2955,-1.2944,-1.2917,-1.2912,-1.2895,-1.309,-1.3684,-1.4277,-1.5093,-1.5731,-1.5911,-1.6096,-1.6083,-1.6083,-1.6083,-1.6083,-1.609,-1.6096,-1.613,-1.6337,-1.633,-1.6722,-1.6878,-1.7348,-1.7643,-1.8236,-1.8667,-1.9348,-2.0008,-2.0959,-2.175,-2.325,-2.4517,-2.5545,-2.6261,-2.7047,-2.7627,-2.7998,-2.8641,-2.926,3.3728,3.2421,3.2408,3.2043,3.1664,3.1474,3.1297,3.0916,3.0331,2.9937,2.9388,2.9375,2.88,2.8031,2.7646,2.7056,2.6282,2.5712,2.5129,2.4535,2.4146,2.3561,2.2974,2.2387,2.1799,2.1013,2.0226,1.924,1.8845,1.7657,1.6672,1.589,1.4906,1.3524,1.2781,1.246,1.2774,1.2209,1.1437,1.0253,0.9263,0.8259,0.7441,0.6815,0.6184,0.5761,0.5119,0.4052,0.1918,-0.0,-0.1918,-0.2772,-0.2985,-0.2345,-0.2772,-0.3198,-0.4048,-0.5103,-0.5943,-0.6542,-0.7357,-0.7767,-0.8598,-0.9442,-0.9604,-0.9922,-1.0679,-1.1435,-1.1999,-1.2351,-1.2722,-1.2732,-1.2939,-1.2917,-1.2917,-1.2901,-1.2901,-1.2895,-1.2895,-1.289,-1.309,-1.3484,-1.4283,-1.5081,-1.5678,-1.6076,-1.6083,-1.6083,-1.6083,-1.6083,-1.6083,-1.6083,-1.6083,-1.6083,-1.6275,-1.6474,-1.707,-1.7466,-1.8053,-1.8519,-1.8893,-1.9495,-2.0164,-2.0984,-2.1873,-2.3071,-2.4608,-2.5687,-2.6518,-2.7452,-2.7939,-2.8345,-2.8696,-2.8778,-2.9226,3.28,3.2421,3.2043,3.1664,3.1093,3.0331,3.014,3.0319,2.9758,2.9567,2.9375,2.8608,2.8031,2.7646,2.6681,2.61,2.5518,2.474,2.3951,2.3365,2.2974,2.2191,2.1612,2.1013,2.0423,1.9832,1.9042,1.8251,1.7459,1.6268,1.5485,1.49,1.3889,1.2679,1.1497,1.0936,1.1005,1.0657,0.9889,0.9135,0.8372,0.7372,0.6774,0.5952,0.5964,0.5328,0.4052,0.2131,-0.0,-0.2131,-0.2985,-0.3411,-0.3411,-0.3198,-0.3411,-0.4473,-0.5512,-0.6328,-0.7159,-0.8153,-0.915,-0.9549,-1.0136,-1.03,-1.0684,-1.106,-1.1599,-1.2155,-1.2526,-1.27,-1.289,-1.289,-1.289,-1.289,-1.289,-1.289,-1.289,-1.289,-1.289,-1.289,-1.309,-1.3684,-1.4482,-1.5081,-1.5479,-1.5877,-1.6083,-1.6083,-1.6083,-1.6083,-1.6083,-1.6083,-1.6275,-1.6275,-1.6672,-1.6864,-1.7466,-1.7863,-1.8647,-1.924,-1.9849,-2.0449,-2.1219,-2.2191,-2.3365,-2.4546,-2.5766,-2.6632,-2.7318,-2.7627,-2.8097,-2.8736,-2.9159,-2.9057,-2.9153,3.2219,3.1853,3.1474,3.0916,3.014,2.9375,2.9184,2.9171,2.88,2.88,2.8608,2.7827,2.726,2.6681,2.5906,2.5129,2.4546,2.3756,2.2974,2.2387,2.1603,2.1219,2.0432,1.984,1.9248,1.8647,1.8053,1.707,1.6275,1.528,1.4495,1.4513,1.3295,1.1678,1.048,0.989,0.9307,0.8944,0.8378,0.7821,0.7466,0.6895,0.5893,0.5505,0.5731,0.4036,0.213,-0.0,-0.1917,-0.3198,-0.3411,-0.3411,-0.362,-0.3826,-0.4451,-0.571,-0.6722,-0.753,-0.8553,-0.9522,-1.0107,-1.0893,-1.1236,-1.1599,-1.1585,-1.1772,-1.214,-1.2505,-1.27,-1.289,-1.289,-1.289,-1.289,-1.289,-1.289,-1.289,-1.289,-1.289,-1.289,-1.289,-1.3284,-1.3884,-1.4482,-1.4881,-1.5479,-1.5877,-1.6083,-1.6083,-1.6083,-1.6083,-1.6083,-1.6083,-1.6275,-1.6672,-1.6871,-1.7261,-1.8053,-1.8647,-1.9042,-1.9832,-2.0432,-2.1415,-2.2191,-2.3561,-2.4924,-2.5906,-2.6897,-2.7272,-2.7693,-2.8031,-2.8236,-2.8632,-2.8848,-2.8968,-2.9075,3.1664,3.0916,3.0726,3.014,2.9375,2.8788,2.8212,2.7646,2.7646,2.7646,2.7646,2.726,2.6487,2.5712,2.4935,2.4146,2.3365,2.2583,2.1799,2.1406,2.062,2.0038,1.9446,1.8853,1.8259,1.7665,1.707,1.6076,1.5479,1.4488,1.3895,1.4319,1.2495,1.0676,0.9063,0.8869,0.828,0.7689,0.6913,0.6344,0.657,0.5994,0.5209,0.5459,0.3998,0.1686,-0.0212,-0.1913,-0.3191,-0.3403,-0.3401,-0.3611,-0.4023,-0.464,-0.5675,-0.6698,-0.7902,-0.8703,-0.9704,-1.0462,-1.1236,-1.1599,-1.215,-1.232,-1.232,-1.232,-1.25,-1.2695,-1.289,-1.289,-1.289,-1.289,-1.289,-1.289,-1.289,-1.289,-1.289,-1.289,-1.289,-1.289,-1.309,-1.3684,-1.4482,-1.4881,-1.528,-1.5877,-1.6083,-1.6083,-1.6282,-1.6282,-1.6275,-1.6275,-1.6474,-1.6871,-1.7459,-1.7855,-1.8647,-1.924,-1.9832,-2.0423,-2.1415,-2.2387,-2.3365,-2.4924,-2.6282,-2.7056,-2.7646,-2.8031,-2.8031,-2.8428,-2.8428,-2.862,-2.8741,-2.8898,-2.897,3.1107,3.0726,2.9567,2.898,2.8596,2.7827,2.7056,2.6669,2.6294,2.6282,2.6476,2.6089,2.5518,2.473,2.3756,2.2974,2.2387,2.1612,2.062,2.0029,1.9437,1.8845,1.8259,1.7665,1.707,1.6474,1.5877,1.4881,1.4289,1.349,1.309,1.3101,1.1488,0.9472,0.7858,0.7864,0.7062,0.6665,0.5668,0.5089,0.5115,0.5745,0.5781,0.3739,0.1043,-0.1043,-0.2302,-0.2092,-0.2717,-0.3134,-0.3969,-0.4387,-0.5219,-0.5833,-0.6864,-0.8304,-0.9068,-1.0057,-1.0635,-1.1397,-1.1752,-1.2135,-1.2505,-1.2695,-1.289,-1.269,-1.269,-1.289,-1.289,-1.289,-1.289,-1.289,-1.289,-1.289,-1.289,-1.289,-1.289,-1.289,-1.289,-1.289,-1.309,-1.3484,-1.4283,-1.4875,-1.528,-1.5678,-1.5877,-1.6083,-1.6275,-1.6474,-1.6871,-1.6871,-1.6871,-1.7261,-1.7855,-1.8647,-1.9437,-2.0226,-2.1013,-2.1603,-2.2201,-2.3756,-2.5119,-2.6282,-2.7634,-2.7839,-2.8031,-2.8428,-2.8428,-2.862,-2.862,-2.862,-2.862,-2.8741,-2.8753,3.0522,2.9746,2.8404,2.7827,2.7442,2.6669,2.6089,2.5507,2.5129,2.4924,2.4924,2.473,2.4351,2.3756,2.2779,2.1808,2.1415,2.0834,2.0038,1.924,1.8449,1.7665,1.707,1.6474,1.5877,1.528,1.4482,1.3684,1.309,1.2289,1.1688,1.1698,1.0087,0.8266,0.7053,0.6251,0.6055,0.5856,0.4444,0.3849,0.387,0.4281,0.3273,0.0412,-0.1652,-0.3102,-0.3113,-0.2698,-0.3113,-0.3737,-0.4573,-0.5194,-0.6016,-0.7026,-0.8037,-0.9243,-1.0215,-1.1166,-1.1757,-1.2135,-1.2484,-1.2484,-1.2684,-1.289,-1.289,-1.289,-1.289,-1.289,-1.289,-1.289,-1.289,-1.289,-1.289,-1.289,-1.289,-1.289,-1.289,-1.289,-1.289,-1.289,-1.309,-1.3484,-1.4083,-1.4476,-1.5081,-1.5877,-1.6083,-1.6474,-1.6672,-1.6871,-1.7268,-1.7665,-1.7657,-1.7855,-1.8647,-1.9437,-2.0423,-2.121,-2.1995,-2.2974,-2.3951,-2.5507,-2.6874,-2.7453,-2.8031,-2.8236,-2.8428,-2.862,-2.862,-2.862,-2.862,-2.862,-2.862,-2.862,-2.8656,2.9746,2.8212,2.7249,2.6669,2.6089,2.5518,2.4935,2.4341,2.3951,2.3365,2.2974,2.3375,2.2984,2.2583,2.1995,2.1013,2.0243,1.9857,1.9058,1.8259,1.7466,1.6871,1.6076,1.5479,1.4881,1.4277,1.3484,1.2684,1.1884,1.1087,1.069,1.0498,0.8877,0.6855,0.5446,0.5045,0.5248,0.4847,0.3836,0.2827,0.2628,0.2424,0.0203,-0.1837,-0.3276,-0.3287,-0.3302,-0.3515,-0.3722,-0.4545,-0.5361,-0.6386,-0.7196,-0.8188,-0.9193,-1.0176,-1.1152,-1.1713,-1.23,-1.25,-1.269,-1.289,-1.289,-1.289,-1.289,-1.289,-1.289,-1.289,-1.289,-1.289,-1.289,-1.289,-1.289,-1.289,-1.289,-1.289,-1.289,-1.289,-1.289,-1.289,-1.309,-1.3484,-1.4083,-1.4476,-1.5074,-1.5877,-1.6474,-1.6871,-1.7062,-1.7466,-1.7863,-1.8457,-1.8845,-1.9042,-1.9437,-2.0423,-2.1406,-2.2387,-2.317,-2.4351,-2.5324,-2.6487,-2.7453,-2.7839,-2.8224,-2.8428,-2.862,-2.862,-2.862,-2.862,-2.862,-2.862,-2.862,-2.862,-2.862,2.82,2.6669,2.6089,2.5507,2.4924,2.4535,2.3766,2.2974,2.2779,2.2191,2.1406,2.1022,2.1022,2.1612,2.0218,1.9437,1.9248,1.8869,1.8069,1.7268,1.6474,1.5877,1.528,1.4682,1.4083,1.3284,1.2484,1.1683,1.0681,1.0079,0.9882,0.9689,0.7867,0.5848,0.4033,0.4036,0.4444,0.404,0.3029,0.1818,-0.101,-0.1616,-0.2223,-0.3039,-0.3243,-0.3246,-0.3249,-0.3655,-0.4059,-0.487,-0.6299,-0.7522,-0.8532,-0.9334,-1.0331,-1.1133,-1.1899,-1.2294,-1.269,-1.289,-1.289,-1.289,-1.289,-1.289,-1.289,-1.289,-1.289,-1.289,-1.289,-1.289,-1.289,-1.289,-1.289,-1.289,-1.289,-1.289,-1.289,-1.289,-1.289,-1.289,-1.3084,-1.3684,-1.4277,-1.4875,-1.5671,-1.6474,-1.7268,-1.7466,-1.7657,-1.8053,-1.8647,-1.924,-1.9832,-2.0226,-2.062,-2.1603,-2.2583,-2.3561,-2.4535,-2.5518,-2.6487,-2.7249,-2.7839,-2.8224,-2.8428,-2.862,-2.862,-2.862,-2.862,-2.862,-2.862,-2.862,-2.862,-2.862,-2.862]},{"header":{"parameterUnit":"m.s-1","parameterCategory":1,"la1":31.0,"la2":29.5877,"lo1":-88.7671,"lo2":-86.6584,"dy":0.0162,"dx":0.0185,"nx":115,"ny":88,"refTime":"2023-03-09T06:00:00:Z","depth":0,"parameterNumber":3,"parameterNumberName":"V-component_of_WINDS"},"data":[0.0,0.0,0.0,0.0,0.0,0.0,0.0,0.0,0.0,0.0,0.0,0.0,0.0,0.0,0.0,0.0,0.0,0.0,0.0,0.0,0.0,0.0,0.0,0.0,0.0,0.0,0.0,0.0,0.0,0.0,0.0,0.0,0.0,0.0,0.0,0.0,0.0,0.0,0.0,0.0,0.0,0.0,0.0,0.0,0.0,0.0,0.0,0.0,0.0,0.0,0.0,0.0,0.0,0.0,0.0,0.0,0.0,0.0,0.0,0.0,0.0,0.0,0.0,0.0,0.0,0.0,0.0,0.0,0.0,0.0,0.0,0.0,0.0,0.0,0.0,0.0,0.0,0.0,0.0,0.0,0.0,0.0,0.0,0.0,0.0,0.0,0.0,0.0,0.0,0.0,0.0,0.0,0.0,0.0,0.0,0.0,0.0,0.0,0.0,0.0,0.0,0.0,0.0,0.0,0.0,0.0,0.0,0.0,0.0,0.0,0.0,0.0,0.0,0.0,0.0,0.0,0.0,0.0,0.0,0.0,0.0,0.0,0.0,0.0,0.0,0.0,0.0,0.0,0.0,0.0,0.0,0.0,0.0,0.0,0.0,0.0,0.0,0.0,0.0,0.0,0.0,0.0,0.0,0.0,0.0,0.0,0.0,0.0,0.0,0.0,0.0,0.0,0.0,0.0,0.0,0.0,0.0,0.0,0.0,0.0,0.0,0.0,0.0,0.0,0.0,0.0,0.0,0.0,0.0,0.0,0.0,0.0,0.0,0.0,0.0,0.0,0.0,0.0,0.0,0.0,0.0,0.0,0.0,0.0,0.0,0.0,0.0,0.0,0.0,0.0,0.0,0.0,0.0,0.0,0.0,0.0,0.0,0.0,0.0,0.0,0.0,0.0,0.0,0.0,0.0,0.0,0.0,0.0,0.0,0.0,0.0,0.0,0.0,0.0,0.0,0.0,0.0,0.0,0.0,0.0,0.0,0.0,0.0,0.0,0.0,0.0,0.0,0.0,0.0,0.0,0.0,0.0,0.0,0.0,0.0,0.0,0.0,0.0,0.0,0.0,0.0,0.0,0.0,0.0,0.0,0.0,0.0,0.0,0.0,0.0,0.0,0.0,0.0,0.0,0.0,0.0,0.0,0.0,0.0,0.0,0.0,0.0,0.0,0.0,0.0,0.0,0.0,0.0,0.0,0.0,0.0,0.0,0.0,0.0,0.0,0.0,0.0,0.0,0.0,0.0,0.0,0.0,0.0,0.0,0.0,0.0,0.0,0.0,0.0,0.0,0.0,0.0,0.0,0.0,0.0,0.0,0.0,0.0,0.0,0.0,0.0,0.0,0.0,0.0,0.0,0.0,0.0,0.0,0.0,0.0,0.0,0.0,0.0,0.0,0.0,0.0,0.0,0.0,0.0,0.0,0.0,0.0,0.0,0.0,0.0,0.0,0.0,0.0,0.0,0.0,0.0,0.0,0.0,0.0,0.0,0.0,0.0,0.0,0.0,0.0,0.0,0.0,0.0,0.0,0.0,0.0,0.0,0.0,0.0,0.0,0.0,0.0,0.0,0.0,0.0,0.0,0.0,0.0,0.0,0.0,0.0,0.0,0.0,0.0,0.0,0.0,0.0,0.0,0.0,0.0,0.0,0.0,0.0,0.0,0.0,0.0,0.0,0.0,0.0,0.0,0.0,0.0,0.0,0.0,0.0,0.0,0.0,0.0,0.0,0.0,0.0,0.0,0.0,0.0,0.0,0.0,0.0,0.0,0.0,0.0,0.0,0.0,0.0,0.0,0.0,0.0,0.0,0.0,0.0,0.0,0.0,0.0,0.0,0.0,0.0,0.0,0.0,0.0,0.0,0.0,0.0,0.0,0.0,0.0,0.0,0.0,0.0,0.0,0.0,0.0,0.0,0.0,0.0,0.0,0.0,0.0,0.0,0.0,0.0,0.0,0.0,0.0,0.0,0.0,0.0,0.0,0.0,0.0,0.0,0.0,0.0,0.0,0.0,0.0,0.0,0.0,0.0,0.0,0.0,0.0,0.0,0.0,0.0,0.0,0.0,0.0,0.0,0.0,0.0,0.0,0.0,0.0,0.0,0.0,0.0,0.0,0.0,0.0,0.0,0.0,0.0,0.0,0.0,0.0,0.0,0.0,0.0,0.0,0.0,0.0,0.0,0.0,0.0,0.0,0.0,0.0,0.0,0.0,0.0,0.0,0.0,0.0,0.0,0.0,0.0,0.0,0.0,0.0,0.0,0.0,0.0,0.0,0.0,0.0,0.0,0.0,0.0,0.0,0.0,0.0,0.0,0.0,0.0,0.0,0.0,0.0,0.0,0.0,0.0,0.0,0.0,0.0,0.0,0.0,0.0,0.0,0.0,0.0,0.0,0.0,0.0,0.0,0.0,0.0,0.0,0.0,0.0,0.0,0.0,0.0,0.0,0.0,0.0,0.0,0.0,0.0,0.0,0.0,0.0,0.0,0.0,0.0,0.0,0.0,0.0,0.0,0.0,0.0,0.0,0.0,0.0,0.0,0.0,0.0,0.0,0.0,0.0,0.0,0.0,0.0,0.0,0.0,0.0,0.0,0.0,0.0,0.0,0.0,0.0,0.0,0.0,0.0,0.0,0.0,0.0,0.0,0.0,0.0,0.0,0.0,0.0,0.0,0.0,0.0,0.0,0.0,0.0,0.0,0.0,0.0,0.0,0.0,0.0,0.0,0.0,0.0,0.0,0.0,0.0,0.0,0.0,0.0,0.0,0.0,0.0,0.0,0.0,0.0,0.0,0.0,0.0,0.0,0.0,0.0,0.0,0.0,0.0,0.0,0.0,0.0,0.0,0.0,0.0,0.0,0.0,0.0,0.0,0.0,0.0,0.0,0.0,0.0,0.0,0.0,0.0,0.0,0.0,0.0,0.0,0.0,0.0,0.0,0.0,0.0,0.0,0.0,0.0,0.0,0.0,0.0,0.0,0.0,0.0,0.0,0.0,0.0,0.0,0.0,0.0,0.0,0.0,0.0,0.0,0.0,0.0,0.0,0.0,0.0,0.0,0.0,0.0,0.0,0.0,0.0,0.0,0.0,0.0,0.0,0.0,0.0,0.0,0.0,0.0,0.0,0.0,0.0,0.0,0.0,0.0,0.0,0.0,0.0,0.0,0.0,0.0,0.0,0.0,0.0,0.0,0.0,0.0,0.0,0.0,0.0,0.0,0.0,0.0,0.0,0.0,0.0,0.0,0.0,0.0,0.0,0.0,0.0,0.0,0.0,0.0,0.0,0.0,0.0,0.0,0.0,0.0,0.0,0.0,0.0,0.0,0.0,0.0,0.0,0.0,0.0,0.0,0.0,0.0,0.0,0.0,0.0,0.0,0.0,0.0,0.0,0.0,0.0,0.0,0.0,0.0,0.0,0.0,0.0,0.0,0.0,0.0,0.0,0.0,0.0,0.0,0.0,0.0,0.0,0.0,0.0,0.0,0.0,0.0,0.0,0.0,0.0,0.0,0.0,0.0,0.0,0.0,0.0,0.0,0.0,0.0,0.0,0.0,0.0,0.0,0.0,0.0,0.0,0.0,0.0,0.0,0.0,0.0,0.0,0.0,0.0,0.0,0.0,0.0,0.0,0.0,0.0,0.0,0.0,0.0,0.0,0.0,0.0,0.0,0.0,0.0,0.0,0.0,0.0,0.0,0.0,0.0,0.0,0.0,0.0,0.0,0.0,0.0,0.0,0.0,0.0,0.0,0.0,0.0,0.0,0.0,0.0,0.0,0.0,0.0,0.0,0.0,0.0,0.0,0.0,0.0,0.0,0.0,0.0,0.0,0.0,0.0,0.0,0.0,0.0,0.0,0.0,0.0,0.0,0.0,0.0,0.0,0.0,0.0,0.0,0.0,0.0,0.0,0.0,0.0,0.0,0.0,0.0,0.0,0.0,0.0,0.0,0.0,0.0,0.0,0.0,0.0,0.0,0.0,0.0,0.0,0.0,0.0,0.0,0.0,0.0,0.0,0.0,0.0,0.0,0.0,0.0,0.0,0.0,0.0,0.0,0.0,0.0,0.0,0.0,0.0,0.0,0.0,0.0,0.0,0.0,0.0,0.0,0.0,0.0,0.0,0.0,0.0,0.0,0.0,0.0,0.0,0.0,0.0,0.0,0.0,0.0,0.0,0.0,0.0,0.0,0.0,0.0,0.0,0.0,0.0,0.0,0.0,0.0,0.0,0.0,0.0,0.0,0.0,0.0,0.0,0.0,0.0,0.0,0.0,0.0,0.0,0.0,-4.3988,0.0,0.0,0.0,0.0,0.0,0.0,0.0,0.0,0.0,0.0,0.0,0.0,0.0,0.0,0.0,0.0,0.0,0.0,0.0,0.0,0.0,0.0,0.0,0.0,0.0,0.0,0.0,0.0,0.0,0.0,0.0,0.0,0.0,0.0,0.0,0.0,0.0,0.0,0.0,0.0,0.0,0.0,0.0,0.0,0.0,0.0,0.0,0.0,0.0,0.0,0.0,0.0,0.0,0.0,0.0,0.0,0.0,0.0,0.0,0.0,0.0,0.0,0.0,0.0,0.0,0.0,0.0,0.0,0.0,0.0,0.0,0.0,0.0,0.0,0.0,0.0,0.0,0.0,0.0,0.0,0.0,0.0,0.0,0.0,0.0,0.0,0.0,0.0,0.0,0.0,0.0,0.0,0.0,0.0,0.0,0.0,0.0,0.0,0.0,0.0,0.0,0.0,0.0,0.0,0.0,0.0,0.0,0.0,0.0,0.0,-4.3329,-4.3329,-4.3329,-4.3488,-4.3988,0.0,0.0,0.0,0.0,0.0,0.0,0.0,0.0,0.0,0.0,0.0,0.0,0.0,0.0,0.0,0.0,0.0,0.0,0.0,0.0,0.0,0.0,0.0,0.0,0.0,0.0,0.0,0.0,0.0,0.0,0.0,0.0,0.0,0.0,0.0,0.0,0.0,0.0,0.0,0.0,0.0,0.0,0.0,0.0,0.0,0.0,0.0,0.0,0.0,0.0,0.0,0.0,0.0,0.0,0.0,0.0,0.0,0.0,0.0,0.0,0.0,0.0,0.0,0.0,0.0,0.0,0.0,0.0,0.0,0.0,0.0,0.0,0.0,0.0,0.0,0.0,0.0,0.0,0.0,0.0,0.0,0.0,0.0,0.0,0.0,0.0,0.0,0.0,0.0,0.0,0.0,0.0,0.0,0.0,0.0,0.0,0.0,0.0,0.0,0.0,0.0,0.0,0.0,0.0,0.0,0.0,0.0,0.0,0.0,0.0,0.0,0.0,-4.3329,-4.3566,-4.4065,0.0,0.0,0.0,0.0,0.0,0.0,0.0,0.0,0.0,0.0,0.0,0.0,0.0,0.0,0.0,0.0,0.0,0.0,0.0,0.0,0.0,0.0,0.0,0.0,0.0,0.0,0.0,0.0,0.0,0.0,0.0,0.0,0.0,0.0,0.0,0.0,0.0,0.0,0.0,0.0,0.0,0.0,0.0,0.0,0.0,0.0,0.0,0.0,0.0,0.0,0.0,0.0,0.0,0.0,0.0,0.0,0.0,0.0,0.0,0.0,0.0,0.0,0.0,0.0,0.0,0.0,0.0,0.0,0.0,0.0,0.0,0.0,0.0,0.0,0.0,0.0,0.0,0.0,0.0,0.0,0.0,0.0,0.0,0.0,0.0,0.0,0.0,0.0,0.0,0.0,0.0,0.0,0.0,0.0,0.0,0.0,0.0,0.0,0.0,0.0,0.0,0.0,0.0,0.0,0.0,0.0,0.0,0.0,0.0,0.0,-4.3329,-4.3329,-4.3329,0.0,-4.4266,0.0,0.0,0.0,0.0,0.0,0.0,0.0,0.0,0.0,0.0,0.0,0.0,0.0,0.0,0.0,0.0,0.0,0.0,0.0,0.0,0.0,0.0,0.0,0.0,0.0,0.0,0.0,0.0,0.0,0.0,0.0,0.0,0.0,0.0,0.0,0.0,0.0,0.0,0.0,0.0,0.0,0.0,0.0,0.0,0.0,0.0,0.0,0.0,0.0,0.0,0.0,0.0,0.0,0.0,0.0,0.0,0.0,0.0,0.0,0.0,0.0,0.0,0.0,0.0,0.0,0.0,0.0,0.0,0.0,0.0,0.0,0.0,0.0,0.0,0.0,0.0,0.0,0.0,0.0,0.0,0.0,0.0,0.0,0.0,0.0,0.0,0.0,0.0,0.0,0.0,0.0,0.0,0.0,0.0,0.0,0.0,0.0,0.0,0.0,0.0,0.0,0.0,0.0,0.0,0.0,0.0,0.0,0.0,0.0,0.0,-4.3329,-4.3329,-4.3566,-4.3957,0.0,0.0,0.0,0.0,0.0,0.0,0.0,0.0,0.0,0.0,0.0,0.0,0.0,0.0,0.0,0.0,0.0,0.0,0.0,0.0,0.0,0.0,0.0,0.0,0.0,0.0,0.0,0.0,0.0,0.0,0.0,0.0,0.0,0.0,0.0,0.0,0.0,0.0,0.0,0.0,0.0,0.0,0.0,0.0,0.0,0.0,0.0,0.0,0.0,0.0,0.0,0.0,0.0,0.0,0.0,0.0,0.0,0.0,0.0,0.0,0.0,0.0,0.0,0.0,0.0,0.0,0.0,0.0,0.0,0.0,0.0,0.0,0.0,0.0,0.0,0.0,0.0,0.0,0.0,0.0,0.0,0.0,0.0,0.0,0.0,0.0,0.0,0.0,0.0,0.0,0.0,0.0,0.0,0.0,0.0,0.0,0.0,0.0,0.0,0.0,0.0,0.0,0.0,0.0,0.0,0.0,0.0,0.0,0.0,0.0,-4.3329,-4.3329,-4.3409,-4.3832,-4.4266,-4.4648,0.0,0.0,0.0,0.0,0.0,0.0,0.0,0.0,0.0,0.0,0.0,0.0,0.0,0.0,0.0,0.0,0.0,0.0,0.0,0.0,0.0,0.0,0.0,0.0,0.0,0.0,0.0,0.0,0.0,0.0,0.0,0.0,0.0,0.0,0.0,0.0,0.0,0.0,0.0,0.0,0.0,0.0,0.0,0.0,0.0,0.0,0.0,0.0,0.0,0.0,0.0,0.0,0.0,0.0,0.0,0.0,0.0,0.0,0.0,0.0,0.0,0.0,0.0,0.0,0.0,0.0,0.0,0.0,0.0,0.0,0.0,0.0,0.0,0.0,0.0,0.0,0.0,0.0,0.0,0.0,0.0,0.0,0.0,0.0,0.0,0.0,0.0,0.0,0.0,0.0,0.0,0.0,0.0,0.0,0.0,0.0,0.0,0.0,0.0,0.0,0.0,0.0,0.0,0.0,0.0,0.0,0.0,0.0,-4.3329,-4.3329,-4.3409,-4.3675,-4.4065,-4.4496,0.0,0.0,0.0,0.0,0.0,0.0,0.0,0.0,0.0,0.0,0.0,0.0,0.0,0.0,0.0,0.0,0.0,0.0,0.0,0.0,0.0,0.0,0.0,0.0,0.0,0.0,0.0,0.0,0.0,0.0,0.0,0.0,0.0,0.0,0.0,0.0,0.0,0.0,0.0,0.0,0.0,0.0,0.0,0.0,0.0,0.0,0.0,0.0,0.0,0.0,0.0,0.0,0.0,0.0,0.0,0.0,0.0,0.0,0.0,0.0,0.0,0.0,0.0,0.0,0.0,0.0,0.0,0.0,0.0,0.0,0.0,0.0,0.0,0.0,0.0,0.0,0.0,0.0,0.0,0.0,0.0,0.0,0.0,0.0,0.0,0.0,0.0,0.0,0.0,0.0,0.0,0.0,0.0,0.0,0.0,0.0,0.0,0.0,0.0,0.0,0.0,0.0,0.0,0.0,0.0,0.0,0.0,0.0,0.0,-4.3329,-4.3488,-4.3675,-4.391,-4.4266,-4.4678,0.0,0.0,0.0,0.0,0.0,0.0,0.0,0.0,0.0,0.0,0.0,0.0,0.0,0.0,0.0,0.0,0.0,0.0,0.0,0.0,0.0,0.0,0.0,0.0,0.0,0.0,0.0,0.0,0.0,0.0,0.0,0.0,0.0,0.0,0.0,0.0,0.0,0.0,0.0,0.0,0.0,0.0,0.0,0.0,0.0,0.0,0.0,0.0,0.0,0.0,0.0,0.0,0.0,0.0,0.0,0.0,0.0,0.0,0.0,0.0,0.0,0.0,0.0,0.0,0.0,0.0,0.0,0.0,0.0,0.0,0.0,0.0,0.0,0.0,0.0,0.0,0.0,0.0,0.0,0.0,0.0,0.0,0.0,0.0,0.0,0.0,0.0,0.0,0.0,0.0,0.0,0.0,0.0,0.0,0.0,0.0,0.0,0.0,0.0,0.0,0.0,0.0,0.0,0.0,0.0,0.0,0.0,0.0,0.0,-4.3658,0.0,-4.4467,0.0,-4.488,-4.517,0.0,0.0,0.0,0.0,0.0,0.0,0.0,0.0,0.0,0.0,0.0,0.0,0.0,0.0,0.0,0.0,0.0,0.0,0.0,0.0,0.0,0.0,0.0,0.0,0.0,0.0,0.0,0.0,0.0,0.0,0.0,0.0,0.0,0.0,0.0,0.0,0.0,0.0,0.0,0.0,0.0,0.0,0.0,0.0,0.0,0.0,0.0,0.0,0.0,0.0,0.0,0.0,0.0,0.0,0.0,0.0,0.0,0.0,0.0,0.0,0.0,0.0,0.0,0.0,0.0,0.0,0.0,0.0,0.0,0.0,0.0,0.0,0.0,0.0,0.0,0.0,0.0,0.0,0.0,0.0,0.0,0.0,0.0,0.0,0.0,0.0,0.0,0.0,0.0,0.0,0.0,0.0,0.0,0.0,0.0,0.0,0.0,0.0,0.0,0.0,0.0,0.0,0.0,0.0,0.0,0.0,0.0,0.0,-4.3748,-4.4317,-4.5221,-4.5768,-4.5961,-4.5957,-4.599,0.0,0.0,0.0,0.0,0.0,0.0,0.0,0.0,0.0,0.0,0.0,0.0,0.0,0.0,0.0,0.0,0.0,0.0,0.0,0.0,0.0,0.0,0.0,0.0,0.0,0.0,0.0,0.0,0.0,0.0,0.0,0.0,0.0,0.0,0.0,0.0,0.0,0.0,0.0,0.0,0.0,0.0,0.0,0.0,0.0,0.0,0.0,0.0,0.0,0.0,0.0,0.0,0.0,0.0,0.0,0.0,0.0,0.0,0.0,0.0,0.0,0.0,0.0,0.0,0.0,0.0,0.0,0.0,0.0,0.0,0.0,0.0,0.0,0.0,0.0,0.0,0.0,0.0,0.0,0.0,0.0,0.0,0.0,0.0,0.0,0.0,0.0,0.0,0.0,0.0,0.0,0.0,0.0,0.0,0.0,0.0,0.0,0.0,0.0,0.0,0.0,0.0,0.0,0.0,0.0,0.0,0.0,0.0,0.0,-4.5913,-4.6455,-4.6741,-4.6689,-4.7287,-4.7403,0.0,0.0,0.0,0.0,0.0,0.0,0.0,0.0,0.0,0.0,0.0,0.0,0.0,0.0,0.0,0.0,0.0,0.0,0.0,0.0,0.0,0.0,0.0,0.0,0.0,0.0,0.0,0.0,0.0,0.0,0.0,0.0,0.0,0.0,0.0,0.0,0.0,0.0,0.0,0.0,0.0,0.0,0.0,0.0,0.0,0.0,0.0,0.0,0.0,0.0,0.0,0.0,0.0,0.0,0.0,0.0,0.0,0.0,0.0,0.0,0.0,0.0,0.0,0.0,0.0,0.0,0.0,0.0,0.0,0.0,0.0,0.0,0.0,0.0,0.0,0.0,0.0,0.0,0.0,0.0,0.0,0.0,0.0,0.0,0.0,0.0,0.0,0.0,0.0,0.0,0.0,0.0,0.0,0.0,0.0,0.0,0.0,0.0,0.0,0.0,0.0,0.0,0.0,0.0,0.0,0.0,0.0,0.0,0.0,-4.8698,-4.9072,-4.9188,-4.9103,-4.9399,-4.933,-4.8808,0.0,0.0,0.0,0.0,0.0,0.0,0.0,0.0,0.0,0.0,0.0,0.0,0.0,0.0,0.0,0.0,0.0,0.0,0.0,0.0,0.0,0.0,0.0,0.0,0.0,0.0,0.0,0.0,0.0,0.0,0.0,0.0,0.0,0.0,0.0,0.0,0.0,0.0,0.0,0.0,0.0,0.0,0.0,0.0,0.0,0.0,0.0,0.0,0.0,0.0,0.0,0.0,0.0,0.0,0.0,0.0,0.0,0.0,0.0,0.0,0.0,0.0,0.0,0.0,0.0,0.0,0.0,0.0,0.0,0.0,0.0,0.0,0.0,0.0,0.0,0.0,0.0,0.0,0.0,0.0,0.0,0.0,0.0,0.0,0.0,0.0,0.0,0.0,0.0,0.0,0.0,0.0,0.0,0.0,0.0,0.0,0.0,0.0,0.0,0.0,0.0,0.0,0.0,0.0,0.0,0.0,0.0,0.0,-5.2581,-5.2734,-5.2733,-5.2757,-5.2192,-5.1643,0.0,0.0,0.0,0.0,0.0,0.0,0.0,0.0,0.0,0.0,0.0,0.0,0.0,0.0,0.0,0.0,0.0,0.0,0.0,0.0,0.0,0.0,0.0,0.0,0.0,0.0,0.0,0.0,0.0,0.0,0.0,0.0,0.0,0.0,0.0,0.0,0.0,0.0,0.0,0.0,0.0,0.0,0.0,0.0,0.0,0.0,0.0,0.0,0.0,0.0,0.0,0.0,0.0,0.0,0.0,0.0,0.0,0.0,0.0,0.0,0.0,0.0,0.0,0.0,0.0,0.0,0.0,0.0,0.0,0.0,0.0,0.0,0.0,0.0,0.0,0.0,0.0,0.0,0.0,0.0,0.0,0.0,0.0,0.0,0.0,0.0,0.0,0.0,0.0,0.0,0.0,0.0,0.0,0.0,0.0,0.0,0.0,0.0,0.0,0.0,0.0,0.0,0.0,0.0,0.0,0.0,0.0,0.0,0.0,-5.6093,-5.7307,-5.6653,-5.3892,-5.4222,-5.4158,0.0,0.0,0.0,0.0,0.0,0.0,0.0,0.0,0.0,0.0,0.0,0.0,0.0,0.0,0.0,0.0,0.0,0.0,0.0,0.0,0.0,0.0,0.0,0.0,0.0,0.0,0.0,0.0,0.0,0.0,0.0,0.0,0.0,0.0,0.0,0.0,0.0,0.0,0.0,0.0,0.0,0.0,0.0,0.0,0.0,0.0,0.0,0.0,0.0,0.0,0.0,0.0,0.0,0.0,0.0,0.0,0.0,0.0,0.0,0.0,0.0,0.0,0.0,0.0,0.0,0.0,0.0,0.0,0.0,0.0,0.0,0.0,0.0,0.0,0.0,0.0,0.0,0.0,0.0,0.0,0.0,0.0,0.0,0.0,0.0,0.0,0.0,0.0,0.0,0.0,0.0,0.0,0.0,0.0,0.0,0.0,0.0,0.0,0.0,0.0,0.0,0.0,0.0,0.0,0.0,0.0,0.0,0.0,-5.6186,-5.8091,-5.9474,-5.916,-5.7235,-5.7172,-5.6605,0.0,0.0,0.0,0.0,0.0,0.0,0.0,0.0,0.0,0.0,0.0,0.0,0.0,0.0,0.0,0.0,0.0,0.0,0.0,0.0,0.0,0.0,0.0,0.0,0.0,0.0,0.0,0.0,0.0,0.0,0.0,0.0,0.0,0.0,0.0,0.0,0.0,0.0,0.0,0.0,0.0,0.0,0.0,0.0,0.0,0.0,0.0,0.0,0.0,0.0,0.0,0.0,0.0,0.0,0.0,0.0,0.0,0.0,0.0,0.0,0.0,0.0,0.0,0.0,0.0,0.0,0.0,0.0,0.0,0.0,0.0,0.0,0.0,0.0,0.0,0.0,0.0,0.0,0.0,0.0,0.0,0.0,0.0,0.0,0.0,0.0,0.0,0.0,0.0,0.0,0.0,0.0,0.0,0.0,0.0,0.0,0.0,0.0,0.0,0.0,0.0,0.0,0.0,0.0,0.0,0.0,0.0,0.0,-5.7057,-5.9381,-6.0329,-6.1153,-6.1745,-6.0419,-5.9041,0.0,0.0,0.0,0.0,0.0,0.0,0.0,0.0,0.0,0.0,0.0,0.0,0.0,0.0,0.0,0.0,0.0,0.0,0.0,0.0,0.0,0.0,0.0,0.0,0.0,0.0,0.0,0.0,0.0,0.0,0.0,0.0,0.0,0.0,0.0,0.0,0.0,0.0,0.0,0.0,0.0,0.0,0.0,0.0,0.0,0.0,0.0,0.0,0.0,0.0,0.0,0.0,0.0,0.0,0.0,0.0,0.0,0.0,0.0,0.0,0.0,0.0,0.0,0.0,0.0,0.0,0.0,0.0,0.0,0.0,0.0,0.0,0.0,0.0,0.0,0.0,0.0,0.0,0.0,0.0,0.0,0.0,0.0,0.0,0.0,0.0,0.0,0.0,0.0,0.0,0.0,0.0,0.0,0.0,0.0,0.0,0.0,0.0,0.0,0.0,0.0,0.0,0.0,0.0,0.0,0.0,0.0,0.0,-5.9916,-6.2237,-6.3325,-6.387,-6.4253,-6.2496,-6.0857,0.0,0.0,0.0,0.0,0.0,0.0,0.0,0.0,0.0,0.0,0.0,0.0,0.0,0.0,0.0,0.0,0.0,0.0,0.0,0.0,0.0,0.0,0.0,0.0,0.0,0.0,0.0,0.0,0.0,0.0,0.0,0.0,0.0,0.0,0.0,0.0,0.0,0.0,0.0,0.0,0.0,0.0,0.0,0.0,0.0,0.0,0.0,0.0,-6.0098,0.0,0.0,0.0,0.0,0.0,0.0,0.0,0.0,0.0,0.0,0.0,0.0,0.0,0.0,0.0,0.0,0.0,0.0,0.0,0.0,0.0,0.0,0.0,0.0,0.0,0.0,0.0,0.0,0.0,0.0,0.0,0.0,0.0,0.0,0.0,0.0,0.0,0.0,0.0,0.0,0.0,0.0,0.0,0.0,0.0,0.0,0.0,0.0,0.0,0.0,0.0,0.0,0.0,0.0,0.0,0.0,0.0,0.0,0.0,-6.1212,-6.3934,-6.4546,-6.5123,-6.5437,-6.4577,-6.2983,0.0,0.0,0.0,0.0,0.0,0.0,0.0,0.0,0.0,0.0,0.0,0.0,0.0,0.0,0.0,0.0,0.0,0.0,0.0,0.0,0.0,0.0,0.0,0.0,0.0,0.0,0.0,0.0,0.0,0.0,0.0,0.0,0.0,0.0,0.0,0.0,0.0,0.0,0.0,0.0,0.0,0.0,0.0,0.0,0.0,0.0,0.0,0.0,0.0,0.0,0.0,0.0,0.0,0.0,0.0,0.0,0.0,0.0,0.0,0.0,0.0,0.0,0.0,0.0,0.0,0.0,0.0,0.0,0.0,0.0,0.0,0.0,0.0,0.0,0.0,0.0,0.0,0.0,0.0,0.0,0.0,0.0,0.0,0.0,0.0,0.0,0.0,0.0,0.0,0.0,0.0,0.0,0.0,0.0,0.0,0.0,0.0,0.0,0.0,0.0,0.0,0.0,0.0,0.0,0.0,0.0,0.0,-5.9884,-6.2256,-6.5123,-6.535,-6.5763,-6.6351,-6.6318,-6.5023,-6.2139,0.0,0.0,0.0,0.0,0.0,0.0,0.0,0.0,0.0,0.0,0.0,0.0,0.0,0.0,0.0,0.0,0.0,0.0,0.0,0.0,0.0,0.0,0.0,0.0,0.0,0.0,0.0,0.0,0.0,0.0,0.0,0.0,0.0,0.0,0.0,0.0,0.0,0.0,-5.926,-6.2582,0.0,0.0,0.0,0.0,0.0,0.0,0.0,0.0,-6.568,0.0,0.0,0.0,0.0,0.0,0.0,0.0,0.0,0.0,0.0,0.0,0.0,0.0,0.0,0.0,0.0,0.0,0.0,0.0,0.0,0.0,0.0,0.0,0.0,0.0,0.0,0.0,0.0,0.0,0.0,0.0,0.0,0.0,0.0,0.0,0.0,0.0,0.0,0.0,0.0,0.0,0.0,0.0,0.0,0.0,0.0,0.0,0.0,0.0,0.0,0.0,0.0,0.0,0.0,0.0,0.0,-5.9043,-6.2329,-6.4812,-6.654,-6.7195,-6.7418,-6.7109,-6.7076,-6.5739,-6.3162,0.0,0.0,0.0,0.0,0.0,0.0,0.0,0.0,0.0,0.0,0.0,0.0,0.0,0.0,0.0,0.0,0.0,0.0,0.0,0.0,0.0,0.0,0.0,0.0,0.0,0.0,0.0,0.0,0.0,0.0,0.0,0.0,0.0,0.0,0.0,0.0,0.0,0.0,0.0,-6.5703,-6.717,0.0,0.0,0.0,0.0,0.0,0.0,0.0,0.0,-6.7346,0.0,0.0,0.0,0.0,0.0,0.0,0.0,0.0,0.0,0.0,0.0,0.0,0.0,0.0,0.0,0.0,0.0,0.0,0.0,0.0,0.0,0.0,0.0,0.0,0.0,0.0,0.0,0.0,0.0,0.0,0.0,0.0,0.0,0.0,0.0,0.0,0.0,0.0,0.0,0.0,0.0,0.0,0.0,0.0,0.0,0.0,0.0,0.0,0.0,0.0,0.0,0.0,0.0,0.0,0.0,-6.0967,-6.3457,-6.5679,-6.7513,-6.794,-6.8068,-6.7988,-6.7625,-6.6087,0.0,0.0,0.0,0.0,0.0,0.0,0.0,0.0,0.0,0.0,0.0,0.0,0.0,0.0,0.0,0.0,0.0,0.0,0.0,0.0,0.0,0.0,0.0,0.0,0.0,0.0,0.0,0.0,0.0,0.0,0.0,0.0,0.0,0.0,0.0,0.0,0.0,0.0,0.0,0.0,-6.7161,-6.8858,-6.8925,0.0,0.0,0.0,0.0,0.0,0.0,-7.0425,-6.9862,0.0,0.0,0.0,0.0,0.0,0.0,0.0,0.0,0.0,0.0,0.0,0.0,0.0,0.0,0.0,0.0,0.0,0.0,0.0,0.0,0.0,0.0,0.0,0.0,0.0,0.0,0.0,0.0,0.0,0.0,0.0,0.0,0.0,0.0,0.0,0.0,0.0,0.0,0.0,0.0,0.0,0.0,0.0,0.0,0.0,0.0,0.0,0.0,0.0,0.0,0.0,0.0,0.0,0.0,0.0,-6.2771,-6.4515,-6.6417,-6.8385,-6.8616,-6.8743,-6.8765,-6.8102,-6.6395,0.0,0.0,0.0,0.0,0.0,0.0,0.0,0.0,0.0,0.0,0.0,0.0,0.0,0.0,0.0,0.0,0.0,0.0,0.0,0.0,0.0,0.0,0.0,0.0,0.0,0.0,0.0,0.0,0.0,0.0,0.0,0.0,0.0,0.0,0.0,0.0,0.0,0.0,0.0,0.0,0.0,-7.0287,-7.0969,-7.1986,0.0,0.0,0.0,0.0,-7.3427,-7.2954,0.0,0.0,0.0,0.0,0.0,0.0,0.0,0.0,0.0,0.0,0.0,0.0,0.0,0.0,0.0,0.0,0.0,0.0,0.0,0.0,0.0,0.0,0.0,0.0,0.0,0.0,0.0,0.0,0.0,0.0,0.0,0.0,0.0,0.0,0.0,0.0,0.0,0.0,0.0,0.0,0.0,0.0,0.0,0.0,0.0,0.0,0.0,0.0,0.0,0.0,0.0,0.0,0.0,0.0,0.0,0.0,-6.3784,-6.6489,-6.8235,-6.8951,-6.9616,-6.965,-6.9077,-6.8378,-6.6979,0.0,0.0,0.0,0.0,0.0,0.0,0.0,0.0,0.0,0.0,0.0,0.0,0.0,0.0,0.0,0.0,0.0,0.0,0.0,0.0,0.0,0.0,0.0,0.0,0.0,0.0,0.0,0.0,0.0,0.0,0.0,0.0,0.0,0.0,0.0,0.0,0.0,0.0,0.0,0.0,0.0,-7.1852,-7.1986,-7.3399,-7.413,0.0,0.0,-7.3427,-7.3559,-7.3509,0.0,0.0,0.0,0.0,0.0,0.0,0.0,0.0,0.0,0.0,0.0,0.0,0.0,0.0,0.0,0.0,0.0,0.0,0.0,0.0,0.0,0.0,0.0,0.0,0.0,0.0,0.0,0.0,0.0,0.0,0.0,0.0,0.0,0.0,0.0,0.0,0.0,0.0,0.0,0.0,0.0,0.0,0.0,0.0,0.0,0.0,0.0,0.0,0.0,0.0,0.0,0.0,0.0,0.0,0.0,-6.223,-6.5727,-6.7904,-6.9544,-7.059,-7.1231,-7.1359,-7.0623,-6.998,-6.8261,0.0,0.0,0.0,0.0,0.0,0.0,0.0,0.0,0.0,0.0,0.0,0.0,0.0,0.0,0.0,0.0,0.0,0.0,0.0,0.0,0.0,0.0,0.0,0.0,0.0,0.0,0.0,0.0,0.0,0.0,0.0,0.0,0.0,0.0,0.0,0.0,0.0,0.0,0.0,0.0,0.0,0.0,-7.4745,-7.5707,0.0,0.0,0.0,-7.6409,-7.6437,0.0,0.0,0.0,0.0,0.0,0.0,0.0,0.0,0.0,0.0,0.0,0.0,0.0,0.0,0.0,0.0,0.0,0.0,0.0,0.0,0.0,0.0,0.0,0.0,0.0,0.0,0.0,0.0,0.0,0.0,0.0,0.0,0.0,0.0,0.0,0.0,0.0,0.0,0.0,0.0,0.0,0.0,0.0,0.0,0.0,0.0,0.0,0.0,0.0,0.0,0.0,0.0,0.0,0.0,0.0,0.0,0.0,-6.7396,-6.9144,-7.0623,-7.1867,-7.264,-7.2707,-7.1934,-7.1435,0.0,0.0,0.0,0.0,0.0,0.0,0.0,0.0,0.0,0.0,0.0,0.0,0.0,0.0,0.0,0.0,0.0,0.0,0.0,0.0,0.0,0.0,0.0,0.0,0.0,0.0,0.0,-6.2545,0.0,0.0,0.0,0.0,0.0,0.0,0.0,0.0,0.0,0.0,0.0,0.0,0.0,0.0,-7.286,-7.6476,-7.7323,-7.7784,0.0,0.0,-7.8623,-7.8679,-7.7601,-7.6273,0.0,0.0,0.0,0.0,0.0,0.0,0.0,0.0,0.0,0.0,0.0,0.0,0.0,0.0,0.0,0.0,0.0,0.0,0.0,0.0,0.0,0.0,0.0,0.0,0.0,0.0,0.0,0.0,0.0,0.0,0.0,0.0,0.0,0.0,0.0,0.0,0.0,0.0,0.0,0.0,0.0,0.0,0.0,0.0,0.0,0.0,0.0,0.0,0.0,0.0,0.0,0.0,0.0,0.0,0.0,-6.815,-7.0391,-7.1885,-7.2598,-7.347,-7.347,-7.2598,-7.2151,-7.0943,0.0,0.0,0.0,0.0,0.0,0.0,0.0,0.0,0.0,0.0,0.0,0.0,0.0,0.0,0.0,0.0,0.0,0.0,0.0,0.0,0.0,0.0,0.0,0.0,0.0,0.0,0.0,0.0,0.0,0.0,0.0,0.0,0.0,0.0,0.0,0.0,0.0,0.0,0.0,0.0,0.0,-7.3976,-7.5822,-7.74,-7.8468,0.0,0.0,-7.864,-7.8824,-7.8185,-7.7366,-7.6704,0.0,0.0,0.0,0.0,0.0,0.0,0.0,0.0,0.0,0.0,0.0,0.0,0.0,0.0,0.0,0.0,0.0,0.0,0.0,0.0,0.0,0.0,0.0,0.0,0.0,0.0,0.0,0.0,0.0,0.0,0.0,0.0,0.0,0.0,0.0,0.0,0.0,0.0,0.0,0.0,0.0,0.0,0.0,0.0,0.0,0.0,0.0,0.0,0.0,0.0,0.0,0.0,0.0,-6.5481,-6.8914,-7.1367,-7.2922,-7.3672,-7.4957,-7.5322,-7.4569,-7.4343,-7.3199,0.0,0.0,0.0,0.0,0.0,0.0,0.0,0.0,0.0,0.0,0.0,0.0,0.0,0.0,0.0,0.0,0.0,0.0,0.0,0.0,0.0,0.0,0.0,0.0,0.0,0.0,0.0,0.0,-6.9737,-7.0223,-6.9311,0.0,0.0,0.0,0.0,0.0,0.0,0.0,0.0,0.0,0.0,-7.5053,-7.7266,-7.8643,0.0,0.0,-8.0316,-8.0229,-7.9763,-7.9559,-7.8862,-7.7081,-7.5054,0.0,0.0,0.0,0.0,0.0,0.0,0.0,0.0,0.0,0.0,0.0,0.0,0.0,0.0,0.0,0.0,0.0,0.0,0.0,0.0,0.0,0.0,0.0,0.0,0.0,0.0,0.0,0.0,0.0,0.0,0.0,0.0,0.0,0.0,0.0,0.0,0.0,0.0,0.0,0.0,0.0,0.0,0.0,0.0,0.0,0.0,0.0,0.0,0.0,0.0,0.0,0.0,-6.6519,-6.9919,-7.2346,-7.4028,-7.4871,-7.6321,-7.6809,-7.6139,-7.6138,-7.5113,0.0,0.0,0.0,0.0,0.0,0.0,0.0,0.0,0.0,0.0,0.0,0.0,0.0,0.0,0.0,0.0,0.0,0.0,0.0,0.0,0.0,0.0,0.0,0.0,0.0,0.0,0.0,0.0,-7.1776,-7.1494,-6.9268,0.0,0.0,0.0,0.0,0.0,0.0,0.0,0.0,0.0,0.0,-7.6611,-7.871,-7.9741,-8.0656,-8.1617,-8.1607,-8.1398,-8.1097,-8.0825,-8.003,-7.8324,0.0,0.0,0.0,0.0,0.0,0.0,0.0,0.0,0.0,0.0,0.0,0.0,0.0,0.0,0.0,0.0,0.0,0.0,0.0,0.0,0.0,0.0,0.0,0.0,0.0,0.0,0.0,0.0,0.0,0.0,0.0,0.0,0.0,0.0,0.0,0.0,0.0,0.0,0.0,0.0,0.0,0.0,0.0,0.0,0.0,0.0,0.0,0.0,0.0,0.0,0.0,0.0,0.0,-6.798,-7.1129,-7.362,-7.531,-7.6366,-7.7337,-7.7631,-7.7153,-7.725,-7.6373,-7.4322,0.0,0.0,0.0,0.0,0.0,0.0,0.0,0.0,0.0,0.0,0.0,0.0,0.0,0.0,0.0,0.0,0.0,0.0,0.0,0.0,0.0,0.0,0.0,0.0,0.0,0.0,-7.2673,-7.2339,-7.0976,0.0,0.0,0.0,0.0,0.0,0.0,0.0,0.0,0.0,0.0,-7.6881,-7.8864,-7.975,-8.0694,-8.1655,-8.26,-8.2056,-8.1863,-8.2806,-8.1726,-8.0727,0.0,0.0,0.0,0.0,0.0,0.0,0.0,0.0,0.0,0.0,0.0,0.0,0.0,0.0,0.0,0.0,0.0,0.0,0.0,0.0,0.0,0.0,0.0,0.0,0.0,0.0,0.0,0.0,-5.4354,0.0,0.0,0.0,0.0,0.0,0.0,0.0,0.0,0.0,0.0,0.0,-6.5358,-6.597,0.0,0.0,0.0,0.0,0.0,0.0,0.0,0.0,0.0,0.0,0.0,0.0,-6.9336,-7.2354,-7.4322,-7.586,-7.683,-7.7852,-7.8385,-7.8271,-7.8266,-7.7601,-7.6192,0.0,0.0,0.0,0.0,0.0,0.0,0.0,0.0,0.0,0.0,0.0,0.0,0.0,0.0,0.0,0.0,0.0,0.0,0.0,0.0,0.0,0.0,0.0,0.0,0.0,-7.2223,0.0,0.0,0.0,0.0,0.0,0.0,0.0,0.0,0.0,0.0,0.0,-7.4822,-7.6245,-7.9114,-8.1051,-8.0877,-8.2168,-8.3089,0.0,0.0,0.0,0.0,0.0,0.0,0.0,0.0,0.0,0.0,0.0,0.0,0.0,0.0,-7.4804,-7.283,-7.2436,-7.251,-7.2762,0.0,0.0,0.0,0.0,0.0,0.0,0.0,0.0,0.0,0.0,0.0,0.0,0.0,0.0,0.0,0.0,-5.7554,0.0,0.0,0.0,0.0,0.0,0.0,0.0,0.0,-6.6973,-6.8048,-6.8588,-6.9481,-7.0073,0.0,-7.0447,-6.9227,0.0,0.0,0.0,0.0,0.0,0.0,0.0,0.0,-7.1255,-7.3694,-7.5463,-7.6922,-7.8104,-7.8964,-7.9599,-7.9974,-7.9822,-7.9279,-7.8387,-7.7124,-7.5498,0.0,0.0,0.0,0.0,0.0,0.0,0.0,0.0,0.0,0.0,0.0,0.0,0.0,0.0,0.0,0.0,0.0,0.0,0.0,0.0,0.0,0.0,0.0,-7.4063,0.0,0.0,0.0,0.0,0.0,0.0,0.0,0.0,0.0,-7.2322,-7.5236,-7.7689,-7.8536,-8.1157,-8.2786,-8.2328,0.0,0.0,0.0,0.0,0.0,0.0,0.0,-8.3771,-8.3204,-8.3623,-8.3672,-8.2558,-8.1898,-8.1514,-8.1484,0.0,0.0,-7.7453,-7.6833,-7.6886,-7.7137,-7.7802,-7.8285,-7.8147,-7.8746,-7.9365,0.0,0.0,0.0,0.0,0.0,0.0,0.0,0.0,-6.0644,-6.1212,0.0,-6.1579,0.0,0.0,0.0,0.0,0.0,0.0,0.0,0.0,-6.9654,-7.084,-7.1822,-7.3552,-7.4391,-7.4194,-7.5218,-7.5378,-7.4385,-6.9811,0.0,0.0,0.0,0.0,0.0,0.0,-7.3702,-7.5283,-7.6957,-7.8634,-8.0117,-8.0562,-8.1239,-8.2112,-8.1937,-8.1485,-8.0875,-8.0224,-7.8622,-7.5742,-7.4951,0.0,0.0,0.0,0.0,0.0,0.0,0.0,0.0,0.0,0.0,0.0,0.0,0.0,0.0,0.0,0.0,0.0,0.0,0.0,0.0,-7.6076,0.0,0.0,0.0,0.0,0.0,0.0,0.0,0.0,0.0,0.0,-7.5159,-7.7949,-8.0357,-8.1167,0.0,0.0,0.0,0.0,-8.4743,-8.571,-8.5171,-8.4954,-8.5832,-8.5359,-8.4912,-8.4947,0.0,0.0,-8.5077,-8.5078,-8.5039,-8.5039,-8.5686,-8.5254,-8.1929,-8.1275,-8.1415,-8.2114,-8.2832,-8.3343,-8.3308,-8.3617,-8.4107,-6.2588,0.0,0.0,0.0,0.0,-6.2013,-6.2844,-6.3356,-6.4351,-6.4961,-6.5085,-6.4691,0.0,0.0,0.0,0.0,0.0,0.0,-6.9545,-7.0758,-7.2634,-7.3826,-7.4287,-7.5323,-7.5961,-7.6299,-7.6778,-7.7045,-7.7054,-7.5657,-7.3833,-7.1587,0.0,0.0,0.0,0.0,-7.5882,-7.8213,-7.8859,-7.9977,-8.1862,-8.1977,-8.232,-8.2922,-8.2969,-8.2975,-8.2976,-8.1775,-8.0786,-7.9907,-7.766,0.0,0.0,0.0,0.0,0.0,0.0,0.0,0.0,0.0,0.0,0.0,0.0,0.0,0.0,0.0,0.0,0.0,0.0,0.0,-7.8717,-7.9038,-7.8023,0.0,0.0,0.0,0.0,0.0,0.0,0.0,0.0,0.0,-8.0277,-8.1697,-8.2738,0.0,0.0,-8.5885,-8.6001,-8.62,-8.6418,-8.6738,0.0,0.0,0.0,-8.6402,-8.6847,-8.7464,-8.8099,-8.8553,-8.8554,-8.8554,-8.8554,-8.8515,-8.8733,-8.8525,-8.7672,-8.6366,-8.5682,-8.5866,-8.6388,-8.6804,-8.6728,-8.7212,-8.7588,-6.7003,-6.5284,-6.4577,-6.4224,-6.4288,-6.532,-6.6031,-6.6517,-6.7557,-6.7948,-6.8109,-6.7779,-6.7772,-6.8021,-6.802,0.0,0.0,0.0,-7.2199,-7.3098,-7.4669,-7.5621,-7.6133,-7.7029,-7.7735,-7.8283,-7.8512,-7.8992,-7.9501,-7.9575,-7.8962,-7.752,0.0,0.0,-7.5762,-7.6894,-7.8283,-7.9905,-8.0584,-8.1669,-8.3158,-8.3636,-8.4011,-8.4313,-8.4536,-8.4573,-8.4355,-8.3621,-8.2774,-8.1892,-8.0186,-7.8442,0.0,0.0,0.0,0.0,0.0,0.0,0.0,0.0,0.0,0.0,0.0,-6.9093,-7.1582,0.0,0.0,0.0,-7.7993,-7.955,-8.0844,-8.0869,0.0,0.0,0.0,0.0,0.0,0.0,0.0,-7.8837,-8.0833,-8.2663,-8.4108,-8.5241,-8.5705,-8.5127,-8.632,-8.7463,-8.7876,0.0,-8.8211,-8.826,-8.7915,-8.7635,-8.7667,-8.8089,-8.8616,-8.9123,-8.9645,-9.0,-9.0,-9.0,-9.0,-9.0031,-9.0291,-9.0498,-9.0481,-8.9837,-8.9075,-8.8455,-8.8539,-8.8692,-8.8584,-8.8843,-8.904,-7.1189,-7.0926,-6.8402,-6.7489,-6.7883,-6.8111,-6.86,-6.9354,-6.9977,-7.0371,-7.0568,-7.0568,-7.0861,-7.1437,-7.2153,0.0,0.0,-7.3809,-7.4596,-7.4982,-7.5915,-7.6764,-7.7673,-7.8786,-7.9657,-8.0191,-8.0538,-8.1083,-8.1806,-8.1956,-8.2538,-8.3152,-8.008,-7.8171,-7.7667,-7.9609,-8.0688,-8.087,-8.231,-8.3426,-8.4253,-8.5287,-8.5951,-8.6063,-8.632,-8.6101,-8.5373,-8.5404,-8.4515,-8.2553,-8.2417,-8.1132,-7.8301,0.0,0.0,0.0,0.0,0.0,0.0,0.0,0.0,0.0,0.0,0.0,0.0,0.0,0.0,0.0,-8.1715,0.0,-8.167,-8.2208,0.0,0.0,0.0,-7.9738,-7.9085,-7.9759,-8.0729,-8.1801,0.0,0.0,-8.6839,0.0,-8.8794,-8.7342,-8.7895,-8.8745,-8.9699,-8.9806,-8.9898,-8.9935,-8.9969,-8.9984,-8.9906,-9.0106,-9.0195,-9.0273,-9.0195,-9.0312,-9.0312,-9.0312,-9.0234,-9.0309,-9.0867,-9.1375,-9.131,-9.1754,-9.1912,-9.0234,-8.9856,-8.9698,-8.9562,-8.9461,-8.93,-7.149,-7.1424,-7.1026,-7.0633,-7.0302,-7.0402,-7.0633,-7.0996,-7.1128,-7.1425,-7.1622,-7.1622,-7.1914,-7.2362,-7.2928,-7.3379,-7.3638,-7.483,-7.5509,-7.5915,-7.7111,-7.8322,-7.9457,-8.0252,-8.1191,-8.2153,-8.2458,-8.2716,-8.3045,-8.3119,-8.3228,-8.3373,-8.2613,-8.2032,-8.174,-8.2094,-8.267,-8.3434,-8.3982,-8.4786,-8.5809,-8.6101,-8.6247,-8.632,-8.6573,-8.6571,-8.6354,-8.5943,-8.5233,-8.422,-8.3261,-8.2214,-8.0984,-7.9332,0.0,0.0,0.0,0.0,0.0,0.0,0.0,0.0,0.0,-7.4614,-7.7182,0.0,-8.2424,0.0,-8.5209,-8.6094,-8.5901,-8.5478,0.0,0.0,-8.2163,-8.2023,-8.2582,-8.2895,-8.3927,-8.6227,-8.7048,-8.7791,-8.8769,-8.9255,-8.9661,-9.0002,-8.9668,-8.9738,-9.0651,-9.0284,-9.015,-9.075,-9.0452,-9.0257,-9.0889,-9.1552,-9.1953,-9.1992,-9.1953,-9.1992,-9.1992,-9.1992,-9.1992,-9.1988,-9.2077,-9.2198,-9.2093,-9.2206,-9.2126,-9.1665,-9.1488,-9.1339,-9.114,-9.0934,-9.0782,-7.2746,-7.2746,-7.2879,-7.2779,-7.2512,-7.2182,-7.2348,-7.2746,-7.2779,-7.2879,-7.2978,-7.3242,-7.3438,-7.3826,-7.483,-7.5399,-7.5641,-7.6918,-7.7747,-7.8067,-7.892,-8.0007,-8.1059,-8.1497,-8.2219,-8.3034,-8.326,-8.359,-8.4026,-8.4026,-8.4207,-8.4533,-8.4569,-8.4533,-8.4497,-8.4022,-8.4094,-8.4678,-8.5189,-8.5773,-8.6392,-8.6465,-8.6536,-8.6536,-8.6349,-8.6273,-8.6276,-8.5642,-8.5037,-8.4461,-8.4088,-8.3395,-8.2164,-8.1559,-8.003,0.0,0.0,0.0,0.0,0.0,0.0,0.0,0.0,0.0,0.0,0.0,-8.5214,0.0,-8.744,-8.7979,-8.7979,-8.7589,-8.6929,-8.6005,-8.5536,-8.5544,-8.6142,-8.6314,-8.694,-8.855,-8.9118,-8.9605,-9.0146,-9.0547,-9.0984,-9.16,-9.1262,-9.1119,-9.1603,-9.1388,-9.1288,-9.178,-9.1453,-9.131,-9.1818,-9.2262,-9.2578,-9.2578,-9.2578,-9.2578,-9.2578,-9.2574,-9.2603,-9.2585,-9.2546,-9.249,-9.2393,-9.2293,-9.2151,-9.1989,-9.1912,-9.1812,-9.1649,-9.15,-9.1341,-7.4337,-7.4436,-7.4436,-7.4436,-7.4403,-7.3807,-7.3874,-7.4303,-7.4403,-7.4436,-7.4537,-7.5038,-7.527,-7.5402,-7.6979,-7.7725,-7.7946,-7.9281,-8.019,-8.0561,-8.0856,-8.152,-8.2362,-8.26,-8.3025,-8.3474,-8.3734,-8.4171,-8.4823,-8.4859,-8.5221,-8.5873,-8.5909,-8.5948,-8.6063,-8.5555,-8.5228,-8.5228,-8.5992,-8.6465,-8.6465,-8.6644,-8.6749,-8.6749,-8.6119,-8.582,-8.5756,-8.4982,-8.4375,-8.3935,-8.4842,-8.4577,-8.291,-8.3749,-8.3047,0.0,-8.0342,0.0,0.0,0.0,0.0,0.0,0.0,0.0,0.0,-8.5868,-8.7248,-8.8902,-8.9017,-8.8979,-8.8897,-8.8925,-8.892,-8.8836,-8.8868,-8.8999,-8.924,-8.9406,-8.9581,-8.9838,-9.0634,-9.117,-9.1218,-9.1871,-9.2354,-9.2351,-9.2344,-9.2364,-9.249,-9.2468,-9.2482,-9.26,-9.2606,-9.2422,-9.25,-9.2578,-9.2578,-9.2578,-9.2578,-9.2578,-9.2578,-9.2595,-9.2613,-9.2585,-9.2546,-9.244,-9.2393,-9.2254,-9.2093,-9.1835,-9.1721,-9.162,-9.1492,-9.1368,-9.1275,-7.5397,-7.5894,-7.5897,-7.593,-7.5894,-7.579,-7.5459,-7.5098,-7.5662,-7.5894,-7.5894,-7.6575,-7.6843,-7.7109,-7.8026,-7.8759,-7.9166,-7.9852,-8.0333,-8.0856,-8.1449,-8.2216,-8.3147,-8.3738,-8.4408,-8.5026,-8.5327,-8.5511,-8.5656,-8.5656,-8.5728,-8.5909,-8.5982,-8.6096,-8.61,0.0,0.0,0.0,-8.6571,-8.6715,-8.6856,-8.6925,-8.6925,-8.6889,-8.6224,0.0,-8.5741,-8.5013,-8.4404,-8.3977,-8.5051,0.0,0.0,0.0,0.0,0.0,0.0,0.0,0.0,0.0,0.0,0.0,-8.4412,-8.4868,-8.4939,-8.7517,-8.9594,-9.0633,-9.071,-9.0514,-8.9888,-8.9844,-8.9607,-8.8938,-8.9007,-8.9368,-9.0133,-9.0397,-9.081,-9.1606,-9.1887,-9.2065,-9.2107,-9.2351,-9.2461,-9.2471,-9.2537,-9.2592,-9.2592,-9.26,-9.26,-9.2606,-9.2609,-9.2578,-9.2578,-9.2578,-9.2578,-9.2578,-9.2578,-9.2578,-9.259,-9.2574,-9.2592,-9.2546,-9.2479,-9.2391,-9.2276,-9.2113,-9.1983,-9.1759,-9.1591,-9.1431,-9.1336,-9.1341,-9.1275,-7.5993,0.0,-7.6324,-7.6324,0.0,-7.6677,-7.6611,-7.6324,-7.6291,-7.6428,-7.6532,-7.7009,-7.738,-7.7779,-7.8865,-7.9737,-8.0328,-8.1255,-8.2015,-8.2531,-8.3034,-8.3656,-8.4414,-8.4763,-8.5211,-8.5685,-8.5833,-8.5909,-8.5909,-8.5948,-8.5987,-8.5987,-8.6207,-8.6319,-8.6392,-8.6715,-8.6822,-8.6856,-8.6856,-8.6925,-8.7031,-8.7031,-8.7031,-8.6995,0.0,0.0,0.0,0.0,0.0,0.0,0.0,0.0,0.0,0.0,0.0,-8.6042,-8.5399,-8.4937,-8.4698,-8.5147,-8.5791,-8.6632,-8.7445,-8.7825,-8.7401,-8.9325,-9.071,-9.1133,-9.1206,-9.1087,-9.073,-9.0757,-9.0698,-9.0325,-9.0383,-9.0687,-9.1175,-9.1394,-9.1659,-9.2143,-9.2323,-9.2393,-9.2444,-9.249,-9.252,-9.2537,-9.2592,-9.2574,-9.2599,-9.2603,-9.2603,-9.2603,-9.2574,-9.2578,-9.2578,-9.2578,-9.2578,-9.2578,-9.2578,-9.2578,-9.2574,-9.2585,-9.2529,-9.251,-9.2417,-9.2323,-9.2204,-9.2032,-9.1824,-9.1638,-9.15,-9.1341,-9.1275,-9.1241,-9.1241,-7.6589,-7.6722,-7.6749,-7.6716,-7.6755,-7.7338,-7.7569,-7.755,0.0,0.0,0.0,-7.7478,-7.7984,-7.8613,-7.9933,-8.0869,-8.1492,-8.2715,-8.3697,-8.429,-8.4574,-8.506,-8.5495,-8.5572,-8.5685,-8.5909,-8.5909,-8.5873,-8.5948,-8.6026,-8.61,-8.6174,-8.6393,-8.6538,-8.6786,-8.6925,-8.7031,-8.7031,-8.7031,-8.7031,-8.7031,-8.7031,-8.7031,-8.7031,-8.6224,-8.5925,-8.6103,-8.5353,-8.516,-8.5641,-8.6777,-8.736,-8.721,-8.8217,-8.8695,-8.8461,-8.8424,-8.8495,-8.8671,-8.8671,-8.8782,-8.8892,-8.9671,-9.0059,-8.994,-9.071,-9.121,-9.1245,-9.1275,-9.1308,-9.1341,-9.15,-9.1659,-9.1716,-9.1812,-9.1897,-9.2049,-9.213,-9.2176,-9.2308,-9.2366,-9.2456,-9.2468,-9.252,-9.2546,-9.26,-9.2574,-9.2595,-9.2578,-9.2578,-9.2578,-9.2578,-9.2578,-9.2578,-9.2578,-9.2578,-9.2578,-9.2578,-9.2578,-9.2609,-9.258,-9.2576,-9.25,-9.2461,-9.2354,-9.2254,-9.219,-9.2122,-9.1902,-9.1745,-9.1753,-9.1737,-9.1668,-9.1672,-9.1595,-7.7616,-7.8212,-7.8246,-7.8212,-7.8212,-7.8345,-7.8378,-7.8378,-7.8246,-7.8319,-7.8636,-7.9157,-7.987,-8.0531,-8.1405,-8.2222,-8.2979,-8.3748,-8.4242,0.0,-8.5139,-8.5417,-8.5495,-8.5721,-8.5873,-8.5909,-8.5909,-8.5948,-8.6026,-8.61,-8.6174,-8.6356,-8.6575,-8.6719,-8.6925,-8.6995,-8.7031,-8.7031,-8.7031,-8.7031,-8.7031,-8.7031,-8.7031,-8.6958,-8.6224,-8.5894,-8.6082,-8.5427,-8.5263,-8.5751,-8.7114,-8.7976,-8.8301,-8.8918,-8.9259,-8.9343,-8.8842,-8.8567,-8.8709,-8.8671,-8.8979,-8.971,-9.0517,-9.071,-9.0017,-9.071,-9.1245,-9.1275,-9.1308,-9.1374,-9.15,-9.1659,-9.1744,-9.1825,-9.1936,-9.2088,-9.211,-9.2204,-9.2299,-9.2299,-9.2405,-9.249,-9.251,-9.2561,-9.2585,-9.258,-9.2599,-9.2578,-9.2578,-9.2578,-9.2578,-9.2578,-9.2578,-9.2578,-9.2578,-9.2578,-9.2578,-9.2578,-9.2617,-9.2702,-9.2707,-9.2748,-9.2685,-9.2495,-9.2479,-9.2325,-9.2205,-9.2444,-9.2644,-9.262,-9.2955,-9.3316,-9.3172,-9.3172,-9.2826,-7.8212,-7.8511,-7.8511,-7.8511,-7.8511,-7.8511,-7.8511,-7.8511,-7.8617,-7.8936,-7.9284,-7.9768,-8.0476,-8.1131,-8.1955,-8.2691,-8.3437,-8.4074,-8.4574,-8.49,-8.5339,-8.5572,-8.5721,-8.5873,-8.5909,-8.5909,-8.6024,-8.6062,-8.61,-8.632,-8.6465,-8.6573,-8.6788,-8.6929,-8.7031,-8.7031,-8.7031,-8.7031,-8.7031,-8.7031,-8.7031,-8.7031,-8.7031,-8.7031,-8.6696,-8.666,-8.6885,-8.6759,-8.6892,-8.7356,-8.821,-8.8885,-8.9318,-8.973,-9.0026,-9.0302,-9.0032,-8.9912,-9.0056,-9.0056,-9.021,-9.0594,-9.0979,-9.1091,-9.0702,-9.101,-9.1275,-9.1308,-9.1374,-9.1539,-9.1659,-9.1716,-9.1825,-9.1936,-9.2066,-9.2151,-9.219,-9.2254,-9.2313,-9.2341,-9.2429,-9.25,-9.25,-9.2553,-9.2595,-9.2603,-9.2578,-9.2617,-9.2617,-9.2617,-9.2617,-9.2578,-9.2578,-9.2578,-9.2617,-9.2578,-9.2578,-9.2606,-9.3009,-9.3224,-9.3309,-9.3525,-9.377,-9.3716,-9.3605,-9.3452,-9.327,-9.3397,-9.3454,-9.3412,-9.3543,-9.3782,-9.371,-9.3672,-9.3403,-7.8511,-7.8511,-7.8511,-7.8511,-7.8511,-7.8511,-7.8511,-7.8617,-7.8936,-7.9251,-7.9596,-8.0107,-8.0774,-8.1517,-8.2234,-8.2961,-8.3662,-8.4409,-8.49,-8.5297,-8.5495,-8.5721,-8.5909,-8.5909,-8.5873,-8.5948,-8.6062,-8.6174,-8.6247,-8.6536,-8.6679,-8.6786,-8.6925,-8.7031,-8.7031,-8.7031,-8.7031,-8.7031,-8.7031,-8.7031,-8.7031,-8.7031,-8.7031,-8.6995,-8.72,-8.7347,-8.7531,-8.7868,-8.8309,-8.8753,-8.9249,-8.9692,-9.0067,-9.0389,-9.0681,-9.0877,-9.0991,-9.11,-9.121,-9.121,-9.121,-9.121,-9.1245,-9.1241,-9.1308,-9.1341,-9.1374,-9.1374,-9.15,-9.1659,-9.1744,-9.1812,-9.1951,-9.2088,-9.2112,-9.219,-9.2293,-9.2338,-9.2341,-9.2417,-9.2461,-9.251,-9.252,-9.2585,-9.2702,-9.289,-9.289,-9.2929,-9.3125,-9.3164,-9.3203,-9.3164,-9.3047,-9.3086,-9.3086,-9.3242,-9.327,-9.3192,-9.3724,-9.406,-9.4188,-9.4589,-9.4816,-9.4635,-9.4542,-9.4327,-9.4265,-9.4326,-9.4287,-9.4232,-9.4321,-9.4403,-9.4441,-9.4441,-9.4095,-7.8511,-7.8511,-7.8511,-7.8511,-7.8511,-7.8511,-7.8617,-7.8936,-7.9179,-7.9699,-8.0107,-8.041,-8.1166,-8.2083,-8.2816,-8.3437,-8.4123,-8.4819,-8.5297,-8.5495,-8.5721,-8.5873,-8.5909,-8.5909,-8.5912,-8.6026,-8.61,-8.632,-8.6608,-8.6679,-8.6786,-8.6925,-8.7031,-8.7031,-8.7031,-8.7031,-8.7031,-8.7031,-8.7031,-8.7031,-8.7031,-8.7031,-8.7031,-8.7031,-8.7237,-8.7335,-8.7505,-8.7984,-8.85,-8.8941,-8.944,-8.9935,-9.034,-9.0679,-9.0877,-9.0991,-9.11,-9.121,-9.121,-9.121,-9.121,-9.121,-9.1275,-9.127,-9.1308,-9.1438,-9.157,-9.16,-9.1659,-9.1705,-9.1786,-9.1936,-9.2088,-9.2092,-9.219,-9.2293,-9.2299,-9.2341,-9.2417,-9.251,-9.2549,-9.2529,-9.2663,-9.2763,-9.302,-9.3711,-9.3789,-9.3984,-9.4531,-9.4687,-9.4765,-9.4726,-9.4336,-9.4179,-9.4608,-9.4942,-9.4721,-9.4786,-9.4918,-9.4968,-9.4952,-9.4885,-9.4829,-9.5164,-9.47,-9.4601,-9.4549,-9.4589,-9.5041,-9.5084,-9.5399,-9.5942,-9.6019,-9.5903,-9.5403,-7.8511,-7.8511,-7.8511,-7.8511,-7.8511,-7.8617,-7.883,-7.8936,-7.9562,-8.0107,-8.051,-8.097,-8.1612,-8.2326,-8.305,-8.3783,-8.4409,-8.498,-8.5297,-8.5495,-8.5797,-8.5909,-8.5909,-8.6024,-8.6062,-8.61,-8.632,-8.6536,-8.6715,-8.6856,-8.6925,-8.7031,-8.7031,-8.7031,-8.7031,-8.7031,-8.7031,-8.7031,-8.7031,-8.7031,-8.7031,-8.7031,-8.7064,-8.7132,-8.7335,-8.7542,-8.785,-8.8269,-8.8786,-8.92,-8.9676,-9.0075,-9.0432,-9.0719,-9.0915,-9.1028,-9.1139,-9.121,-9.121,-9.121,-9.121,-9.121,-9.1275,-9.1336,-9.1336,-9.1531,-9.1687,-9.1744,-9.1732,-9.1825,-9.1975,-9.2028,-9.2112,-9.2187,-9.2254,-9.2313,-9.2405,-9.244,-9.2461,-9.2559,-9.3006,-9.3326,-9.3426,-9.3845,-9.4252,-9.4609,-9.4687,-9.4844,-9.5195,-9.5195,-9.5429,-9.5766,-9.5563,-9.529,-9.5329,-9.5196,-9.5208,-9.523,-9.5504,-9.5783,-9.5704,-9.6053,-9.6157,-9.5942,-9.5725,-9.5554,-9.5599,-9.5649,-9.5893,-9.5899,-9.5901,-9.6288,-9.6288,-9.6288,-9.5865,-7.8511,-7.8511,-7.8511,-7.8511,-7.8617,-7.883,-7.9041,-7.9355,-7.9972,-8.041,-8.0906,-8.1551,-8.2083,-8.2691,-8.3314,-8.4039,-8.4656,-8.5139,-8.5375,-8.5608,-8.5797,-8.5873,-8.5912,-8.6062,-8.6174,-8.632,-8.6536,-8.6715,-8.6786,-8.6925,-8.7031,-8.7031,-8.7031,-8.7031,-8.7031,-8.7031,-8.7031,-8.7031,-8.7031,-8.7105,-8.7358,-8.7394,-8.7353,-8.7341,-8.7756,-8.8109,-8.8368,-8.9048,-8.9646,-9.0066,-9.0514,-9.0898,-9.1246,-9.1489,-9.1567,-9.141,-9.129,-9.121,-9.121,-9.121,-9.121,-9.1206,-9.127,-9.1368,-9.1462,-9.162,-9.1798,-9.1863,-9.1863,-9.1936,-9.2088,-9.2132,-9.2226,-9.2299,-9.2313,-9.2471,-9.2802,-9.2861,-9.2988,-9.3231,-9.388,-9.4253,-9.4309,-9.4765,-9.5156,-9.5469,-9.5547,-9.5703,-9.582,-9.5976,-9.6157,-9.6667,-9.6738,-9.6511,-9.6003,-9.6035,-9.5855,-9.5915,-9.638,-9.6589,-9.6443,-9.6896,-9.706,-9.6437,-9.6658,-9.6622,-9.615,-9.624,-9.6358,-9.6325,-9.6288,-9.6288,-9.6288,-9.6288,-9.6288,-7.8511,-7.8511,-7.8511,-7.8617,-7.8936,-7.8936,-7.9355,-8.0107,-8.0209,-8.061,-8.1393,-8.193,-8.2453,-8.3208,-8.3697,-8.4242,-8.49,-8.5261,-8.5608,-8.5873,-8.5909,-8.5948,-8.61,-8.61,-8.632,-8.6608,-8.6715,-8.6786,-8.6962,-8.6995,-8.7031,-8.7031,-8.7031,-8.7031,-8.7031,-8.7031,-8.7031,-8.7105,-8.7105,-8.7468,-8.8336,-8.8446,-8.8078,-8.763,-8.8572,-8.922,-8.9378,-9.061,-9.1483,-9.1748,-9.2222,-9.2672,-9.3016,-9.3255,-9.3062,-9.2444,-9.171,-9.1248,-9.1287,-9.1364,-9.136,-9.1352,-9.1567,-9.1539,-9.1881,-9.2003,-9.2134,-9.2144,-9.2282,-9.2304,-9.2306,-9.2438,-9.244,-9.2508,-9.251,-9.2947,-9.369,-9.3768,-9.4159,-9.4739,-9.5027,-9.5207,-9.5194,-9.5156,-9.5703,-9.6211,-9.6445,-9.664,-9.7148,-9.7403,-9.7454,-9.7487,-9.7558,-9.7571,-9.755,-9.7213,-9.729,-9.721,-9.6993,-9.7271,-9.7188,-9.7121,-9.6928,-9.6774,-9.6629,-9.6497,-9.6394,-9.6358,-9.6325,-9.6288,-9.6288,-9.6288,-9.6288,-9.6288,-9.6288,-7.8511,-7.8511,-7.8724,-7.8797,-7.8936,-7.9355,-7.9768,-8.0209,-8.061,-8.1102,-8.1646,-8.2269,-8.2906,-8.3437,-8.4207,-8.4702,-8.5139,-8.5339,-8.5685,-8.5873,-8.5987,-8.6062,-8.61,-8.632,-8.6536,-8.6679,-8.6856,-8.6925,-8.7031,-8.7031,-8.7031,-8.7031,-8.7031,-8.7031,-8.7031,-8.7031,-8.7321,-8.7867,-8.7973,-8.8446,-8.9387,-8.9662,-8.9646,-8.9387,-8.9776,-9.0317,-9.0699,-9.1414,-9.1922,-9.226,-9.2748,-9.3038,-9.3289,-9.3563,-9.3559,-9.3287,-9.2979,-9.2787,-9.2787,-9.2896,-9.2931,-9.2965,-9.3122,-9.3166,-9.3291,-9.3452,-9.3597,-9.3664,-9.3804,-9.386,-9.3795,-9.3453,-9.338,-9.3913,-9.4078,-9.4207,-9.4558,-9.4669,-9.4856,-9.5222,-9.5641,-9.6207,-9.6601,-9.6797,-9.6914,-9.7187,-9.7265,-9.7383,-9.7559,-9.7689,-9.7675,-9.7675,-9.7675,-9.7675,-9.7636,-9.7659,-9.7661,-9.7552,-9.7426,-9.7227,-9.7082,-9.6954,-9.6803,-9.6622,-9.6429,-9.6432,-9.6361,-9.6325,-9.6288,-9.6288,-9.6288,-9.6288,-9.6288,-9.6288,-9.6288,-7.8511,-7.8617,-7.883,-7.9041,-7.9251,-7.9596,-8.0107,-8.051,-8.0872,-8.1359,-8.1896,-8.2635,-8.3173,-8.3576,-8.4456,-8.498,-8.5218,-8.5531,-8.5761,-8.5948,-8.6026,-8.6174,-8.632,-8.6536,-8.6715,-8.6786,-8.6925,-8.7031,-8.7031,-8.7031,-8.7031,-8.7031,-8.7031,-8.7178,-8.7329,-8.7468,-8.7941,-8.8704,-8.8956,-8.9461,-9.0469,-9.0741,-9.1147,-9.1522,-9.1597,-9.1633,-9.192,-9.2501,-9.3012,-9.3343,-9.3721,-9.405,-9.4292,-9.4176,-9.4095,-9.4095,-9.3826,-9.371,-9.3746,-9.3855,-9.3924,-9.3985,-9.4103,-9.422,-9.433,-9.4467,-9.4617,-9.4699,-9.4829,-9.4987,-9.5172,-9.4849,-9.4679,-9.5026,-9.5065,-9.5222,-9.548,-9.5563,-9.5758,-9.6075,-9.6557,-9.7109,-9.7539,-9.7656,-9.7656,-9.7695,-9.7693,-9.7676,-9.7689,-9.7675,-9.7706,-9.7706,-9.7659,-9.7641,-9.7583,-9.7589,-9.7616,-9.7511,-9.7342,-9.7143,-9.6979,-9.6831,-9.6692,-9.6497,-9.6397,-9.6361,-9.6325,-9.6288,-9.6288,-9.6288,-9.6288,-9.6288,-9.6288,-9.6288,-9.6288,-7.8617,-7.8936,-7.8936,-7.9251,-7.9699,-7.9801,-8.0309,-8.0872,-8.1131,-8.1612,-8.2211,-8.2851,-8.335,-8.3748,-8.462,-8.506,-8.5297,-8.5721,-8.5912,-8.61,-8.61,-8.632,-8.6608,-8.6715,-8.6856,-8.6925,-8.6995,-8.7031,-8.7031,-8.7031,-8.7031,-8.7068,-8.7142,-8.7545,-8.8212,-8.8419,-8.8888,-8.9583,-8.9972,-9.058,-9.1511,-9.1752,-9.2405,-9.3492,-9.3723,-9.3405,-9.2824,-9.3963,-9.4703,-9.5013,-9.538,-9.5862,-9.5905,-9.5403,-9.498,-9.4864,-9.4249,-9.39,-9.4044,-9.4121,-9.4293,-9.4481,-9.4346,-9.4628,-9.4878,-9.4868,-9.4951,-9.518,-9.5206,-9.5406,-9.6148,-9.6274,-9.6022,-9.5329,-9.5417,-9.5709,-9.6222,-9.6476,-9.6797,-9.7344,-9.7539,-9.7656,-9.7695,-9.7695,-9.7695,-9.7695,-9.7676,-9.7689,-9.7675,-9.7675,-9.7698,-9.768,-9.7632,-9.7572,-9.7552,-9.7496,-9.7496,-9.7465,-9.7266,-9.7091,-9.6875,-9.6706,-9.6558,-9.6394,-9.6361,-9.6363,-9.6325,-9.6288,-9.6288,-9.6288,-9.6288,-9.6288,-9.6288,-9.6288,-9.6288,-7.8936,-7.9284,-7.9459,-7.9596,-7.9801,-8.0006,-8.041,-8.1005,-8.1262,-8.1802,-8.2544,-8.3138,-8.3697,-8.4326,-8.5024,-8.5417,-8.5648,-8.606,-8.6209,-8.6174,-8.6392,-8.6536,-8.6715,-8.6856,-8.6925,-8.6995,-8.7031,-8.7031,-8.7031,-8.7031,-8.7215,-8.7725,-8.7941,-8.8483,-8.9214,-8.943,-9.0009,-9.0846,-9.1091,-9.1659,-9.2662,-9.3015,-9.347,-9.3835,-9.4273,-9.4378,-9.4205,-9.4642,-9.5105,-9.5446,-9.5696,-9.5981,-9.6174,-9.6057,-9.5903,-9.5865,-9.5672,-9.5516,-9.5585,-9.5682,-9.5741,-9.6,-9.6127,-9.6291,-9.6383,-9.641,-9.6503,-9.6663,-9.6731,-9.6967,-9.7171,-9.727,-9.7085,-9.6909,-9.6886,-9.6891,-9.7148,-9.7265,-9.7422,-9.7617,-9.7695,-9.7695,-9.7695,-9.7695,-9.7695,-9.7676,-9.7689,-9.7675,-9.7675,-9.7698,-9.7689,-9.7641,-9.7572,-9.7526,-9.7442,-9.736,-9.7305,-9.7227,-9.7114,-9.6967,-9.6764,-9.6615,-9.6459,-9.6358,-9.6325,-9.6288,-9.6288,-9.6288,-9.6288,-9.6288,-9.6288,-9.6288,-9.6288,-9.6288,-9.6288,-7.9251,-7.9596,-7.9699,-7.9904,-8.0006,-8.0175,-8.0576,-8.097,-8.1421,-8.2083,-8.2781,-8.3489,-8.4123,-8.4738,-8.5339,-8.5725,-8.5987,-8.6356,-8.6429,-8.632,-8.6573,-8.6715,-8.6786,-8.6925,-8.7031,-8.7031,-8.7031,-8.7031,-8.7031,-8.7325,-8.7725,-8.8267,-8.8741,-8.9362,-9.0193,-9.0446,-9.1061,-9.1832,-9.2171,-9.2625,-9.3252,-9.3695,-9.3932,-9.4199,-9.4583,-9.4844,-9.4996,-9.5143,-9.5333,-9.5604,-9.59,-9.6136,-9.6288,-9.6288,-9.6288,-9.6288,-9.6325,-9.6358,-9.6459,-9.6513,-9.6744,-9.6953,-9.7106,-9.7204,-9.7245,-9.736,-9.7465,-9.755,-9.7565,-9.7678,-9.7661,-9.768,-9.768,-9.7671,-9.762,-9.7706,-9.7695,-9.7695,-9.7695,-9.7695,-9.7695,-9.7695,-9.7695,-9.7689,-9.768,-9.7682,-9.7675,-9.7706,-9.7698,-9.7641,-9.7632,-9.7572,-9.7526,-9.7457,-9.736,-9.7266,-9.7099,-9.7004,-9.6941,-9.6803,-9.6653,-9.6525,-9.6394,-9.6361,-9.6288,-9.6288,-9.6288,-9.6288,-9.6288,-9.6288,-9.6288,-9.6288,-9.6288,-9.6288,-9.6288,-7.9596,-7.9801,-7.9801,-8.0006,-8.0209,-8.051,-8.0808,-8.1102,-8.1707,-8.2361,-8.2996,-8.3783,-8.4456,-8.4944,-8.5572,-8.5951,-8.6174,-8.6538,-8.6681,-8.6752,-8.6752,-8.6822,-8.6962,-8.7031,-8.7031,-8.7031,-8.7105,-8.7142,-8.7252,-8.7912,-8.8419,-8.8814,-8.9546,-9.0278,-9.1111,-9.1468,-9.1973,-9.2595,-9.3007,-9.3326,-9.3672,-9.3852,-9.4142,-9.4567,-9.4741,-9.4996,-9.5333,-9.5554,-9.5648,-9.5776,-9.6098,-9.6251,-9.6288,-9.6288,-9.6288,-9.6288,-9.6358,-9.6459,-9.659,-9.6714,-9.6887,-9.713,-9.7199,-9.7284,-9.7377,-9.7465,-9.7511,-9.7591,-9.7639,-9.771,-9.768,-9.7698,-9.7675,-9.7682,-9.7695,-9.7676,-9.7695,-9.7695,-9.7695,-9.7695,-9.7695,-9.7695,-9.7695,-9.7695,-9.7689,-9.7675,-9.7675,-9.7706,-9.7641,-9.7622,-9.755,-9.7513,-9.7457,-9.736,-9.7245,-9.7114,-9.6928,-9.6793,-9.6744,-9.6622,-9.6525,-9.6463,-9.6397,-9.6325,-9.6288,-9.6288,-9.6288,-9.6288,-9.6288,-9.6288,-9.6288,-9.6288,-9.6288,-9.6288,-9.6288,-7.9904,-8.0107,-8.0107,-8.0107,-8.0209,-8.051,-8.0872,-8.1228,-8.1802,-8.26,-8.3314,-8.3954,-8.462,-8.5339,-8.5801,-8.6174,-8.6573,-8.6786,-8.6962,-8.6962,-8.6925,-8.6962,-8.7031,-8.7031,-8.7031,-8.7105,-8.7545,-8.7876,-8.7949,-8.8823,-8.9588,-9.0315,-9.0674,-9.1431,-9.2224,-9.2476,-9.2728,-9.3044,-9.3312,-9.3587,-9.3852,-9.4142,-9.4421,-9.4741,-9.4946,-9.5239,-9.5554,-9.5856,-9.5979,-9.6019,-9.6174,-9.6288,-9.6288,-9.6288,-9.6363,-9.6397,-9.6394,-9.6531,-9.6723,-9.6831,-9.6993,-9.7199,-9.7304,-9.736,-9.7465,-9.7511,-9.7604,-9.7639,-9.771,-9.768,-9.7698,-9.7675,-9.7695,-9.7687,-9.7695,-9.7695,-9.7695,-9.7695,-9.7695,-9.7695,-9.7695,-9.7695,-9.7676,-9.7695,-9.7675,-9.7675,-9.7675,-9.7659,-9.7632,-9.7561,-9.7526,-9.7442,-9.736,-9.7245,-9.7091,-9.6941,-9.6774,-9.6622,-9.6525,-9.6459,-9.6429,-9.6397,-9.6325,-9.6326,-9.6288,-9.6288,-9.6288,-9.6288,-9.6288,-9.6288,-9.6288,-9.6288,-9.6288,-9.6288,-9.6288,-8.0107,-8.0209,-8.0209,-8.0309,-8.041,-8.061,-8.1068,-8.1517,-8.2176,-8.2906,-8.3697,-8.429,-8.4944,-8.5725,-8.61,-8.6465,-8.6786,-8.6925,-8.7031,-8.7031,-8.7031,-8.7031,-8.7031,-8.7031,-8.7178,-8.7545,-8.8056,-8.8492,-8.8934,-8.9878,-9.0642,-9.1148,-9.1727,-9.2269,-9.2765,-9.2979,-9.3082,-9.3275,-9.3526,-9.3792,-9.399,-9.4366,-9.4636,-9.4895,-9.5191,-9.5471,-9.5814,-9.6058,-9.6213,-9.6174,-9.6251,-9.6288,-9.6288,-9.6288,-9.6325,-9.6394,-9.6463,-9.6629,-9.6812,-9.6967,-9.7076,-9.7245,-9.7377,-9.7481,-9.7539,-9.7616,-9.7639,-9.77,-9.768,-9.7698,-9.7675,-9.7701,-9.7684,-9.7695,-9.7695,-9.7695,-9.7695,-9.7695,-9.7695,-9.7689,-9.7684,-9.7684,-9.7695,-9.7689,-9.7667,-9.7698,-9.7659,-9.7632,-9.755,-9.7526,-9.7472,-9.7377,-9.7266,-9.7137,-9.6967,-9.6803,-9.6653,-9.6492,-9.6429,-9.6358,-9.6322,-9.6325,-9.6325,-9.6288,-9.6288,-9.6288,-9.6288,-9.6288,-9.6288,-9.6288,-9.6288,-9.6288,-9.6288,-9.6288,-9.6288,-8.0209,-8.0209,-8.0209,-8.041,-8.061,-8.0906,-8.1262,-8.1802,-8.2544,-8.3262,-8.3954,-8.462,-8.5339,-8.61,-8.632,-8.6644,-8.6995,-8.6995,-8.7031,-8.7031,-8.7031,-8.7031,-8.7031,-8.7252,-8.7545,-8.8166,-8.8488,-8.9219,-8.9951,-9.0864,-9.1438,-9.1764,-9.235,-9.2744,-9.3016,-9.3146,-9.3211,-9.3364,-9.3672,-9.4027,-9.4217,-9.4583,-9.4844,-9.5143,-9.5471,-9.5772,-9.6019,-9.6213,-9.6288,-9.6288,-9.6288,-9.6288,-9.6288,-9.6288,-9.6397,-9.6463,-9.6558,-9.6714,-9.6887,-9.7091,-9.7245,-9.7377,-9.7481,-9.7539,-9.7589,-9.765,-9.7661,-9.768,-9.7698,-9.7675,-9.7701,-9.7689,-9.7695,-9.7695,-9.7695,-9.7695,-9.7694,-9.7694,-9.7689,-9.7695,-9.7682,-9.7695,-9.7701,-9.7695,-9.7698,-9.765,-9.7632,-9.7561,-9.7513,-9.7447,-9.7355,-9.7284,-9.7176,-9.7057,-9.6859,-9.6653,-9.6564,-9.6429,-9.6358,-9.6325,-9.6325,-9.6288,-9.6288,-9.6288,-9.6288,-9.6288,-9.6288,-9.6288,-9.6288,-9.6288,-9.6288,-9.6288,-9.6288,-9.6288,-9.6288,-8.0209,-8.0209,-8.0209,-8.041,-8.0709,-8.1034,-8.1517,-8.2083,-8.2851,-8.3524,-8.4207,-8.49,-8.5495,-8.61,-8.6465,-8.6749,-8.6995,-8.7031,-8.7031,-8.7031,-8.7031,-8.7031,-8.7178,-8.7619,-8.8092,-8.8709,-8.9845,-9.0504,-9.1048,-9.1771,-9.2357,-9.2461,-9.2699,-9.2951,-9.3146,-9.3211,-9.3426,-9.3672,-9.3873,-9.4161,-9.4545,-9.4793,-9.5045,-9.5463,-9.5814,-9.5979,-9.6098,-9.6251,-9.6288,-9.6288,-9.6288,-9.6325,-9.6397,-9.6358,-9.6463,-9.6629,-9.6723,-9.687,-9.7067,-9.7225,-9.7342,-9.7465,-9.7525,-9.7616,-9.765,-9.77,-9.7671,-9.7698,-9.7675,-9.7701,-9.7689,-9.7694,-9.7695,-9.7695,-9.7684,-9.7706,-9.7701,-9.7701,-9.7701,-9.7706,-9.7689,-9.7675,-9.7689,-9.7706,-9.768,-9.7632,-9.7561,-9.7513,-9.7433,-9.7349,-9.7227,-9.7137,-9.7044,-9.6909,-9.6714,-9.6525,-9.6463,-9.6358,-9.6325,-9.6288,-9.6288,-9.6288,-9.6288,-9.6288,-9.6288,-9.6288,-9.6288,-9.6288,-9.6288,-9.6288,-9.6288,-9.6288,-9.6288,-9.6288,-9.6251,-8.0309,-8.041,-8.0376,-8.0675,-8.1166,-8.1421,-8.1896,-8.2635,-8.3297,-8.3869,-8.4538,-8.5182,-8.5725,-8.6247,-8.6573,-8.6786,-8.6925,-8.7031,-8.7031,-8.7031,-8.7031,-8.7284,-8.7867,-8.8456,-8.9003,-8.9325,-9.0494,-9.137,-9.1956,-9.2424,-9.2818,-9.2855,-9.3016,-9.3082,-9.3275,-9.3364,-9.3672,-9.3911,-9.4161,-9.4492,-9.4793,-9.5094,-9.5379,-9.5772,-9.6019,-9.6098,-9.6213,-9.6251,-9.6325,-9.6361,-9.6361,-9.6397,-9.6429,-9.6459,-9.6629,-9.6753,-9.6859,-9.6993,-9.7143,-9.7323,-9.7426,-9.7525,-9.7616,-9.7671,-9.7698,-9.7698,-9.7689,-9.7675,-9.7706,-9.7687,-9.7695,-9.7687,-9.7684,-9.768,-9.7672,-9.7695,-9.7682,-9.7675,-9.7682,-9.7695,-9.7675,-9.7659,-9.765,-9.7661,-9.7628,-9.7565,-9.7486,-9.7426,-9.7321,-9.7266,-9.7126,-9.7018,-9.6919,-9.6738,-9.6564,-9.6429,-9.6397,-9.6325,-9.6288,-9.6288,-9.6288,-9.6288,-9.6288,-9.6288,-9.6288,-9.6288,-9.6288,-9.6288,-9.6288,-9.6288,-9.6288,-9.6288,-9.6251,-9.6251,-9.6213,-8.0376,-8.0675,-8.0675,-8.1166,-8.1707,-8.1802,-8.2361,-8.3208,-8.3819,-8.4373,-8.5024,-8.5572,-8.6026,-8.6392,-8.6644,-8.6856,-8.6962,-8.7031,-8.7031,-8.7031,-8.71,-8.7573,-8.8372,-8.9177,-8.9873,-9.0057,-9.1148,-9.2054,-9.2566,-9.2885,-9.3054,-9.3054,-9.3146,-9.3338,-9.3464,-9.3672,-9.3932,-9.4199,-9.4492,-9.4844,-9.4996,-9.5333,-9.5691,-9.6019,-9.6098,-9.6213,-9.6251,-9.6288,-9.6361,-9.6394,-9.6429,-9.6463,-9.6492,-9.6558,-9.6714,-9.6841,-9.6954,-9.7121,-9.7246,-9.741,-9.7525,-9.7616,-9.7661,-9.7706,-9.7695,-9.7701,-9.7701,-9.7676,-9.7691,-9.7693,-9.7693,-9.768,-9.7695,-9.7689,-9.7706,-9.7701,-9.7682,-9.7667,-9.7667,-9.7667,-9.7659,-9.7641,-9.7611,-9.7577,-9.75,-9.7442,-9.7394,-9.7323,-9.7245,-9.7121,-9.7028,-9.6887,-9.6769,-9.6647,-9.6467,-9.6394,-9.6325,-9.6288,-9.6288,-9.6288,-9.6288,-9.6288,-9.6288,-9.6288,-9.6288,-9.6288,-9.6288,-9.6288,-9.6288,-9.6288,-9.6288,-9.6288,-9.6251,-9.6136,-9.6098,-8.0774,-8.1131,-8.1131,-8.1517,-8.2083,-8.2453,-8.2961,-8.3489,-8.4242,-8.4819,-8.5417,-8.5876,-8.6247,-8.6608,-8.6856,-8.6995,-8.7031,-8.7031,-8.6995,-8.7064,-8.7169,-8.771,-8.8588,-8.9602,-9.0439,-9.1283,-9.2017,-9.267,-9.2914,-9.3082,-9.3146,-9.3211,-9.3338,-9.3526,-9.3732,-9.3911,-9.4217,-9.4492,-9.4793,-9.5045,-9.5333,-9.5598,-9.5814,-9.6098,-9.6213,-9.6251,-9.6288,-9.6361,-9.6394,-9.6429,-9.6629,-9.6714,-9.6735,-9.6774,-9.6887,-9.7043,-9.7143,-9.7246,-9.741,-9.7525,-9.7616,-9.7661,-9.7689,-9.7706,-9.7695,-9.7684,-9.7693,-9.7695,-9.7689,-9.7701,-9.7695,-9.7701,-9.7701,-9.7689,-9.7682,-9.7675,-9.7689,-9.7641,-9.7602,-9.7593,-9.7622,-9.7611,-9.7526,-9.7472,-9.741,-9.7342,-9.7266,-9.7204,-9.7114,-9.7043,-9.6902,-9.6783,-9.6647,-9.6509,-9.6363,-9.6325,-9.6288,-9.6288,-9.6288,-9.6288,-9.6288,-9.6288,-9.6288,-9.6288,-9.6288,-9.6288,-9.6288,-9.6288,-9.6288,-9.6288,-9.6288,-9.6251,-9.6174,-9.6098,-9.5979,-8.1166,-8.1551,-8.1723,-8.2163,-8.267,-8.3155,-8.3682,-8.4123,-8.4819,-8.5297,-8.5725,-8.6174,-8.6465,-8.6715,-8.6925,-8.7031,-8.7031,-8.7031,-8.7064,-8.7132,-8.7274,-8.7844,-8.879,-8.9802,-9.0749,-9.1631,-9.2439,-9.2951,-9.3082,-9.3146,-9.3338,-9.3488,-9.3649,-9.3792,-9.4085,-9.4311,-9.453,-9.4844,-9.5094,-9.5333,-9.5598,-9.5772,-9.5979,-9.6175,-9.6251,-9.6326,-9.6326,-9.6397,-9.6463,-9.6597,-9.6714,-9.6887,-9.6993,-9.7028,-9.7099,-9.7245,-9.7323,-9.7394,-9.7525,-9.7616,-9.7661,-9.7689,-9.7667,-9.7695,-9.7684,-9.7695,-9.7684,-9.7676,-9.768,-9.7695,-9.7682,-9.7695,-9.7682,-9.7706,-9.7667,-9.765,-9.7611,-9.7589,-9.7526,-9.7513,-9.7513,-9.7525,-9.7457,-9.7394,-9.7305,-9.7225,-9.7137,-9.7106,-9.7006,-9.6953,-9.6831,-9.6661,-9.6544,-9.6435,-9.6326,-9.6288,-9.6288,-9.6288,-9.6288,-9.6288,-9.6288,-9.6288,-9.6288,-9.6288,-9.6288,-9.6288,-9.6288,-9.6288,-9.6288,-9.6288,-9.6251,-9.6175,-9.6098,-9.6019,-9.5898,-8.1707,-8.2024,-8.237,-8.2893,-8.342,-8.3803,-8.4313,-8.4819,-8.5375,-8.5725,-8.6026,-8.6465,-8.6679,-8.6786,-8.6925,-8.6995,-8.71,-8.71,-8.7169,-8.7335,-8.7439,-8.7977,-8.8988,-8.9934,-9.0815,-9.1827,-9.2672,-9.3211,-9.3211,-9.3338,-9.3526,-9.3672,-9.3911,-9.4142,-9.4366,-9.4583,-9.4793,-9.5094,-9.5371,-9.5598,-9.5772,-9.5979,-9.6213,-9.6288,-9.6325,-9.6363,-9.6399,-9.6502,-9.6629,-9.6744,-9.6848,-9.7004,-9.7204,-9.7305,-9.7338,-9.7394,-9.7481,-9.7578,-9.7616,-9.7661,-9.7689,-9.7706,-9.7689,-9.7684,-9.7695,-9.7676,-9.7682,-9.7682,-9.7695,-9.7701,-9.7706,-9.7706,-9.765,-9.7632,-9.7602,-9.7563,-9.7513,-9.7457,-9.741,-9.7394,-9.7433,-9.7416,-9.7323,-9.7266,-9.7182,-9.7114,-9.7057,-9.7006,-9.6926,-9.687,-9.6753,-9.6564,-9.6397,-9.6325,-9.6288,-9.6288,-9.6288,-9.6288,-9.6288,-9.6288,-9.6288,-9.6288,-9.6288,-9.6288,-9.6288,-9.6288,-9.6288,-9.6288,-9.6251,-9.6251,-9.6175,-9.6058,-9.5979,-9.5898,-9.5772,-8.2361,-8.3031,-8.304,-8.3508,-8.4074,-8.4409,-8.4864,-8.5339,-8.5648,-8.61,-8.6536,-8.6679,-8.6786,-8.6925,-8.7031,-8.71,-8.7237,-8.7268,-8.7335,-8.7431,-8.7637,-8.8137,-8.8979,-9.0026,-9.0786,-9.1657,-9.2652,-9.3136,-9.3263,-9.3536,-9.3852,-9.3969,-9.4199,-9.4459,-9.4689,-9.4844,-9.5045,-9.5425,-9.5598,-9.5772,-9.6019,-9.6174,-9.6325,-9.6358,-9.6394,-9.6432,-9.654,-9.6635,-9.6774,-9.6837,-9.7037,-9.7206,-9.736,-9.7403,-9.7552,-9.7616,-9.7628,-9.7616,-9.7661,-9.7689,-9.7689,-9.7706,-9.7687,-9.7693,-9.7676,-9.7695,-9.7675,-9.7675,-9.7682,-9.7667,-9.7641,-9.7641,-9.7572,-9.7522,-9.7483,-9.7487,-9.7442,-9.7323,-9.7304,-9.7225,-9.7225,-9.7242,-9.7221,-9.7153,-9.7082,-9.6979,-9.6898,-9.687,-9.6812,-9.6792,-9.6699,-9.6502,-9.6361,-9.6288,-9.6288,-9.6288,-9.6288,-9.6288,-9.6288,-9.6288,-9.6288,-9.6288,-9.6288,-9.6288,-9.6288,-9.6251,-9.6251,-9.6251,-9.6213,-9.6175,-9.6058,-9.6017,-9.5853,-9.5768,-9.5643,-8.3085,-8.3385,-8.3789,-8.4101,-8.4492,-8.5045,-8.5391,-8.5689,-8.61,-8.6465,-8.6715,-8.6856,-8.6925,-8.7031,-8.71,-8.7237,-8.7268,-8.7402,-8.7534,-8.7665,-8.7831,-8.808,-8.8615,-8.9447,-9.028,-9.0926,-9.2007,-9.2863,-9.311,-9.353,-9.399,-9.4311,-9.4476,-9.4689,-9.4946,-9.5143,-9.5371,-9.5598,-9.5772,-9.5979,-9.6213,-9.6325,-9.6358,-9.6394,-9.6459,-9.6569,-9.6674,-9.6783,-9.6902,-9.6988,-9.7207,-9.736,-9.7481,-9.7552,-9.765,-9.7689,-9.7671,-9.768,-9.7698,-9.7667,-9.7672,-9.7695,-9.7687,-9.7672,-9.7701,-9.7689,-9.7706,-9.7689,-9.765,-9.7632,-9.76,-9.755,-9.7513,-9.7447,-9.7408,-9.7333,-9.7323,-9.7242,-9.7169,-9.7082,-9.7031,-9.7057,-9.7057,-9.7031,-9.6979,-9.6926,-9.6841,-9.6783,-9.6692,-9.6597,-9.6569,-9.6432,-9.6361,-9.6288,-9.6288,-9.6288,-9.6288,-9.6288,-9.6288,-9.6288,-9.6288,-9.6288,-9.6288,-9.6251,-9.6213,-9.6213,-9.6174,-9.6136,-9.6136,-9.6058,-9.6019,-9.5856,-9.5768,-9.5598,-9.5417,-8.3819,-8.3869,-8.4358,-8.4658,-8.498,-8.555,-8.5883,-8.61,-8.6465,-8.6715,-8.6786,-8.6925,-8.6995,-8.7064,-8.7237,-8.7372,-8.7439,-8.7534,-8.773,-8.7794,-8.7895,-8.7958,-8.8418,-8.9026,-8.9621,-8.9645,-9.15,-9.2333,-9.2806,-9.337,-9.4064,-9.4636,-9.4727,-9.4984,-9.5191,-9.5417,-9.5598,-9.5772,-9.6019,-9.6213,-9.6325,-9.6358,-9.6429,-9.6492,-9.659,-9.6731,-9.6839,-9.6953,-9.7087,-9.7232,-9.7364,-9.7496,-9.7552,-9.7622,-9.7689,-9.7689,-9.7698,-9.7667,-9.7682,-9.7701,-9.7694,-9.7676,-9.7675,-9.7689,-9.7701,-9.7682,-9.7659,-9.768,-9.7622,-9.755,-9.7513,-9.7486,-9.7426,-9.7338,-9.7282,-9.7227,-9.7121,-9.6926,-9.6928,-9.6979,-9.6953,-9.6898,-9.6898,-9.6898,-9.687,-9.687,-9.6812,-9.6684,-9.6481,-9.627,-9.6313,-9.6207,-9.6209,-9.6172,-9.6211,-9.6249,-9.6249,-9.6172,-9.6172,-9.6249,-9.6211,-9.6249,-9.6251,-9.6213,-9.6136,-9.6098,-9.6098,-9.6058,-9.6058,-9.5938,-9.5856,-9.5772,-9.5643,-9.5463,-9.5143,-8.4692,-8.4819,-8.4692,-8.5096,-8.5725,-8.5771,-8.6101,-8.6536,-8.6715,-8.6856,-8.6925,-8.6995,-8.7132,-8.7237,-8.7372,-8.7468,-8.7767,-8.7794,-8.7858,-8.8021,-8.8084,-8.8084,-8.8431,-8.8964,-8.9593,-8.9943,-9.1094,-9.1751,-9.2285,-9.3033,-9.3894,-9.4679,-9.4895,-9.5181,-9.5417,-9.5598,-9.5856,-9.6019,-9.6213,-9.6286,-9.6358,-9.6463,-9.6531,-9.6723,-9.6783,-9.688,-9.7057,-9.7176,-9.7225,-9.7382,-9.7487,-9.7577,-9.7661,-9.7675,-9.7682,-9.7689,-9.7701,-9.7706,-9.7672,-9.7691,-9.7691,-9.7701,-9.7675,-9.7675,-9.7682,-9.7698,-9.7671,-9.7622,-9.7538,-9.75,-9.7442,-9.7394,-9.7305,-9.6973,-9.6776,-9.6594,-9.6514,-9.6449,-9.6483,-9.6793,-9.6676,-9.63,-9.6193,-9.6039,-9.6319,-9.6319,-9.5958,-9.5825,-9.5914,-9.5777,-9.5935,-9.594,-9.6055,-9.6057,-9.6095,-9.598,-9.5595,-9.5634,-9.5749,-9.5942,-9.6095,-9.6172,-9.6174,-9.6136,-9.6098,-9.6019,-9.5941,-9.5859,-9.5818,-9.5772,-9.5724,-9.5598,-9.5333,-9.5045,-9.4703,-8.4773,-8.5139,-8.5261,-8.5495,-8.5801,-8.621,-8.6461,-8.6679,-8.6856,-8.6925,-8.6995,-8.7169,-8.7237,-8.7372,-8.7534,-8.7665,-8.7831,-8.7958,-8.8021,-8.8084,-8.8208,-8.8171,-8.8479,-8.8794,-8.931,-8.9667,-9.0491,-9.1212,-9.1547,-9.2505,-9.3079,-9.3821,-9.4734,-9.5324,-9.5592,-9.5776,-9.6058,-9.6212,-9.6322,-9.6394,-9.6525,-9.6629,-9.6684,-9.6821,-9.6993,-9.7083,-9.7212,-9.7304,-9.7433,-9.7533,-9.7622,-9.7671,-9.7689,-9.7689,-9.7672,-9.7687,-9.7694,-9.7695,-9.7694,-9.7684,-9.7701,-9.7689,-9.7675,-9.7667,-9.765,-9.7632,-9.7589,-9.7565,-9.7394,-9.7177,-9.7266,-9.7206,-9.7065,-9.6509,-9.6164,-9.5959,-9.579,-9.5719,-9.5652,-9.5719,-9.5409,-9.5033,-9.5042,-9.5052,-9.5408,-9.5687,-9.5323,-9.5032,-9.5084,-9.5087,-9.5168,-9.517,-9.5172,-9.5057,-9.5057,-9.4903,-9.4788,-9.498,-9.5249,-9.5365,-9.552,-9.6059,-9.6098,-9.602,-9.5826,-9.5629,-9.5508,-9.5571,-9.5604,-9.5598,-9.5509,-9.5371,-9.5045,-9.4651,-9.4328,-8.498,-8.5417,-8.5801,-8.5951,-8.6026,-8.6498,-8.6746,-8.6819,-8.6925,-8.7031,-8.7064,-8.7237,-8.7372,-8.7505,-8.7665,-8.7831,-8.7958,-8.8084,-8.8146,-8.8208,-8.8293,-8.8354,-8.8495,-8.8766,-8.9104,-8.9361,-8.9928,-9.0688,-9.0787,-9.1777,-9.2353,-9.3098,-9.4185,-9.484,-9.547,-9.5904,-9.6211,-9.6358,-9.6425,-9.6492,-9.6653,-9.6774,-9.6887,-9.6979,-9.7137,-9.726,-9.7359,-9.7437,-9.7526,-9.7602,-9.7659,-9.7698,-9.7675,-9.7701,-9.7687,-9.7693,-9.7706,-9.7675,-9.7675,-9.7675,-9.7675,-9.7698,-9.765,-9.7641,-9.7583,-9.7355,-9.7032,-9.692,-9.6754,-9.6546,-9.6477,-9.6144,-9.5942,-9.5377,-9.5248,-9.5078,-9.4884,-9.4723,-9.4607,-9.4568,-9.4346,-9.4385,-9.4141,-9.4227,-9.428,-9.4673,-9.4679,-9.4386,-9.4279,-9.4208,-9.4131,-9.4095,-9.4095,-9.3941,-9.3787,-9.398,-9.4172,-9.4249,-9.4405,-9.452,-9.4752,-9.5253,-9.5328,-9.4865,-9.4745,-9.4926,-9.4834,-9.4586,-9.4967,-9.5425,-9.5239,-9.4996,-9.4599,-9.4217,-9.399,-8.5453,-8.5837,-8.621,-8.6429,-8.6392,-8.6608,-8.6856,-8.6925,-8.7031,-8.71,-8.7268,-8.7305,-8.7505,-8.773,-8.7794,-8.7921,-8.8084,-8.8232,-8.8293,-8.8354,-8.8533,-8.8554,-8.8728,-8.8954,-8.9211,-8.9386,-8.9831,-9.0104,-9.0219,-9.1216,-9.1735,-9.2168,-9.3174,-9.4138,-9.483,-9.5824,-9.6317,-9.639,-9.6442,-9.6537,-9.6803,-9.6875,-9.7043,-9.7182,-9.7266,-9.7363,-9.7494,-9.7559,-9.7611,-9.7682,-9.7675,-9.7675,-9.7695,-9.7691,-9.7691,-9.7695,-9.7682,-9.7675,-9.7675,-9.7675,-9.7659,-9.7671,-9.7622,-9.7499,-9.7318,-9.6848,-9.6219,-9.6135,-9.5496,-9.4984,-9.4738,-9.4641,-9.4628,-9.4419,-9.4326,-9.4065,-9.3872,-9.364,-9.3495,-9.3418,-9.3843,-9.4085,-9.3694,-9.3406,-9.3302,-9.35,-9.3774,-9.374,-9.3438,-9.321,-9.3056,-9.3018,-9.2941,-9.2979,-9.2941,-9.3326,-9.3557,-9.3559,-9.3636,-9.36,-9.3716,-9.4023,-9.3866,-9.3555,-9.3659,-9.3955,-9.3701,-9.344,-9.3802,-9.4111,-9.4642,-9.453,-9.4142,-9.3852,-9.3672,-8.5648,-8.5801,-8.6392,-8.6608,-8.6644,-8.6786,-8.6925,-8.6995,-8.7132,-8.72,-8.7372,-8.7505,-8.7665,-8.7794,-8.8047,-8.8171,-8.8232,-8.8354,-8.8436,-8.8613,-8.8728,-8.8898,-8.9064,-8.9227,-8.9438,-8.9642,-8.9839,-9.0121,-9.0345,-9.0937,-9.1102,-9.1491,-9.2372,-9.3323,-9.4048,-9.4694,-9.496,-9.5663,-9.5902,-9.6183,-9.694,-9.7091,-9.7182,-9.7381,-9.7437,-9.7527,-9.7628,-9.7643,-9.765,-9.7676,-9.7672,-9.7706,-9.7689,-9.7691,-9.7706,-9.7675,-9.7675,-9.7667,-9.7611,-9.7593,-9.7583,-9.7561,-9.7461,-9.7184,-9.6678,-9.6365,-9.5787,-9.5164,-9.4629,-9.4302,-9.4421,-9.4434,-9.4303,-9.3629,-9.3302,-9.2953,-9.2683,-9.2489,-9.2335,-9.2296,-9.2528,-9.2595,-9.2388,-9.2486,-9.2464,-9.228,-9.255,-9.2434,-9.2133,-9.1979,-9.1825,-9.1825,-9.1825,-9.1941,-9.2095,-9.2441,-9.2444,-9.233,-9.2486,-9.2718,-9.2795,-9.287,-9.2978,-9.2933,-9.2919,-9.29,-9.2661,-9.2443,-9.2413,-9.2652,-9.3257,-9.3784,-9.3664,-9.3499,-9.3364,-8.5951,-8.6174,-8.6536,-8.6786,-8.6856,-8.6925,-8.6995,-8.7132,-8.7268,-8.7402,-8.7468,-8.773,-8.7858,-8.7984,-8.8171,-8.8414,-8.8473,-8.865,-8.8728,-8.8898,-8.9009,-8.9173,-8.9386,-8.9541,-8.9692,-8.9887,-9.0075,-9.0345,-9.0478,-9.0641,-9.0877,-9.1295,-9.1852,-9.2403,-9.3083,-9.3686,-9.4389,-9.5081,-9.5399,-9.6023,-9.6632,-9.6991,-9.7362,-9.7488,-9.7559,-9.7642,-9.7682,-9.77,-9.7682,-9.7687,-9.7694,-9.7693,-9.7687,-9.7676,-9.7682,-9.7682,-9.7667,-9.765,-9.7572,-9.7109,-9.7019,-9.6954,-9.7043,-9.6719,-9.5997,-9.5379,-9.4734,-9.4179,-9.3851,-9.3581,-9.349,-9.3579,-9.3358,-9.2644,-9.2528,-9.218,-9.2102,-9.1909,-9.187,-9.1754,-9.1687,-9.1561,-9.1431,-9.1418,-9.1549,-9.1399,-9.1287,-9.121,-9.121,-9.121,-9.121,-9.1248,-9.1287,-9.1479,-9.1482,-9.1444,-9.1333,-9.1066,-9.1375,-9.1836,-9.168,-9.1753,-9.2011,-9.215,-9.1697,-9.1473,-9.1547,-9.1499,-9.1339,-9.1582,-9.2046,-9.2526,-9.3026,-9.2953,-9.2801,-8.6174,-8.6715,-8.6679,-8.6856,-8.6995,-8.7064,-8.7169,-8.7305,-8.7468,-8.7563,-8.7831,-8.7794,-8.7984,-8.8232,-8.8354,-8.8495,-8.8728,-8.8936,-8.9102,-8.9227,-8.9333,-8.9489,-8.9642,-8.979,-8.9935,-9.0121,-9.0301,-9.0517,-9.06,-9.0839,-9.1064,-9.1283,-9.1528,-9.1861,-9.2401,-9.3076,-9.3861,-9.433,-9.486,-9.5545,-9.6195,-9.6836,-9.7255,-9.7457,-9.7617,-9.7682,-9.7678,-9.7689,-9.7676,-9.7695,-9.7676,-9.7695,-9.7689,-9.7706,-9.7695,-9.7682,-9.7611,-9.7366,-9.7162,-9.6575,-9.6164,-9.6014,-9.5865,-9.5864,-9.5377,-9.4402,-9.3729,-9.3129,-9.2703,-9.2263,-9.1976,-9.2053,-9.2064,-9.1909,-9.1909,-9.1793,-9.1793,-9.1754,-9.1754,-9.1716,-9.1687,-9.1591,-9.147,-9.1341,-9.1241,-9.1171,-9.121,-9.121,-9.121,-9.121,-9.121,-9.121,-9.121,-9.121,-9.1136,-9.11,-9.0991,-9.0915,-9.0761,-9.1026,-9.0829,-9.0742,-9.0955,-9.089,-9.0238,-9.002,-9.026,-9.0325,-9.0247,-9.0498,-9.0676,-9.1286,-9.1709,-9.197,-9.1992,-8.6573,-8.6715,-8.6856,-8.6995,-8.72,-8.7468,-8.7534,-8.7431,-8.7665,-8.773,-8.7794,-8.8047,-8.8232,-8.8354,-8.865,-8.8823,-8.8992,-8.9211,-8.9386,-8.9541,-8.9642,-8.9839,-9.002,-9.0121,-9.0257,-9.0389,-9.0558,-9.0721,-9.0877,-9.1098,-9.1313,-9.149,-9.157,-9.1666,-9.1979,-9.2402,-9.2984,-9.3535,-9.4091,-9.4873,-9.5689,-9.6359,-9.6873,-9.7318,-9.7513,-9.7589,-9.7689,-9.7672,-9.7695,-9.7672,-9.7689,-9.7675,-9.7675,-9.7682,-9.7675,-9.7554,-9.707,-9.655,-9.6336,-9.559,-9.5029,-9.4833,-9.4457,-9.4047,-9.3768,-9.3449,-9.2793,-9.2328,-9.2042,-9.1821,-9.1716,-9.1716,-9.1716,-9.1716,-9.1716,-9.1716,-9.1716,-9.1716,-9.1716,-9.1716,-9.1687,-9.1561,-9.1438,-9.1341,-9.1275,-9.1206,-9.121,-9.121,-9.121,-9.121,-9.121,-9.121,-9.1136,-9.1136,-9.1064,-9.0989,-9.0915,-9.0838,-9.0641,-9.0517,-9.0465,-9.0371,-9.0113,-8.9839,-8.9541,-8.9265,-8.9123,-8.9195,-8.9355,-8.8973,-8.9113,-8.9771,-9.0414,-9.0775,-9.1073,-8.6749,-8.6925,-8.7064,-8.7305,-8.7534,-8.7794,-8.7858,-8.7821,-8.7984,-8.7984,-8.8047,-8.8256,-8.8473,-8.865,-8.8879,-8.9102,-8.9265,-8.9438,-8.9642,-8.979,-8.9982,-9.0113,-9.0295,-9.0427,-9.0555,-9.0641,-9.0761,-9.0991,-9.1136,-9.1308,-9.1515,-9.1631,-9.1697,-9.1799,-9.1983,-9.2166,-9.2423,-9.289,-9.3414,-9.4129,-9.4863,-9.5611,-9.6343,-9.6953,-9.7175,-9.7299,-9.7594,-9.7617,-9.7637,-9.7682,-9.7675,-9.7675,-9.755,-9.7386,-9.7085,-9.6824,-9.6132,-9.568,-9.5359,-9.4561,-9.4186,-9.3783,-9.3192,-9.2793,-9.2677,-9.2535,-9.2212,-9.1887,-9.1821,-9.1716,-9.1716,-9.1716,-9.1716,-9.1716,-9.1716,-9.1716,-9.1716,-9.1716,-9.1716,-9.1716,-9.162,-9.1531,-9.1438,-9.1374,-9.1275,-9.1206,-9.121,-9.121,-9.121,-9.121,-9.121,-9.121,-9.1136,-9.1064,-9.1028,-9.0915,-9.0761,-9.0641,-9.0558,-9.0389,-9.0295,-9.0067,-8.9839,-8.9489,-8.9119,-8.8879,-8.8666,-8.8511,-8.8503,-8.8232,-8.8208,-8.8778,-8.9447,-8.9819,-9.0154,-8.6995,-8.7305,-8.7372,-8.7534,-8.7794,-8.7947,-8.8134,-8.8354,-8.8354,-8.8354,-8.8354,-8.8473,-8.8708,-8.8936,-8.9157,-8.9333,-8.9541,-8.9741,-8.9935,-9.0029,-9.0212,-9.0383,-9.0513,-9.0638,-9.0759,-9.0877,-9.0991,-9.1171,-9.1275,-9.1477,-9.1608,-9.1701,-9.181,-9.1921,-9.2016,-9.2113,-9.2325,-9.2532,-9.3025,-9.3652,-9.395,-9.4615,-9.5405,-9.6134,-9.6401,-9.6587,-9.7148,-9.7403,-9.7487,-9.744,-9.7401,-9.7316,-9.6987,-9.6607,-9.6239,-9.5782,-9.5102,-9.4718,-9.4307,-9.3636,-9.3192,-9.2793,-9.2289,-9.203,-9.203,-9.203,-9.1848,-9.1782,-9.1716,-9.1716,-9.1716,-9.1716,-9.1716,-9.1716,-9.1716,-9.1716,-9.1716,-9.1716,-9.1716,-9.1716,-9.1687,-9.1561,-9.1438,-9.1374,-9.1308,-9.1206,-9.121,-9.121,-9.1175,-9.1175,-9.1136,-9.1136,-9.11,-9.1028,-9.0877,-9.08,-9.0641,-9.0517,-9.0389,-9.0257,-9.0067,-8.979,-8.9541,-8.9119,-8.8728,-8.8495,-8.8354,-8.8232,-8.8232,-8.8146,-8.8146,-8.8084,-8.8455,-8.8938,-8.9161,-8.7237,-8.7372,-8.773,-8.7884,-8.801,-8.8256,-8.8495,-8.8613,-8.8766,-8.8728,-8.8671,-8.8785,-8.8992,-8.9173,-8.9438,-8.9642,-8.979,-9.002,-9.0212,-9.0345,-9.0474,-9.06,-9.0759,-9.0877,-9.0991,-9.11,-9.1206,-9.1374,-9.1508,-9.1629,-9.1687,-9.1765,-9.1902,-9.2053,-9.2126,-9.2204,-9.2308,-9.2416,-9.2678,-9.322,-9.3688,-9.3926,-9.4511,-9.5161,-9.558,-9.5619,-9.591,-9.5875,-9.5782,-9.573,-9.5699,-9.5681,-9.56,-9.5368,-9.5182,-9.4911,-9.4174,-9.372,-9.3341,-9.2818,-9.238,-9.2173,-9.1887,-9.1782,-9.1716,-9.1744,-9.1744,-9.1716,-9.1716,-9.1716,-9.1716,-9.1716,-9.1716,-9.1716,-9.1716,-9.1716,-9.1716,-9.1716,-9.1716,-9.1716,-9.1687,-9.1591,-9.147,-9.1336,-9.1308,-9.1241,-9.1206,-9.121,-9.1136,-9.11,-9.1028,-9.1028,-9.1028,-9.0915,-9.08,-9.0641,-9.0474,-9.0301,-9.0121,-8.9982,-8.9877,-8.9438,-8.9064,-8.8728,-8.8316,-8.8293,-8.8232,-8.8146,-8.8146,-8.8084,-8.8084,-8.8084,-8.8084,-8.8455,-8.8493,-8.7402,-8.7628,-8.8072,-8.8256,-8.8376,-8.8613,-8.8785,-8.8954,-8.9102,-8.9119,-8.9119,-8.9173,-8.9318,-8.9438,-8.9692,-8.9973,-9.0067,-9.0243,-9.0383,-9.0517,-9.0681,-9.0877,-9.0991,-9.11,-9.1206,-9.1308,-9.1438,-9.1561,-9.1687,-9.1798,-9.1876,-9.1954,-9.2105,-9.2169,-9.2191,-9.2288,-9.238,-9.2432,-9.251,-9.2811,-9.3318,-9.3378,-9.3732,-9.4335,-9.4634,-9.4754,-9.5105,-9.5118,-9.5105,-9.5122,-9.5203,-9.5132,-9.4966,-9.4544,-9.4228,-9.3843,-9.327,-9.261,-9.2419,-9.2173,-9.1732,-9.1732,-9.1705,-9.1716,-9.1716,-9.1716,-9.1716,-9.1716,-9.1716,-9.1716,-9.1716,-9.1716,-9.1716,-9.1716,-9.1716,-9.1716,-9.1716,-9.1716,-9.1716,-9.1716,-9.1687,-9.1591,-9.15,-9.14,-9.1341,-9.1206,-9.121,-9.11,-9.1064,-9.1028,-9.0953,-9.0877,-9.0839,-9.08,-9.0641,-9.0474,-9.0257,-9.0075,-8.9887,-8.9642,-8.9386,-8.8954,-8.8592,-8.8414,-8.8232,-8.8208,-8.8146,-8.8084,-8.8084,-8.8084,-8.8084,-8.8084,-8.8084,-8.8084,-8.8195,-8.7628,-8.8134,-8.8436,-8.8613,-8.8785,-8.8992,-8.9157,-8.928,-8.9386,-8.9541,-8.9642,-8.9578,-8.9679,-8.9741,-8.9887,-9.0121,-9.0378,-9.0503,-9.0635,-9.0759,-9.0915,-9.1028,-9.1171,-9.1275,-9.1374,-9.1431,-9.1591,-9.1705,-9.1812,-9.1951,-9.2037,-9.2138,-9.2191,-9.2245,-9.2339,-9.2401,-9.2429,-9.249,-9.2498,-9.2535,-9.2619,-9.2585,-9.3125,-9.3536,-9.381,-9.4122,-9.4552,-9.4739,-9.4731,-9.4617,-9.4418,-9.4276,-9.4061,-9.3588,-9.3337,-9.2921,-9.2494,-9.207,-9.1875,-9.1848,-9.1744,-9.1716,-9.1716,-9.1716,-9.1716,-9.1716,-9.1716,-9.1716,-9.1716,-9.1716,-9.1716,-9.1716,-9.1716,-9.1716,-9.1716,-9.1716,-9.1716,-9.1716,-9.1716,-9.1716,-9.1687,-9.1591,-9.15,-9.14,-9.1303,-9.1206,-9.11,-9.1028,-9.0952,-9.0915,-9.0838,-9.0719,-9.06,-9.0558,-9.0474,-9.0257,-9.0029,-8.979,-8.9591,-8.9318,-8.9047,-8.8708,-8.8414,-8.8293,-8.8171,-8.8146,-8.8084,-8.8084,-8.8084,-8.8084,-8.8084,-8.8084,-8.8084,-8.8084,-8.8084,-8.8096,-8.8613,-8.8785,-8.8954,-8.9119,-8.9227,-8.9475,-8.9642,-8.9692,-8.9839,-9.0029,-9.0159,-9.0159,-9.002,-9.0263,-9.0474,-9.0555,-9.0714,-9.0837,-9.0953,-9.11,-9.1206,-9.1308,-9.1406,-9.15,-9.162,-9.1732,-9.1838,-9.196,-9.2028,-9.2088,-9.2187,-9.2243,-9.2315,-9.2373,-9.2451,-9.251,-9.2529,-9.2528,-9.2599,-9.2572,-9.2603,-9.2629,-9.2841,-9.2873,-9.2951,-9.3029,-9.3014,-9.2958,-9.2919,-9.299,-9.2977,-9.2851,-9.2695,-9.2471,-9.2339,-9.1928,-9.1837,-9.1744,-9.1716,-9.1716,-9.1716,-9.1716,-9.1716,-9.1716,-9.1716,-9.1716,-9.1716,-9.1716,-9.1716,-9.1716,-9.1716,-9.1716,-9.1716,-9.1716,-9.1716,-9.1716,-9.1716,-9.1716,-9.1716,-9.1649,-9.1561,-9.1431,-9.1336,-9.1202,-9.11,-9.0953,-9.0915,-9.0839,-9.0761,-9.0641,-9.0517,-9.0389,-9.0301,-9.0212,-8.9982,-8.9741,-8.9489,-8.9227,-8.8992,-8.8708,-8.8436,-8.8293,-8.8171,-8.8146,-8.8084,-8.8084,-8.8084,-8.8084,-8.8084,-8.8084,-8.8084,-8.8084,-8.8084,-8.8084]}]]